GFSSW_sfc_30mbdewp_000.txt.gz
Dewpoint
51 51 51 52 53 53 52 53 53 55 57 56 56 56 56 55 55 53 50 51 52 55 61 58 56 52 49 48 41 37 34 32 31 28 26 28 34 35 34 33 32 33 37 42 50
50 50 50 50 51 52 52 52 53 54 55 55 56 55 56 55 52 50 51 51 52 55 57 54 52 50 45 46 40 37 35 34 34 29 27 32 36 36 34 32 30 31 40 49 50
50 49 49 50 50 50 52 52 52 53 54 55 55 55 55 53 47 44 49 52 51 52 56 58 52 48 44 42 40 38 36 37 36 35 33 37 38 36 33 32 31 30 31 37 47
48 49 49 50 50 50 51 52 52 53 53 53 54 54 54 50 37 47 51 49 51 52 53 57 54 45 44 43 41 38 38 37 38 38 38 38 38 36 34 32 33 33 33 34 42
48 49 49 50 50 50 50 51 51 52 52 53 53 53 51 45 42 42 47 45 51 51 51 54 48 44 43 43 42 40 40 41 41 41 41 40 35 33 32 33 33 33 32 31 39
50 49 49 50 50 50 50 50 51 52 52 52 53 53 47 39 43 44 44 43 49 50 51 54 50 44 43 42 42 42 42 41 41 40 37 36 36 33 33 33 31 30 30 30 35
50 50 50 49 49 50 50 50 50 52 52 52 52 50 46 41 43 45 45 41 44 50 49 55 55 44 44 43 43 42 41 40 39 37 36 35 33 32 33 31 30 29 29 30 32
51 51 51 50 50 50 50 50 50 51 52 52 51 48 41 45 45 43 44 45 45 51 51 57 56 47 44 42 38 39 35 37 36 33 33 32 24 28 31 31 29 28 30 35 39
50 50 50 51 52 53 52 52 51 51 50 50 48 45 39 45 43 45 43 43 48 50 53 56 52 47 45 40 35 32 34 33 33 31 31 31 28 25 30 28 27 27 33 36 38
50 50 48 50 52 53 53 51 51 49 49 47 46 40 40 40 43 43 44 42 47 48 49 53 49 45 44 41 36 34 32 32 31 30 29 27 27 29 30 27 27 27 34 36 38
51 51 50 51 51 54 54 50 42 40 43 40 39 38 40 40 45 43 43 41 45 46 43 49 45 42 42 42 39 37 32 33 31 28 27 26 26 27 28 28 26 29 34 36 37
52 52 52 51 53 55 52 42 39 41 37 41 43 40 41 44 42 41 41 42 43 34 43 46 41 43 43 42 41 36 32 31 31 30 28 28 27 28 28 26 25 30 34 36 37
52 52 53 53 54 54 47 42 50 44 37 40 40 41 41 41 40 40 41 42 40 31 41 39 43 43 43 39 39 36 35 35 34 31 29 27 26 27 25 26 29 33 35 37 37
52 52 52 53 51 51 47 49 51 44 32 35 37 38 41 42 38 43 41 42 40 33 40 43 45 44 42 41 40 39 35 34 31 29 25 27 24 25 24 25 29 32 35 37 38
53 52 53 54 50 48 50 51 51 47 20 33 37 41 42 39 40 42 41 40 40 37 41 41 43 44 42 41 42 40 36 35 31 27 25 25 24 24 23 24 29 32 34 37 38
53 52 52 52 52 52 53 51 46 31 21 33 37 35 37 37 39 42 42 45 43 38 41 39 44 44 44 43 40 37 32 28 27 25 24 25 24 23 23 23 28 31 32 36 38
52 52 52 53 48 54 51 45 30 25 34 32 32 35 35 35 38 39 38 39 37 34 35 36 42 41 42 38 32 33 32 29 24 24 23 24 23 24 24 24 27 30 31 36 38
53 52 52 52 54 52 48 36 26 33 31 35 36 34 33 34 37 37 40 39 42 34 34 33 33 35 31 38 36 33 31 25 20 21 21 24 21 21 26 30 28 31 31 36 38
52 49 50 52 54 51 40 30 31 34 37 36 35 31 34 34 39 39 37 38 40 35 31 34 33 28 27 29 38 29 28 28 26 26 25 26 24 26 28 28 29 30 32 35 37
47 46 47 52 54 48 37 33 38 40 39 35 31 34 33 34 38 37 38 40 40 37 34 30 27 28 24 24 23 26 28 25 26 23 23 24 21 23 23 26 30 30 31 35 37
46 43 50 53 52 44 34 34 41 40 39 36 36 35 35 34 38 36 37 39 38 35 32 28 26 28 24 25 26 24 24 25 26 25 21 20 19 23 23 26 29 31 32 34 36
45 41 51 52 42 42 37 44 41 41 45 42 39 37 36 36 36 37 37 37 38 38 33 32 28 25 25 30 27 24 23 24 23 22 22 21 22 24 27 26 31 31 33 33 36
40 45 51 50 40 41 44 42 41 41 42 42 37 36 34 34 36 38 40 40 40 37 35 34 30 28 30 30 32 27 25 23 24 24 21 20 21 25 25 30 32 32 33 34 35
42 39 45 47 46 41 41 40 41 46 45 42 37 37 34 36 38 37 39 39 40 38 39 35 31 27 27 27 29 28 27 24 24 23 23 22 22 23 24 28 30 31 33 34 36
41 36 40 38 40 39 40 42 41 41 43 40 39 35 34 35 36 37 36 36 36 37 35 32 29 28 26 29 30 28 27 26 24 25 24 25 24 23 25 26 27 29 31 34 36
38 36 37 35 34 34 35 38 37 36 38 38 38 38 36 36 35 36 36 36 35 34 32 30 26 24 22 22 22 26 28 27 26 25 24 25 24 24 29 31 33 34 33 34 36
41 41 35 34 31 31 34 36 35 35 35 38 38 37 32 34 33 36 34 34 34 31 29 25 24 23 22 22 21 18 20 29 27 27 27 24 24 27 32 32 32 33 34 34 35

GFSSW_sfc_30mbdewp_003.txt.gz
Dewpoint
50 50 50 51 52 53 53 53 53 54 56 57 58 57 58 57 56 53 50 49 52 51 53 56 57 56 49 48 42 38 35 33 32 29 31 28 35 37 36 34 33 32 35 39 49
50 50 49 49 50 51 52 53 52 53 54 55 56 57 57 56 53 50 52 53 52 52 53 56 54 52 47 46 43 38 36 35 35 32 30 31 36 38 37 35 33 31 33 43 47
49 49 49 49 49 50 51 52 53 53 53 54 55 56 56 54 49 47 51 54 53 52 52 57 57 51 47 45 43 40 37 38 37 36 34 36 39 39 36 34 32 31 33 33 39
48 48 48 49 50 50 50 51 52 53 53 54 55 55 55 49 37 45 51 52 53 53 51 53 55 49 47 44 41 39 39 39 39 39 39 39 40 39 36 35 35 34 34 33 32
49 49 49 49 50 50 50 50 51 52 53 53 54 54 52 47 43 45 48 45 48 52 50 51 52 47 46 45 42 40 40 41 41 41 42 42 40 39 36 36 35 34 32 31 30
50 50 50 49 49 50 50 51 50 51 53 53 53 53 47 40 43 45 44 43 42 50 50 51 51 46 46 44 44 43 42 41 42 42 40 38 39 36 39 36 34 32 30 30 30
50 50 51 51 51 50 50 50 50 51 53 53 53 51 45 42 44 44 45 44 43 48 49 51 54 45 45 44 44 43 41 42 41 40 40 37 36 35 36 34 33 31 29 36 41
51 51 52 51 51 51 51 51 51 51 52 52 50 48 41 45 46 44 43 43 45 47 50 51 54 50 44 43 42 42 40 39 40 35 35 33 32 30 30 33 30 28 35 39 41
51 51 52 51 51 52 53 53 52 51 52 50 48 45 39 45 44 44 42 41 45 51 52 51 54 49 45 40 39 38 38 37 38 37 36 32 28 30 29 29 28 29 35 38 39
50 52 52 50 50 51 53 54 52 51 49 48 46 41 42 41 43 44 44 41 44 49 48 49 51 46 44 41 37 35 36 33 33 32 30 29 29 29 29 29 28 29 36 37 39
51 52 52 51 51 52 52 52 45 43 43 38 38 37 40 40 44 43 43 40 42 47 39 45 44 42 42 43 39 35 33 32 35 32 29 28 28 29 29 29 28 31 36 37 38
51 52 53 53 52 52 53 44 41 39 36 41 41 40 41 44 41 42 41 38 41 38 39 41 41 44 43 43 39 37 35 34 33 31 30 31 29 28 29 29 26 31 36 36 38
51 52 52 51 52 53 50 46 46 44 36 39 39 41 41 40 39 40 40 38 40 34 36 37 42 43 42 43 41 37 36 34 35 33 30 28 27 26 26 26 29 34 36 37 38
53 53 52 51 51 51 47 51 48 45 30 34 37 37 41 41 36 42 41 39 39 32 33 41 43 42 42 41 41 38 35 36 34 36 33 27 24 26 26 24 30 34 36 37 39
53 53 52 51 50 47 49 51 49 42 19 34 36 40 41 35 37 40 42 39 37 33 35 40 41 41 41 41 41 39 39 39 35 32 26 25 24 24 24 23 28 33 36 38 39
53 52 52 51 51 51 52 51 46 29 20 33 37 37 37 37 35 41 39 42 41 34 33 42 44 44 42 42 42 33 34 34 28 26 25 25 24 23 23 22 27 31 34 38 39
53 52 51 51 48 53 51 44 29 24 34 32 33 36 33 33 34 37 35 36 36 31 31 40 43 45 47 38 36 35 37 32 29 26 25 24 24 23 25 24 27 30 33 37 39
53 52 51 50 53 51 46 36 25 30 29 34 33 34 31 32 36 35 34 32 39 37 31 34 34 40 44 41 37 38 37 31 25 22 22 25 22 20 24 28 28 31 32 38 39
52 47 48 50 53 50 39 29 28 33 32 33 32 29 30 32 35 35 34 31 37 39 28 31 34 36 39 36 38 35 36 31 26 26 25 27 27 27 27 28 29 30 32 37 38
46 45 46 51 51 45 34 32 35 38 36 31 26 29 26 30 33 31 34 34 37 39 37 35 29 33 25 33 28 35 33 33 26 23 21 24 24 25 23 24 29 30 32 36 38
47 42 49 53 49 42 32 33 38 42 34 29 31 33 29 31 33 34 32 39 41 39 37 30 29 28 24 26 29 31 34 31 26 26 23 20 20 24 23 24 28 30 33 36 37
44 40 51 51 40 39 36 37 41 38 39 37 36 37 35 32 32 34 36 37 43 40 33 28 29 26 25 29 28 26 30 29 24 23 23 22 23 25 26 27 30 31 32 35 37
40 44 52 50 37 38 40 41 43 39 40 40 36 36 36 35 36 37 39 39 41 38 34 31 29 27 27 29 31 28 25 25 25 24 22 21 22 24 27 31 31 31 32 33 36
41 40 45 46 45 42 41 40 40 44 42 43 36 36 35 35 37 37 38 39 40 38 38 33 30 29 27 28 28 27 26 24 24 23 22 22 22 23 24 29 30 31 33 34 35
41 38 43 38 40 41 43 41 40 40 44 44 40 35 35 35 37 37 40 37 38 40 37 33 28 28 27 29 28 27 27 24 24 24 23 24 24 25 23 28 29 27 30 33 36
39 36 38 36 35 41 40 42 39 41 42 40 38 35 36 36 37 37 37 37 35 34 35 32 28 24 23 27 27 27 28 26 25 25 25 25 25 26 28 30 32 33 33 34 36
41 41 36 33 31 33 35 40 40 40 41 36 37 34 35 35 36 38 37 37 36 32 30 32 26 24 26 22 21 23 24 28 27 27 26 25 26 26 30 32 32 33 33 34 35

GFSSW_sfc_30mbdewp_006.txt.gz
Dewpoint
50 50 50 50 51 52 53 53 53 54 55 58 58 58 58 58 56 54 49 48 48 50 52 52 55 55 54 49 46 40 35 31 31 32 31 29 34 37 38 36 33 33 32 36 45
49 50 50 49 49 50 51 52 53 53 53 54 56 57 57 56 53 51 52 53 54 53 46 50 50 53 50 47 46 41 36 33 35 34 33 34 37 39 38 35 33 30 33 34 35
49 49 49 50 50 50 51 51 52 54 53 54 55 56 56 55 49 47 51 54 55 54 50 47 56 53 48 46 44 41 37 36 37 36 35 37 38 40 39 36 34 32 32 34 34
49 49 49 49 50 50 50 50 52 53 54 53 55 55 55 51 37 48 51 52 54 54 51 45 52 51 48 45 43 39 40 38 38 39 39 38 39 40 40 40 39 39 38 35 33
51 50 49 50 50 50 50 50 50 52 53 53 54 54 52 47 44 48 48 45 46 51 50 44 49 47 46 45 43 41 38 40 40 40 40 41 41 40 40 40 40 40 36 34 32
51 51 50 51 50 50 50 50 51 50 52 53 54 53 47 41 44 44 45 44 42 48 50 45 47 46 41 43 43 42 41 40 39 40 41 40 39 39 38 38 37 36 35 33 35
51 51 51 51 51 51 50 50 50 50 51 53 52 50 45 40 42 42 43 41 42 43 46 47 46 49 43 44 45 42 40 40 40 41 40 41 37 36 37 31 31 32 32 38 40
51 52 52 52 52 51 50 50 51 52 51 51 50 48 39 43 44 43 42 42 43 41 45 46 47 50 51 44 44 43 42 37 37 40 40 37 32 34 32 30 29 30 34 38 40
50 52 52 53 52 52 52 52 53 52 51 50 46 44 37 44 42 43 42 39 43 42 41 46 48 49 48 43 41 42 37 36 35 39 38 37 32 30 31 30 29 29 34 36 38
51 51 52 53 52 51 51 52 54 51 49 48 46 40 39 38 41 41 42 39 41 43 44 45 45 45 46 42 36 35 35 34 34 35 34 32 34 32 31 30 30 29 34 36 37
51 52 53 53 52 51 51 50 45 44 45 38 37 34 38 39 43 41 42 39 41 42 39 40 38 38 40 43 38 33 34 35 34 34 33 34 34 31 34 32 30 30 33 35 37
51 52 53 53 52 52 52 47 43 42 39 41 40 37 41 41 39 39 42 36 37 36 41 36 36 40 44 43 40 36 34 34 33 33 32 34 35 36 33 31 30 30 33 35 37
51 52 53 53 51 51 50 49 49 47 37 39 40 39 38 39 38 38 40 35 35 35 39 34 38 41 45 41 39 36 34 32 32 34 34 32 32 31 27 27 28 30 34 35 36
52 52 53 51 48 50 49 49 49 46 31 33 38 38 40 40 36 37 39 34 36 34 38 32 38 43 42 40 40 34 37 36 36 38 33 32 28 29 27 27 29 33 34 35 37
53 52 53 51 49 47 49 49 47 43 21 32 36 38 37 34 33 36 40 34 33 37 36 33 39 40 42 40 39 35 39 38 38 37 35 33 28 27 26 24 28 33 34 36 38
53 53 52 49 49 50 49 48 43 29 21 33 37 36 36 35 32 38 39 36 39 36 35 32 45 42 40 41 40 38 36 36 33 33 31 30 28 25 22 22 26 33 35 37 38
55 53 50 47 44 51 50 43 29 24 34 31 33 37 33 30 29 34 35 33 33 31 31 34 35 45 42 42 38 38 37 33 32 31 28 25 25 24 25 24 26 31 35 36 38
55 53 50 48 49 52 45 36 25 30 31 35 35 36 31 30 29 33 31 28 34 37 29 30 32 43 43 40 38 37 35 29 24 25 25 25 23 21 25 27 27 30 34 37 38
54 50 48 49 51 49 39 28 29 34 34 33 33 31 28 29 28 34 28 26 34 36 30 31 33 42 43 40 39 39 36 32 26 26 24 24 27 28 27 28 29 29 34 37 38
46 45 45 48 51 46 34 32 34 38 36 32 24 26 23 26 32 33 26 25 30 36 38 33 32 38 37 42 38 39 38 32 29 24 22 23 24 23 23 25 28 29 33 37 38
46 42 47 51 49 40 31 33 37 39 37 26 24 24 24 25 33 29 26 31 30 34 37 35 33 32 36 38 37 37 37 36 30 26 22 19 21 24 24 26 27 28 32 36 38
45 40 51 50 38 37 34 36 40 41 39 26 27 25 22 27 29 33 26 33 28 37 35 37 29 33 32 30 35 36 34 33 30 26 24 23 21 25 26 27 28 29 32 36 37
41 44 50 47 35 35 39 38 39 40 36 29 32 31 28 27 30 33 32 30 34 37 36 33 29 28 31 32 29 33 33 35 30 25 24 23 22 24 29 31 31 31 33 36 37
42 40 45 45 44 41 39 38 39 41 36 38 36 36 32 29 29 30 34 38 41 36 39 33 30 25 25 28 30 30 30 33 33 29 25 24 24 24 27 30 31 32 32 34 36
41 40 42 38 39 40 41 40 38 40 41 43 37 36 29 31 34 34 35 39 38 41 39 36 28 30 29 29 29 29 30 28 29 30 26 26 25 25 25 30 31 32 32 33 34
37 38 40 40 41 41 41 40 37 42 40 39 41 36 34 32 34 36 38 38 38 40 38 36 30 26 26 30 28 27 28 31 31 30 27 26 26 27 26 29 29 29 30 32 34
43 41 38 35 33 39 38 41 39 40 43 43 41 36 35 36 36 39 40 39 38 37 37 34 30 28 25 24 25 26 27 27 27 27 26 25 27 27 28 28 30 32 33 34 35

GFSSW_sfc_30mbdewp_009.txt.gz
Dewpoint
50 50 51 50 50 51 52 53 53 53 55 57 58 58 59 58 57 54 49 48 48 51 51 49 47 50 51 48 46 43 35 32 30 30 30 31 31 33 37 35 33 32 32 34 37
50 50 50 50 50 50 51 52 53 53 53 54 55 57 58 57 52 51 52 53 54 55 48 44 44 44 49 47 45 41 35 32 32 31 31 32 34 36 37 35 34 33 32 34 34
51 50 50 50 50 50 51 51 52 53 54 53 54 56 56 55 49 47 51 53 55 56 51 46 45 50 45 46 43 42 36 35 34 34 35 34 35 36 38 36 36 34 34 35 36
51 50 50 49 50 50 50 51 51 52 53 54 54 55 56 50 35 47 52 52 53 54 51 46 42 48 45 43 43 39 38 37 35 36 37 36 36 36 38 38 39 39 39 39 36
51 51 51 50 50 50 50 50 50 50 52 53 54 54 51 46 43 48 48 45 45 52 49 45 39 41 44 42 43 41 38 37 38 36 37 38 37 37 38 39 39 38 38 38 36
51 51 51 51 51 50 50 50 51 51 51 52 54 54 47 39 42 44 45 44 43 45 48 48 40 38 39 40 40 42 40 39 37 37 37 37 37 37 37 39 37 36 33 35 35
51 51 52 51 52 52 51 50 50 50 51 51 53 50 43 39 39 41 41 40 41 40 42 47 44 40 40 42 39 41 39 39 38 37 36 38 36 36 37 37 30 28 29 34 38
51 51 52 52 53 52 52 51 51 51 51 51 50 47 43 41 41 41 41 39 39 40 39 42 45 41 43 47 44 37 40 39 37 37 37 38 34 33 34 31 28 28 31 36 38
52 51 52 53 53 53 52 52 52 53 52 51 46 45 38 43 41 40 40 37 37 40 39 40 44 42 44 44 42 41 37 37 36 36 36 37 33 32 33 30 29 28 30 34 37
54 52 52 53 53 53 53 52 52 53 51 48 44 41 38 37 38 40 40 39 36 37 37 38 42 41 41 40 35 36 37 34 36 33 36 35 34 34 33 31 30 28 29 34 36
54 53 53 53 53 52 50 49 45 44 47 41 39 35 36 36 40 40 38 39 37 35 35 36 37 35 36 38 41 37 38 34 35 34 34 34 33 31 32 33 32 29 30 34 35
54 53 53 53 52 52 50 45 43 44 40 43 40 39 37 40 37 39 39 36 34 32 33 35 35 35 34 38 39 39 35 33 32 34 33 32 31 32 33 34 34 29 30 33 36
53 52 52 52 52 51 49 44 48 46 39 39 42 39 37 39 36 35 38 36 31 31 30 32 35 34 32 35 40 39 38 33 33 34 33 32 33 34 35 34 31 30 30 34 35
53 52 52 52 47 44 45 50 50 48 32 34 38 40 40 41 37 38 38 35 31 29 29 33 34 37 32 35 41 37 39 33 33 34 30 34 25 26 29 27 28 28 31 34 35
53 53 53 50 45 47 48 50 49 44 22 33 38 41 41 38 32 32 35 36 31 30 35 31 34 36 33 37 41 40 39 34 36 34 37 36 31 28 29 26 28 28 32 34 35
54 53 53 51 48 47 48 48 45 30 22 33 37 36 36 39 34 33 32 35 33 31 38 31 38 38 35 40 44 43 38 39 37 34 30 30 30 24 26 26 26 29 33 35 36
56 54 52 44 41 50 48 43 29 25 33 32 32 36 35 35 34 32 33 32 33 29 30 34 34 39 42 40 43 42 39 34 30 31 25 27 28 26 23 24 25 30 33 35 37
56 55 52 45 50 49 45 35 25 29 31 36 35 35 32 34 31 29 31 30 32 33 32 29 28 36 38 42 39 40 39 28 23 23 24 26 25 24 26 26 26 31 33 35 37
55 53 50 49 50 49 40 28 30 33 35 34 35 31 31 34 23 24 28 30 29 33 31 30 31 39 41 43 40 38 37 32 27 25 23 25 26 25 27 27 26 29 33 35 37
48 46 45 48 50 46 36 31 34 37 37 36 27 28 26 29 24 26 29 31 28 30 36 35 30 36 43 43 42 40 36 31 28 22 21 23 22 22 24 25 27 27 32 35 37
46 42 45 49 49 41 30 32 37 39 38 35 26 23 22 22 24 26 27 25 27 27 36 38 34 33 39 39 38 40 36 35 29 26 22 21 21 25 23 25 27 28 32 35 37
45 38 49 50 38 37 33 35 38 38 40 36 24 23 20 21 25 27 25 23 24 30 36 39 36 31 33 32 38 40 37 33 28 26 25 23 21 24 25 27 28 28 31 35 37
42 42 49 46 34 34 35 37 38 37 39 33 26 24 22 22 23 29 29 26 29 26 38 37 34 32 33 33 38 38 35 36 33 29 25 22 22 25 27 30 30 29 31 35 37
40 39 42 44 41 39 36 36 36 39 38 32 29 25 25 24 25 27 30 30 33 28 38 37 32 30 26 28 35 36 36 34 32 28 26 25 24 23 27 29 30 30 32 35 36
40 40 40 36 37 39 40 39 36 38 39 33 36 29 27 22 24 29 29 33 32 32 35 37 30 27 26 28 31 32 33 34 33 32 28 26 25 25 25 28 30 31 33 34 35
38 34 42 42 39 39 39 38 37 38 38 37 39 33 29 26 23 24 30 32 34 37 33 36 32 29 28 29 28 28 30 32 32 32 31 28 28 28 28 27 29 31 32 33 34
45 42 38 36 38 37 38 38 39 40 42 39 41 37 33 29 30 35 33 36 36 35 37 35 35 29 25 27 29 27 27 28 30 30 29 28 29 30 27 27 29 29 31 32 33

GFSSW_sfc_30mbdewp_012.txt.gz
Dewpoint
51 50 51 51 51 50 51 52 53 53 55 57 58 58 59 58 58 55 51 49 52 54 53 47 46 46 50 51 49 45 40 36 35 34 33 31 31 32 35 35 35 34 33 36 36
51 51 50 51 51 50 51 51 52 54 54 54 55 57 58 58 53 51 53 53 54 55 50 44 42 42 43 49 48 44 41 38 35 34 32 32 32 33 36 36 34 35 35 34 35
51 51 50 50 50 50 51 52 51 53 54 54 54 55 57 56 49 47 51 53 55 55 53 49 45 43 46 45 46 44 42 40 35 34 34 33 34 34 35 36 37 35 38 39 39
51 51 51 51 50 51 51 51 51 51 53 54 54 55 56 51 37 49 52 52 53 54 53 49 44 41 46 43 44 42 42 40 39 37 36 35 36 36 35 36 39 39 40 40 39
51 51 51 51 51 51 50 51 51 50 51 53 54 54 51 44 41 49 48 47 48 51 51 47 44 39 41 42 43 42 42 40 38 38 37 37 37 37 37 38 39 39 40 39 39
53 51 51 52 52 52 51 50 51 51 51 52 53 54 48 39 40 42 46 45 43 44 48 48 45 41 37 39 41 42 42 43 41 37 37 37 36 37 37 38 38 39 37 35 36
54 52 52 52 52 52 52 52 50 50 51 51 52 51 44 39 39 40 43 44 43 40 40 47 47 46 39 36 41 40 39 41 41 39 37 37 36 36 38 37 37 37 30 34 37
54 53 52 53 53 53 53 52 51 52 52 52 51 48 42 44 43 40 40 39 40 39 39 40 42 44 44 41 43 42 39 38 40 39 38 37 34 36 38 36 36 30 28 36 38
54 54 52 53 54 54 53 52 52 52 53 51 48 45 38 43 42 41 40 38 37 37 38 38 39 41 43 38 39 40 36 37 39 40 37 36 35 37 38 35 33 29 29 35 37
56 55 53 53 53 53 53 52 51 51 51 49 45 40 41 37 39 40 40 39 37 35 36 37 37 38 40 37 31 34 38 35 38 38 38 36 34 37 37 33 30 30 28 34 37
56 55 54 53 53 52 52 48 45 44 47 39 39 34 35 38 40 38 39 38 38 36 33 35 34 33 36 37 37 36 35 37 35 39 36 35 34 36 36 35 34 33 30 34 37
55 55 53 53 53 52 51 44 43 45 40 45 41 40 38 39 36 37 38 36 36 34 33 33 32 33 34 35 36 35 37 38 37 37 35 34 34 35 35 34 33 33 31 34 37
55 54 53 52 52 50 48 46 48 46 39 42 43 40 40 39 36 35 38 36 34 33 32 31 32 34 32 32 33 33 34 38 38 36 37 33 33 32 33 32 34 34 32 36 36
54 54 52 52 48 46 46 48 49 48 34 34 38 41 41 42 38 38 38 36 33 30 31 31 32 30 32 31 32 30 35 38 40 40 34 34 28 31 31 33 34 32 31 36 36
54 54 53 49 48 44 49 50 49 45 23 35 38 43 41 39 37 37 40 40 33 30 30 31 32 29 30 35 33 33 37 37 40 40 37 35 30 31 30 32 31 28 30 35 36
55 54 53 51 49 49 50 48 44 31 21 33 38 37 37 38 38 39 37 40 37 33 31 33 34 33 32 33 35 35 36 40 41 38 34 37 32 29 28 29 28 28 33 35 36
55 54 52 49 44 50 48 43 30 25 32 33 33 36 34 35 36 36 35 33 31 28 27 34 34 34 37 36 34 36 37 32 32 33 31 31 33 29 24 26 28 29 33 35 37
55 55 52 48 50 49 44 36 25 26 30 37 36 35 32 35 35 35 34 29 31 32 30 26 23 34 36 36 33 36 37 32 27 29 26 28 27 27 25 26 29 31 34 36 37
55 54 50 49 50 47 39 28 27 30 36 34 34 31 31 34 35 34 32 31 30 30 29 28 28 37 37 34 39 34 32 37 35 26 25 26 26 25 27 26 29 32 35 36 37
50 49 48 51 50 46 37 31 31 37 37 37 30 31 26 30 30 29 29 28 29 31 33 33 29 37 38 40 41 39 40 36 35 23 23 25 25 23 25 27 27 32 34 36 37
47 43 47 51 49 41 31 32 33 37 38 35 33 28 26 26 26 24 22 25 29 30 35 35 31 34 36 39 36 38 38 39 36 30 23 22 23 26 26 28 27 31 34 37 38
46 39 48 51 39 38 34 35 38 38 40 38 37 35 22 24 24 25 26 30 30 31 33 35 33 31 33 37 42 40 39 36 28 27 26 24 22 25 26 27 28 28 34 37 38
42 43 50 46 33 34 36 37 37 37 39 38 34 28 22 21 20 22 29 29 33 35 34 36 32 30 31 37 42 40 40 37 35 32 27 22 22 27 29 28 29 29 35 37 38
43 38 42 44 41 37 35 36 34 39 38 39 34 27 23 21 21 28 26 30 31 33 36 43 37 32 31 33 37 37 37 36 35 31 28 25 23 25 29 30 30 30 33 37 38
42 39 39 35 36 38 39 38 36 34 40 39 31 28 23 22 22 22 30 29 32 28 36 37 36 37 35 36 37 36 36 36 34 34 28 27 24 24 28 30 30 31 35 37 37
41 37 41 40 37 37 37 36 37 36 39 36 34 36 35 26 23 24 27 29 29 33 30 33 34 35 28 30 33 35 36 35 34 32 31 32 30 27 27 30 31 32 34 36 37
46 44 39 38 40 38 38 38 38 39 39 40 37 33 36 29 28 25 27 30 33 34 35 33 35 32 25 28 28 26 30 34 34 34 34 31 32 29 27 28 30 31 33 35 36

GFSSW_sfc_30mbdewp_015.txt.gz
Dewpoint
51 51 51 51 51 51 51 51 53 54 54 56 58 59 59 59 58 56 51 51 53 55 54 48 44 43 45 48 51 50 42 39 38 35 34 36 31 32 33 34 36 35 34 37 44
51 51 51 51 51 51 51 52 52 53 55 54 55 57 58 58 54 52 54 55 55 55 51 47 46 44 43 47 50 47 43 41 39 37 35 35 33 32 34 36 36 36 37 37 43
51 51 52 51 50 50 51 51 52 52 53 55 54 55 57 57 50 48 53 55 55 55 54 52 50 46 43 43 46 47 44 43 40 39 37 35 35 35 35 35 37 37 38 40 39
52 51 51 52 51 50 51 51 51 51 52 53 54 55 56 53 38 50 52 53 54 55 54 51 49 43 43 45 44 45 46 45 44 43 41 38 36 35 36 36 38 39 40 40 39
53 52 52 52 52 51 51 51 51 51 51 52 54 54 52 46 45 50 48 48 50 53 51 51 47 45 39 42 43 43 43 44 44 43 41 39 37 36 36 38 38 38 38 39 40
54 53 52 52 53 52 52 51 51 51 51 51 52 54 48 41 43 44 47 45 44 50 50 50 48 46 43 39 38 41 42 43 43 42 41 38 37 37 38 39 38 38 38 39 37
55 55 53 52 52 52 52 52 51 51 51 51 52 51 47 41 42 42 45 45 45 42 40 49 48 46 46 40 40 42 41 40 42 42 42 42 37 36 38 38 38 37 37 36 38
56 56 54 53 52 52 53 53 53 52 53 52 51 49 42 44 46 43 43 42 41 40 40 39 41 40 44 44 41 40 41 38 39 40 42 41 37 37 38 37 37 37 36 35 38
56 56 54 53 53 54 54 53 52 52 52 52 49 47 38 43 44 44 43 38 38 38 38 38 38 38 42 40 37 39 34 37 38 40 40 39 37 38 38 37 36 36 34 36 38
56 56 55 54 53 54 53 53 51 50 50 50 47 40 41 36 41 43 41 40 38 37 36 38 36 37 39 38 29 31 33 36 37 38 39 40 38 37 37 37 36 36 30 36 38
54 55 55 54 53 53 52 48 44 43 47 42 41 35 35 40 39 41 41 39 39 37 34 36 34 32 34 37 37 32 33 35 38 38 38 37 38 38 37 36 36 32 30 37 38
54 55 55 53 53 53 50 45 43 44 40 44 43 41 39 39 37 38 40 37 36 34 35 33 32 34 35 36 36 36 35 34 36 39 38 38 37 37 37 37 36 35 34 37 39
54 54 55 53 53 51 48 44 47 46 38 40 43 42 41 40 38 37 39 37 35 35 34 31 32 33 33 33 33 35 34 33 33 36 39 38 37 36 36 36 36 35 34 38 39
53 54 53 53 48 48 47 48 48 46 34 34 38 42 42 41 38 40 39 36 35 33 33 33 32 31 32 32 32 30 33 33 33 34 33 39 33 36 35 34 34 33 34 37 38
52 54 54 48 44 44 48 50 49 46 21 34 38 43 42 39 38 39 40 39 35 33 33 31 31 31 30 31 32 30 31 31 32 33 35 36 36 34 32 33 32 33 34 37 38
53 54 53 48 48 50 50 48 44 30 20 33 37 37 37 40 38 39 37 40 41 38 36 32 35 34 31 31 31 35 33 33 35 34 30 35 35 31 31 31 32 32 35 36 38
54 55 53 49 44 50 48 42 30 24 30 32 33 36 33 34 36 37 36 35 33 28 28 34 34 35 36 33 34 34 32 24 24 26 25 33 33 35 30 30 31 30 35 36 38
54 55 52 49 50 49 43 36 21 25 28 36 35 33 32 33 35 35 34 31 37 33 30 26 22 33 35 33 29 32 30 26 19 22 26 37 33 33 34 30 32 32 35 37 39
55 53 50 51 50 47 38 27 23 27 35 34 35 31 31 34 33 34 32 32 31 34 26 27 27 34 33 33 32 30 29 30 32 33 31 35 32 26 27 28 31 35 36 37 39
52 49 47 50 50 44 36 29 29 34 37 37 30 33 28 29 30 32 31 33 31 30 32 31 26 30 33 35 34 31 33 28 30 27 25 29 23 24 25 29 33 34 35 37 39
49 44 48 50 48 41 31 32 32 36 38 35 33 33 32 29 31 30 28 29 33 30 30 31 31 30 33 34 31 34 34 33 35 32 29 27 25 27 25 29 32 35 36 37 39
46 40 49 49 38 37 33 34 36 36 39 38 37 36 34 29 29 26 26 23 33 32 29 35 32 27 29 36 38 32 35 33 29 32 33 23 21 26 27 28 32 34 36 38 39
43 43 49 46 33 34 36 35 36 37 38 38 36 36 34 27 29 27 28 30 35 35 35 36 30 25 30 36 39 35 37 35 34 37 32 21 21 28 28 28 30 34 37 38 39
43 37 43 44 42 37 35 35 35 39 38 39 38 36 34 29 28 25 25 32 33 35 38 37 34 31 29 34 38 34 34 38 37 33 28 23 24 28 28 28 28 34 37 38 38
43 39 39 35 36 38 37 37 36 34 38 40 37 37 31 24 22 26 26 28 34 35 38 36 31 33 34 35 37 37 36 36 34 35 26 23 23 28 28 29 29 35 37 38 38
40 40 40 38 38 38 38 37 36 37 37 38 37 33 33 28 24 24 27 30 30 37 36 37 32 36 36 37 37 36 38 37 35 34 33 32 30 27 30 31 30 35 37 37 38
46 45 41 40 37 36 36 36 36 38 39 39 39 36 34 34 36 36 29 30 31 32 32 34 34 36 27 37 36 34 36 35 35 34 33 30 31 27 29 30 30 34 37 37 38

GFSSW_sfc_30mbdewp_018.txt.gz
Dewpoint
51 51 51 51 51 51 51 51 52 53 55 55 57 59 60 60 59 57 52 51 53 55 55 48 45 44 44 45 48 49 43 39 37 36 35 36 35 34 33 33 35 35 35 35 42
52 51 51 51 51 51 51 51 52 52 53 55 55 57 58 58 55 53 55 56 56 56 51 47 45 48 43 45 46 48 44 41 41 39 36 37 35 34 34 36 36 37 38 41 47
53 52 52 52 51 50 51 51 52 52 53 54 54 55 57 57 50 49 54 56 56 56 54 52 51 47 42 43 46 47 44 43 42 41 40 38 37 36 34 34 36 36 38 37 44
54 53 52 51 52 51 51 51 51 51 52 53 54 55 56 53 37 49 52 54 55 56 54 51 49 45 41 44 45 41 45 46 45 45 44 42 39 38 36 35 37 38 39 39 40
55 54 52 52 52 52 51 51 51 51 51 52 54 55 52 47 45 47 49 50 53 55 53 51 48 45 40 41 42 42 43 44 46 46 45 44 42 39 38 37 38 39 38 38 38
56 54 54 52 52 53 52 52 51 51 51 51 52 53 48 38 45 44 48 45 45 51 52 51 49 47 44 41 39 40 39 41 43 43 44 43 42 40 39 38 38 38 38 38 38
56 56 55 54 52 53 52 53 52 51 51 51 52 51 47 41 43 44 43 45 45 46 45 50 50 48 46 43 42 41 38 40 40 41 42 43 41 42 40 38 38 38 37 38 38
56 55 56 54 52 53 52 53 53 52 52 52 52 50 40 45 46 44 43 42 45 42 40 40 44 47 42 44 42 39 39 36 38 40 41 41 39 40 40 38 37 38 37 38 37
56 55 55 55 54 54 54 54 52 52 52 52 49 46 36 43 44 43 44 41 39 39 39 39 38 38 39 41 38 38 33 34 37 39 40 40 38 39 40 39 37 37 38 37 37
54 55 55 55 54 54 54 53 52 50 49 51 47 43 42 37 42 43 43 42 38 37 36 37 36 35 38 37 30 31 32 33 33 39 39 38 38 40 40 39 38 37 37 36 37
54 54 55 55 54 53 53 49 44 44 47 42 42 39 35 40 42 41 43 40 39 37 34 36 34 31 33 36 36 36 33 32 35 37 38 38 38 38 40 40 37 37 36 34 37
52 53 54 54 53 53 49 44 42 42 39 44 44 42 40 41 38 39 41 38 37 35 36 34 31 32 33 33 35 35 35 34 34 34 36 37 38 39 38 38 39 37 37 34 38
52 52 53 54 53 52 48 45 47 45 39 39 43 42 42 42 39 38 39 38 36 35 34 30 30 32 33 33 33 33 32 32 32 34 34 32 32 36 39 39 39 38 37 36 38
52 51 53 53 49 49 46 47 47 46 32 33 38 42 42 42 38 40 39 37 36 34 33 32 34 32 32 32 33 30 34 34 33 32 28 34 28 34 36 37 37 37 36 36 39
51 52 53 50 43 45 44 49 48 46 13 32 37 42 42 39 39 39 40 38 37 35 34 31 33 32 30 30 32 31 32 31 32 32 31 30 28 31 36 35 37 37 35 37 39
54 53 53 47 48 48 50 49 45 30 14 33 37 37 37 40 39 40 39 40 43 38 35 32 35 33 31 30 33 35 32 31 31 31 26 26 28 27 34 35 35 36 35 36 39
54 54 52 46 46 50 48 43 29 21 30 32 33 36 34 34 35 37 36 36 33 30 28 33 34 35 36 30 31 31 29 22 22 22 19 26 25 26 34 35 34 34 34 37 39
52 54 50 46 51 49 44 36 20 22 29 35 33 33 31 32 35 35 35 32 35 33 30 27 24 33 35 32 30 30 29 22 15 19 17 25 25 31 34 33 34 36 34 37 39
50 52 50 50 50 47 39 28 25 24 33 32 33 30 31 33 33 34 33 32 29 35 28 27 26 33 34 32 31 31 29 28 25 26 26 28 35 37 38 33 31 33 35 37 40
49 50 47 50 49 45 36 30 28 36 37 35 28 33 28 29 30 31 30 30 31 35 33 30 25 31 33 34 33 30 30 26 27 20 20 27 33 31 30 31 32 34 36 38 41
47 44 48 50 48 41 30 32 31 38 36 34 33 32 32 29 29 28 28 31 33 33 35 31 28 29 32 31 27 31 30 28 25 24 27 21 26 35 29 30 33 34 36 39 41
47 34 49 49 37 36 32 34 34 37 38 36 36 36 34 33 30 29 28 27 33 31 31 31 31 25 26 30 32 32 29 29 24 22 24 29 27 30 28 32 36 36 37 39 41
43 42 48 46 32 33 36 35 36 36 36 37 36 37 35 33 29 29 27 28 33 31 30 33 30 25 26 30 35 33 33 31 30 32 30 28 27 28 29 33 36 35 37 39 40
41 36 41 43 40 36 34 34 35 38 36 38 38 38 36 33 30 27 28 30 34 34 38 38 32 29 24 31 34 32 32 33 31 25 26 30 30 32 27 30 34 36 38 39 40
44 38 39 33 37 36 37 36 34 35 38 39 36 37 36 32 28 27 28 30 35 39 39 35 29 32 32 34 35 33 31 34 33 33 29 29 32 28 27 28 33 37 38 38 39
41 39 39 37 38 38 37 36 35 36 37 36 35 37 37 34 26 23 27 29 32 38 37 37 29 32 32 37 36 36 34 36 35 35 34 33 34 28 30 30 34 36 37 38 39
46 44 40 38 37 36 36 36 37 37 38 38 38 38 36 36 35 33 34 30 33 35 36 35 32 32 31 37 37 34 35 35 35 35 34 32 35 29 29 29 33 36 37 38 39

GFSSW_sfc_30mbdewp_021.txt.gz
Dewpoint
52 51 51 51 51 52 52 52 52 53 54 55 57 59 60 60 60 58 53 52 53 54 55 49 46 47 45 44 49 47 42 38 36 36 34 36 35 36 34 31 35 35 38 37 42
53 52 51 51 51 51 51 51 52 52 53 55 55 58 59 59 56 54 56 57 57 57 52 48 45 47 42 44 46 47 43 39 41 38 36 36 36 35 34 35 36 37 37 43 49
55 53 52 51 52 52 51 51 51 52 53 54 54 55 57 57 49 48 54 56 57 57 53 51 50 47 42 43 45 47 42 42 43 42 41 40 38 38 38 36 35 36 37 42 48
56 55 53 52 50 52 51 51 51 51 51 54 54 55 56 53 37 48 53 54 56 57 54 51 48 44 41 41 45 40 43 45 45 45 45 43 41 39 37 36 37 38 39 39 39
56 56 54 53 52 53 51 52 51 51 51 52 54 55 52 45 45 47 50 49 55 56 54 51 47 45 40 41 42 42 43 43 44 45 46 46 45 43 42 41 40 39 38 38 39
55 56 55 54 53 53 52 52 51 51 51 51 52 54 47 36 43 45 45 47 49 55 54 52 49 47 45 42 40 40 39 40 40 41 43 43 43 44 42 41 40 39 38 38 38
56 56 56 55 53 53 53 52 52 51 51 51 52 51 46 40 43 44 43 43 45 50 48 52 51 48 46 43 43 41 39 39 39 39 40 42 40 42 44 43 41 39 38 38 38
54 55 55 55 54 53 53 52 53 52 52 51 52 49 38 44 46 45 44 41 43 45 41 43 50 48 46 43 41 39 39 35 36 37 40 40 34 40 43 42 41 40 39 38 38
54 54 56 55 55 54 54 53 53 53 52 52 49 46 36 43 44 43 44 40 40 42 40 40 39 38 39 39 36 36 33 34 35 38 39 40 36 38 40 40 39 39 38 38 38
55 54 53 54 54 54 54 53 53 51 49 50 47 42 41 37 42 43 44 42 38 37 37 37 37 36 37 36 28 30 33 34 33 36 37 37 37 38 39 40 40 39 39 39 38
54 54 53 54 54 54 52 49 44 43 46 42 42 40 36 40 42 42 42 41 39 37 33 36 34 32 33 35 36 36 34 33 33 35 34 35 35 37 39 39 39 39 39 38 37
52 55 53 53 54 54 50 44 42 40 38 43 43 42 41 42 38 39 41 38 38 34 36 34 31 33 33 32 32 33 33 33 34 35 34 33 33 34 35 37 39 39 39 39 36
51 53 54 53 54 52 48 45 46 44 36 37 43 42 42 42 39 38 40 38 36 35 35 32 30 32 32 31 31 32 31 29 30 32 33 31 25 24 29 34 37 40 39 39 37
50 50 55 53 51 49 46 47 46 45 29 31 38 41 43 42 37 40 40 38 36 35 35 34 34 30 30 31 32 28 32 32 31 30 25 31 19 25 29 31 35 37 39 39 38
48 50 54 53 48 46 45 47 47 40 16 32 38 43 43 39 38 39 41 38 34 35 34 32 33 31 30 30 32 29 31 32 33 32 30 28 27 25 28 27 32 37 38 38 38
45 50 52 48 48 46 48 48 44 27 16 31 38 37 38 39 39 40 39 40 41 37 35 32 35 34 32 31 32 34 31 31 31 30 24 25 26 21 19 26 32 37 38 38 37
45 50 50 48 44 49 48 44 29 21 29 31 31 35 33 34 36 37 36 36 33 30 29 33 34 36 36 31 31 32 31 24 22 22 18 23 24 23 22 28 32 33 36 37 38
48 47 48 48 50 48 44 34 20 22 29 34 33 34 31 32 33 35 34 31 36 34 30 27 24 34 36 32 29 31 31 24 15 16 17 18 15 20 28 27 27 33 35 36 38
48 47 48 50 49 47 39 28 23 22 32 31 31 30 30 31 32 33 33 29 31 34 28 27 26 35 35 34 33 32 28 30 26 27 24 24 25 33 26 30 31 32 33 35 39
45 44 46 50 49 44 35 27 28 34 34 32 27 30 27 30 31 30 27 30 32 31 32 30 24 31 33 34 35 33 31 27 28 18 15 17 26 24 30 31 29 33 35 36 39
43 38 47 49 46 41 31 31 31 38 36 32 31 31 29 29 30 28 26 29 32 32 34 32 30 27 33 31 29 31 29 30 26 24 17 16 18 33 29 32 32 32 33 37 40
40 33 48 48 38 37 32 33 34 37 38 35 35 33 33 31 30 27 28 28 33 35 32 32 31 26 25 31 32 29 27 29 23 20 21 19 18 27 31 30 33 34 37 40 42
40 40 48 45 30 32 36 34 35 37 36 36 35 35 35 34 30 30 29 30 33 33 32 33 30 23 26 28 32 31 30 28 27 29 20 18 12 29 32 33 36 38 40 41 42
40 32 41 42 39 33 33 33 34 37 37 38 37 38 36 33 33 30 29 30 31 32 34 34 32 28 23 28 31 28 30 31 29 25 23 22 23 28 34 36 36 38 40 41 41
40 36 37 33 35 34 34 34 33 35 37 38 37 36 36 32 30 32 31 30 34 35 38 35 28 31 31 32 32 32 29 30 29 27 23 21 28 33 34 36 36 38 39 40 41
40 38 39 37 37 36 35 35 35 35 37 35 35 37 36 35 30 24 29 28 31 38 37 37 28 31 29 34 33 30 33 31 30 28 26 29 33 33 35 36 35 37 38 39 40
46 44 38 38 37 36 35 36 35 36 38 37 37 37 36 37 38 36 36 34 33 35 36 33 31 30 29 35 32 28 34 31 31 31 31 32 32 35 34 35 34 37 38 39 40

GFSSW_sfc_30mbdewp_024.txt.gz
Dewpoint
56 53 52 51 51 51 52 51 52 52 53 55 55 58 59 59 59 58 52 52 53 54 55 49 46 47 45 44 49 46 42 37 36 35 34 36 35 36 35 33 36 35 38 38 45
56 54 53 52 51 51 52 52 51 52 52 53 55 57 59 59 58 55 56 57 57 57 53 48 45 46 41 43 46 47 42 38 40 38 36 36 36 37 36 36 36 37 38 44 48
57 56 54 53 51 52 52 51 52 52 52 53 54 55 57 57 48 47 55 56 58 58 53 51 49 46 41 42 44 46 41 41 42 43 43 41 40 39 38 38 37 36 37 42 49
55 57 55 54 52 52 52 51 52 51 51 53 54 54 55 52 34 47 52 53 56 57 53 50 47 43 41 39 43 40 43 44 45 45 45 44 44 42 40 39 37 39 39 39 41
55 56 56 55 53 51 52 52 52 51 51 52 53 55 51 43 45 47 51 48 54 56 53 50 46 43 39 40 41 42 42 43 43 42 43 45 44 45 44 44 44 43 41 40 39
55 55 55 56 54 53 53 52 52 51 51 52 52 53 47 32 40 45 43 45 54 54 52 52 48 46 43 42 40 40 40 40 40 40 40 39 40 42 43 44 43 42 41 40 39
54 55 55 55 55 53 53 53 52 51 52 51 52 51 46 40 43 44 43 42 45 52 52 53 50 47 46 43 43 43 39 39 39 39 38 40 38 39 41 43 43 43 42 41 40
53 55 54 54 54 54 53 53 53 52 51 51 52 49 36 43 46 44 44 40 42 45 41 49 52 49 47 44 40 39 39 35 36 37 38 39 33 37 39 40 42 43 42 42 41
48 53 55 54 54 54 54 53 53 53 52 52 49 45 37 42 44 43 43 39 41 43 41 40 43 40 40 38 35 36 31 33 33 36 38 39 35 38 40 40 41 42 41 40 40
46 49 53 54 53 54 54 53 52 51 50 50 48 42 41 38 42 43 44 41 38 39 39 38 38 36 36 35 27 29 31 32 31 34 35 35 36 36 37 38 38 39 40 40 40
44 49 53 55 53 53 52 50 45 43 45 39 41 40 37 41 42 42 42 40 39 36 36 36 34 33 35 34 34 35 34 33 34 35 35 33 33 34 35 37 38 38 40 40 40
45 47 51 53 54 54 51 45 42 39 37 42 43 43 42 43 38 40 41 37 37 34 35 33 31 34 34 34 34 33 32 30 30 31 33 33 32 32 33 34 36 38 39 40 40
45 47 50 50 55 53 47 44 45 43 34 36 42 40 42 42 39 39 40 38 36 35 34 31 30 32 33 32 31 30 30 29 28 29 31 30 26 21 23 26 29 31 34 37 40
45 44 46 52 51 50 46 46 45 39 25 27 38 41 42 41 37 41 41 38 36 34 35 34 34 32 32 30 30 28 31 31 31 30 24 28 19 20 22 22 24 27 32 36 40
45 44 44 49 49 47 48 47 45 33 12 32 38 43 43 37 38 39 41 38 35 34 35 31 33 33 32 30 31 29 30 31 31 31 29 28 26 22 23 23 25 32 35 37 39
43 43 44 48 50 48 48 47 41 22 15 32 37 37 38 38 38 39 39 40 40 36 35 32 35 33 31 31 31 33 31 31 32 30 23 24 25 19 18 20 21 21 28 34 37
44 46 46 49 46 49 47 40 25 20 28 30 31 34 33 34 35 37 36 36 33 29 29 34 34 36 36 31 32 32 31 23 21 22 18 23 24 22 20 22 22 22 26 34 38
46 47 48 47 50 49 43 28 21 22 27 33 32 32 29 31 32 33 34 32 36 35 30 26 23 33 37 31 28 30 29 23 16 16 16 20 17 19 24 26 26 26 32 35 37
47 47 45 44 50 46 34 23 21 23 31 31 32 30 30 32 31 32 33 31 29 34 29 27 25 34 34 34 31 31 28 30 27 28 24 22 23 25 26 24 26 27 27 28 36
43 42 42 46 51 43 30 27 27 31 33 31 27 29 27 30 30 32 29 28 30 31 33 29 25 29 33 35 35 34 33 26 27 18 16 17 18 19 23 25 31 32 30 30 36
41 37 45 51 47 39 29 28 31 36 34 31 29 29 28 29 31 29 26 27 32 32 33 30 29 27 33 31 29 32 29 30 30 27 16 11 11 24 29 33 35 35 34 34 37
40 33 48 49 35 36 32 32 35 36 37 34 33 32 30 29 29 28 27 28 32 33 31 31 31 25 24 30 32 30 29 29 23 20 23 20 17 31 32 36 37 37 37 36 39
39 38 48 44 30 32 35 34 36 37 35 34 33 34 35 33 30 30 29 31 33 33 31 31 30 24 24 28 32 31 31 29 27 27 20 18 14 17 22 31 38 38 41 42 42
38 32 40 41 39 34 32 32 34 37 36 36 36 37 35 34 35 31 30 31 33 34 35 33 32 27 23 25 30 28 30 32 30 25 21 21 20 21 23 34 39 39 42 42 42
40 33 36 31 34 34 32 33 32 34 36 37 36 35 35 32 33 32 32 32 33 33 34 34 29 30 31 32 32 31 30 31 29 27 23 20 20 21 30 34 40 39 42 43 42
38 37 39 36 36 33 34 33 32 35 36 34 35 35 37 34 32 27 31 31 29 37 36 38 29 31 29 32 33 29 32 32 30 29 27 26 25 27 36 39 39 41 40 42 41
43 45 39 37 35 34 33 35 33 35 38 37 36 37 36 37 39 39 35 33 35 34 36 34 30 30 26 32 31 28 30 32 32 30 28 27 27 28 29 37 38 38 38 40 41

GFSSW_sfc_30mbdewp_027.txt.gz
Dewpoint
57 57 55 53 52 51 51 52 52 52 53 53 55 56 58 59 59 57 52 52 54 55 54 49 46 46 45 44 49 46 41 37 34 34 32 36 35 36 37 34 37 36 36 39 50
56 56 56 54 53 52 52 52 52 52 52 53 54 55 57 58 57 55 56 57 57 56 53 48 45 44 41 44 46 46 42 38 40 38 36 37 37 37 36 37 37 37 38 42 50
55 56 56 55 54 52 52 52 52 52 52 53 54 54 56 56 48 47 54 58 58 58 53 50 48 44 40 43 44 45 40 41 42 43 43 43 42 40 38 38 38 37 37 40 48
56 56 55 56 55 53 52 52 52 52 51 52 54 54 55 51 34 47 52 54 55 57 53 49 46 41 40 38 43 39 43 44 44 44 44 44 45 45 42 41 41 39 40 41 41
52 55 56 55 56 54 52 52 52 51 51 52 53 54 50 43 45 47 50 47 52 55 52 49 45 42 39 40 42 42 42 43 43 41 41 43 42 43 44 45 44 45 46 44 43
48 52 54 55 54 55 53 53 52 51 52 52 52 52 45 31 38 44 43 45 55 55 53 50 47 44 42 41 39 40 40 40 40 40 40 39 39 41 40 44 45 45 44 43 41
45 49 53 54 54 55 53 54 52 51 52 51 52 50 45 39 44 44 44 42 46 52 52 53 49 46 45 42 44 43 40 39 39 39 39 39 36 38 40 41 40 41 43 43 43
43 46 48 53 55 54 54 53 53 52 52 52 52 47 36 42 45 44 44 41 43 45 48 52 53 49 46 44 41 39 39 33 36 37 38 37 29 34 38 39 40 41 41 42 41
44 44 45 52 54 54 54 54 53 53 52 52 48 42 37 42 42 44 42 38 42 43 41 47 47 42 43 40 35 37 31 33 33 36 36 38 35 37 40 39 39 40 42 43 43
43 44 44 49 53 54 55 54 53 52 50 51 48 42 40 38 41 43 44 40 39 40 40 40 38 36 36 36 26 29 31 31 31 33 35 34 34 35 35 36 36 36 39 40 40
44 44 45 48 52 54 54 50 45 43 44 38 39 38 38 41 43 42 43 39 38 38 35 37 34 31 34 35 34 34 33 31 33 35 32 31 31 31 33 34 34 34 35 36 39
43 44 46 47 51 52 51 44 41 41 37 42 43 44 43 43 38 41 42 37 36 35 35 34 32 33 32 34 33 33 32 31 30 30 30 30 30 31 33 33 33 32 33 36 36
42 43 45 45 48 51 48 44 44 40 33 35 41 40 42 42 39 39 40 38 36 34 34 31 30 33 33 32 31 32 32 29 26 29 30 28 24 20 20 24 28 31 32 33 34
40 42 45 44 45 49 47 46 44 35 26 25 36 40 42 41 36 41 40 38 36 34 34 34 34 33 32 31 32 28 31 30 30 29 23 28 18 18 20 19 20 22 25 29 31
42 43 44 44 43 44 48 48 40 32 12 30 38 43 42 37 36 39 41 38 35 34 34 30 32 33 31 30 31 29 30 29 30 30 27 26 25 22 24 22 23 24 25 26 30
43 43 42 43 44 45 50 47 35 21 13 32 37 38 38 37 38 39 39 40 39 35 35 32 35 33 32 33 32 32 31 31 31 30 23 23 25 20 19 19 19 22 24 27 33
46 47 43 43 39 50 50 42 27 17 28 30 32 36 34 34 36 36 37 36 33 29 28 31 34 35 34 31 32 31 31 23 21 22 18 22 24 21 21 23 23 22 23 24 28
46 47 46 44 45 47 44 34 21 22 27 31 32 33 30 33 32 33 34 33 35 34 31 26 23 32 36 31 29 31 30 23 16 17 16 22 21 21 24 24 24 26 26 27 28
47 46 45 46 47 44 39 28 20 23 32 31 30 28 28 31 31 31 31 30 30 36 29 27 25 33 35 35 32 31 28 29 25 24 23 21 21 23 23 24 30 34 35 34 30
43 43 42 47 46 42 33 27 26 30 33 31 27 29 26 30 30 30 29 29 31 31 34 29 24 28 32 34 33 33 32 26 27 17 16 20 21 19 20 20 34 36 38 38 36
41 37 43 47 44 38 30 28 33 35 32 29 29 29 29 29 29 30 27 27 31 31 32 31 27 26 33 30 27 31 29 30 29 25 17 13 13 17 17 33 35 37 39 40 39
40 33 46 48 33 33 32 32 37 36 36 34 33 30 29 30 30 29 27 27 31 33 31 31 30 25 24 27 30 29 29 29 25 21 25 20 16 31 34 35 38 38 40 41 41
37 38 46 40 30 31 35 34 37 35 34 33 33 34 34 30 28 29 29 31 33 32 31 32 29 23 22 28 29 30 31 32 31 30 24 20 16 20 25 29 36 38 41 42 41
37 33 38 39 38 34 32 33 34 37 36 35 35 35 33 33 33 31 31 31 32 33 34 32 30 24 20 25 31 28 31 32 30 25 22 23 21 20 20 22 28 38 42 43 42
39 33 36 30 33 34 32 33 33 32 36 36 36 34 33 31 31 31 32 32 33 34 34 33 28 30 31 30 31 31 30 31 29 28 25 21 21 21 22 23 36 40 40 41 43
39 37 39 36 37 33 33 30 31 36 35 34 34 34 35 34 33 30 31 31 30 33 33 35 29 32 29 31 31 30 33 33 31 31 29 27 25 25 31 35 35 35 39 41 42
41 43 39 35 35 32 32 33 32 35 36 36 35 34 36 34 38 38 39 35 33 35 33 35 31 29 26 30 33 29 33 32 32 32 30 28 28 28 29 31 33 35 40 39 42

GFSSW_sfc_30mbdewp_030.txt.gz
Dewpoint
56 56 56 56 54 53 52 52 52 52 53 53 53 55 58 59 59 58 52 51 52 54 55 49 45 44 45 41 48 47 32 27 27 27 27 34 31 32 36 34 36 35 35 40 46
52 55 56 56 55 54 52 52 52 52 52 53 53 55 56 57 56 55 54 56 56 56 51 46 43 42 40 41 44 40 33 30 32 32 32 33 35 34 35 34 34 36 37 40 47
49 52 55 56 56 55 53 52 52 52 52 52 53 54 55 55 48 47 55 58 58 58 51 48 46 42 38 41 41 40 35 33 38 38 39 38 39 39 35 32 35 34 36 40 42
46 49 52 54 56 56 54 53 52 52 52 52 54 54 54 50 36 48 53 54 56 57 53 49 45 41 39 36 39 38 38 39 39 42 42 40 40 40 38 34 34 40 40 41 42
44 45 49 53 54 56 55 53 52 52 52 52 52 54 49 43 42 47 49 46 52 55 52 48 44 41 38 37 40 38 35 38 39 41 39 39 38 37 36 39 41 42 42 42 42
43 45 44 49 52 55 56 54 53 52 52 52 52 53 43 30 38 43 42 47 53 53 52 49 45 44 41 39 38 38 39 38 39 38 38 37 36 35 36 37 36 37 37 38 40
40 44 44 45 49 53 55 54 53 52 52 51 52 48 44 37 42 44 43 45 51 52 51 50 48 45 43 41 42 41 38 37 36 36 36 37 34 33 35 35 34 34 35 36 36
38 43 44 45 46 52 54 56 54 53 52 51 52 45 38 42 44 41 42 42 47 48 51 52 49 47 43 43 40 37 37 32 33 36 36 36 26 29 34 34 35 36 35 34 35
38 43 45 45 45 50 53 55 54 53 52 52 47 43 38 42 41 40 41 42 44 42 44 51 48 43 43 38 34 34 29 31 31 33 33 35 31 33 38 35 36 36 37 38 39
40 42 45 46 46 50 51 55 54 52 51 51 46 41 41 38 40 42 42 41 41 42 41 40 38 34 33 33 26 26 29 29 28 31 33 32 31 32 34 34 33 35 35 36 37
40 43 44 45 47 48 51 54 46 44 45 39 39 36 38 41 43 41 40 39 39 39 36 38 34 31 30 30 30 32 30 30 30 32 30 29 28 29 30 30 30 30 31 32 34
42 43 42 44 46 46 49 46 43 43 39 42 42 40 43 43 38 40 41 36 37 35 35 34 31 30 32 32 31 31 30 28 28 29 29 27 27 27 28 28 28 27 27 27 28
42 42 41 42 46 45 45 47 44 42 34 39 41 39 41 42 38 39 38 37 34 34 33 30 30 32 32 31 30 29 29 29 28 28 27 26 24 21 20 21 22 25 26 27 27
42 43 42 43 43 42 43 49 50 41 33 31 37 39 40 40 36 40 38 36 36 32 33 32 32 31 31 30 30 26 28 29 29 27 24 26 20 20 20 20 20 21 22 24 26
43 44 44 44 43 39 44 51 48 39 22 30 36 42 39 34 36 39 39 37 33 33 34 30 32 33 31 30 30 29 29 28 28 26 26 25 25 19 22 20 21 21 21 22 23
44 46 46 43 43 41 47 48 43 29 20 31 37 38 37 34 36 39 39 39 37 33 34 30 34 33 31 31 31 31 30 30 28 28 23 23 25 19 18 19 19 20 19 20 22
45 47 45 45 38 45 48 41 28 25 29 30 30 37 33 32 34 35 36 36 32 29 29 30 31 33 33 31 32 32 31 21 22 22 17 18 21 22 19 21 21 20 21 22 27
48 47 46 45 43 46 45 33 25 24 27 31 32 34 32 31 32 34 34 33 32 31 30 26 25 31 35 31 27 30 28 20 13 12 13 19 18 16 20 21 21 23 28 35 35
46 45 44 45 45 46 37 27 28 24 29 30 32 29 30 30 31 31 31 28 30 32 28 28 26 32 33 33 31 31 29 29 26 24 21 18 16 17 18 20 21 27 34 33 37
43 41 41 46 45 40 32 30 27 31 30 29 27 27 25 28 29 28 28 29 29 31 33 30 26 28 30 34 33 32 31 26 27 16 12 13 13 14 16 20 30 30 32 37 39
42 36 43 45 42 36 30 31 33 33 32 29 28 28 28 28 28 27 28 28 31 30 32 30 26 26 31 30 27 30 29 31 27 25 17 14 12 14 14 17 26 31 34 39 40
40 31 45 43 33 34 32 35 34 33 35 33 31 30 29 29 28 28 27 27 30 32 30 29 28 23 25 25 28 23 24 26 24 22 25 22 20 19 26 31 33 29 32 38 41
36 38 45 42 30 32 35 36 36 34 33 33 32 33 31 30 28 29 29 31 31 31 29 30 29 23 23 28 28 27 27 26 31 29 25 22 18 19 23 28 26 28 32 36 41
39 32 37 38 39 35 34 34 33 37 35 35 34 33 32 30 31 31 29 32 32 31 33 32 29 26 19 22 27 29 30 32 31 25 23 24 23 21 21 21 21 21 26 34 41
40 34 37 31 34 35 34 34 32 32 36 35 34 33 32 30 31 32 30 31 33 33 33 32 28 29 30 29 30 30 30 31 30 30 26 23 22 23 23 24 23 23 32 34 40
38 37 39 34 35 33 32 31 31 34 34 33 32 33 34 32 31 29 31 32 29 33 32 34 29 31 29 30 30 31 34 34 33 32 32 31 28 28 28 28 27 33 31 33 40
40 42 40 34 35 32 32 31 32 34 36 35 33 34 33 34 36 37 35 35 33 32 32 32 32 30 26 29 30 30 34 35 34 34 32 29 29 29 29 28 31 33 38 39 40

GFSSW_sfc_30mbdewp_033.txt.gz
Dewpoint
50 52 55 56 56 56 54 53 52 52 52 53 53 53 56 58 59 56 52 51 51 55 55 48 45 43 42 41 41 43 34 27 26 22 23 25 27 30 31 30 31 31 31 40 45
47 48 51 54 55 56 55 53 52 53 52 52 53 53 55 56 54 52 54 55 55 55 52 46 42 42 39 39 40 41 32 27 24 24 25 27 30 29 30 31 28 33 35 39 44
46 46 47 51 54 55 56 54 53 53 52 52 52 54 54 54 50 49 53 56 57 57 50 45 42 41 38 38 38 37 33 29 27 34 35 32 30 33 33 31 29 29 33 37 41
40 44 46 46 50 53 55 56 54 53 52 52 53 54 53 50 39 49 54 56 58 57 52 46 42 39 36 36 37 35 35 33 32 36 39 37 35 34 33 33 31 32 36 38 39
38 39 42 44 46 50 53 55 55 53 52 52 52 54 48 44 41 49 50 49 52 56 52 46 41 38 35 34 33 35 35 32 35 37 38 39 36 35 35 36 36 36 37 40 40
38 39 40 45 45 47 49 54 56 53 52 52 51 53 44 34 38 43 43 45 47 51 52 48 45 41 39 36 36 35 35 34 35 35 36 36 34 33 33 33 33 34 35 36 38
39 40 39 43 45 46 47 53 56 54 52 52 51 48 43 37 39 41 41 45 50 49 50 51 47 43 42 39 39 39 37 36 35 35 35 36 34 33 34 33 32 32 32 32 33
39 40 40 43 45 46 46 50 55 55 52 51 52 44 38 41 42 42 40 44 48 50 50 50 48 45 43 42 38 36 35 32 31 33 33 34 28 27 30 31 31 32 31 31 31
39 39 40 43 45 46 46 49 53 56 53 51 48 44 37 43 38 38 39 43 45 46 49 50 48 44 43 39 34 34 29 29 29 32 32 34 31 30 34 34 32 32 33 32 33
40 42 42 42 44 46 47 49 53 56 52 49 44 41 39 37 39 38 40 43 42 44 45 44 42 39 38 38 29 27 28 28 27 28 31 30 30 30 31 31 32 33 33 34 34
42 42 43 43 44 45 47 46 47 46 48 42 40 35 38 40 40 38 40 42 41 39 34 36 33 31 31 33 31 28 28 27 27 29 29 27 27 27 27 27 28 29 31 31 31
41 41 43 43 44 43 46 40 44 45 40 41 39 39 39 40 37 37 39 37 37 35 35 35 33 31 30 29 29 29 28 27 27 27 27 26 25 25 25 25 26 26 27 28 29
40 38 43 44 44 42 42 39 45 49 41 39 39 38 40 40 35 37 38 36 36 33 33 31 29 31 30 30 29 28 27 26 26 27 27 26 23 21 21 22 23 25 26 26 27
38 40 46 44 42 39 39 46 48 48 33 35 38 38 40 39 37 38 37 35 33 30 32 31 30 29 29 29 28 26 27 27 26 26 23 25 19 19 18 18 20 20 21 22 23
41 43 44 46 41 37 41 48 49 44 23 34 36 39 38 35 36 38 37 36 31 31 31 30 31 31 29 28 28 28 29 28 27 26 26 24 23 20 20 19 20 21 21 21 22
42 45 47 46 45 40 45 49 44 28 24 31 37 36 35 34 35 38 37 38 34 30 31 29 32 31 31 30 30 31 28 28 27 27 23 22 20 17 15 15 16 19 21 19 20
45 44 46 45 38 40 44 42 28 24 29 31 31 35 33 31 33 36 35 33 30 29 28 30 29 31 31 29 30 30 30 21 22 23 17 15 18 20 18 19 19 19 19 21 23
45 45 45 43 40 44 41 33 25 29 27 29 33 32 30 30 31 31 31 32 31 29 28 26 26 29 33 30 27 27 27 20 13 12 13 17 15 15 16 18 20 20 20 21 29
45 44 44 44 42 40 38 26 29 26 29 30 31 30 30 29 30 31 30 30 31 31 28 27 26 29 32 31 29 28 27 27 24 22 19 16 15 16 16 16 16 18 20 24 31
43 41 42 45 44 41 33 24 32 29 29 30 26 27 27 27 28 27 29 29 28 30 30 29 26 27 30 31 30 29 30 26 28 18 13 13 13 13 14 14 16 19 29 31 34
41 37 43 45 42 37 27 31 33 31 30 29 27 25 25 27 28 27 28 28 29 29 31 29 26 26 29 28 26 29 28 29 27 27 18 15 14 15 15 17 15 27 29 32 35
39 32 43 41 33 35 32 36 32 32 34 31 29 27 27 27 27 27 27 26 29 29 28 29 26 24 25 25 26 26 27 27 26 20 26 24 21 21 19 19 27 26 27 29 33
36 36 43 43 30 33 36 36 33 33 33 32 31 30 30 28 27 28 28 30 29 30 27 29 27 23 27 27 26 25 26 25 29 30 26 23 20 20 22 21 22 26 25 24 30
39 31 36 39 39 35 35 35 34 36 34 33 33 31 30 29 30 29 28 31 30 29 33 30 27 25 21 25 29 30 29 29 32 27 24 24 24 24 23 23 26 23 26 23 27
40 35 36 32 34 37 36 36 32 31 34 34 32 31 30 29 30 29 29 31 33 32 32 31 29 27 28 29 29 30 30 31 31 31 27 27 28 29 29 28 26 28 26 26 29
37 38 38 34 34 34 33 34 31 33 32 32 31 32 31 30 30 29 30 30 28 32 31 32 28 30 28 27 28 28 29 34 35 35 35 33 32 36 34 30 28 28 28 29 30
40 41 41 33 32 29 31 31 31 32 35 34 32 32 32 33 35 36 35 32 32 33 31 32 32 29 23 28 28 30 35 35 36 37 36 31 33 33 30 29 30 36 37 36 37

GFSSW_sfc_30mbdewp_036.txt.gz
Dewpoint
46 47 49 50 53 54 56 55 54 53 53 53 53 53 53 56 57 56 50 51 53 54 54 51 48 44 42 42 40 40 37 32 31 28 26 24 23 29 30 29 29 31 31 42 53
42 42 45 47 49 51 54 56 54 54 53 53 52 53 53 55 53 51 51 52 54 54 50 47 44 43 40 40 39 41 39 37 33 28 27 26 26 27 29 29 30 30 36 42 46
40 40 40 43 46 48 51 54 56 54 53 53 52 53 54 53 49 47 52 54 56 56 52 47 44 41 40 38 38 38 37 33 31 29 35 35 34 30 32 30 31 29 32 38 43
41 40 40 41 42 45 48 51 54 56 54 53 52 53 54 50 39 52 57 55 56 57 53 48 42 39 39 37 37 35 35 35 35 34 36 36 36 35 32 33 34 34 35 38 39
42 41 40 40 41 43 47 49 52 55 55 53 52 53 49 45 43 54 54 54 55 57 53 50 41 39 36 34 36 35 35 34 35 35 35 38 38 37 36 35 36 35 35 37 40
42 41 42 40 41 44 45 48 49 54 56 53 52 52 47 36 40 45 44 44 47 51 53 51 42 41 38 35 33 34 34 35 35 33 35 34 35 36 34 34 35 35 35 35 37
42 42 41 41 41 43 45 47 48 51 56 53 52 50 43 40 38 40 42 42 47 47 51 52 48 43 41 38 40 37 37 37 36 35 35 35 34 34 35 35 33 32 32 33 34
43 43 41 41 41 42 45 46 47 50 55 54 52 46 40 42 43 41 39 41 46 50 48 52 50 45 43 42 39 37 37 35 33 34 34 34 31 32 33 34 33 33 32 32 32
43 43 42 43 42 42 45 46 47 49 53 54 49 46 38 42 38 40 38 40 44 49 50 50 48 44 43 40 36 34 31 31 31 33 31 33 31 33 33 33 33 32 32 32 32
42 43 43 43 43 43 45 46 47 48 53 51 46 42 39 38 38 37 38 43 42 43 48 48 44 41 40 38 30 30 31 31 29 31 31 31 31 32 32 31 31 33 34 33 33
43 43 43 41 44 44 44 44 44 44 49 42 41 36 36 39 40 37 39 42 42 42 39 44 39 37 36 36 35 35 30 27 28 28 27 27 27 28 28 28 28 30 30 31 32
43 42 40 43 44 45 44 39 39 45 40 44 42 38 39 39 36 37 40 40 39 39 36 34 32 33 33 34 34 29 27 27 27 27 26 26 26 27 27 26 26 26 27 28 29
40 39 41 44 45 42 41 38 42 44 39 40 41 38 39 38 36 37 39 37 38 35 35 32 31 33 32 30 29 29 28 27 26 27 27 26 24 23 24 25 26 26 26 26 27
39 43 44 44 43 40 38 43 47 45 31 36 39 38 40 38 35 38 38 36 35 35 33 32 32 29 28 29 29 27 28 27 26 26 23 26 22 22 20 19 20 21 22 25 26
42 43 44 45 42 38 40 45 47 44 21 37 39 40 39 35 36 36 38 34 31 31 32 31 30 30 29 28 29 27 29 28 27 26 25 25 23 21 20 19 19 20 21 22 23
42 44 44 44 46 41 41 44 42 28 21 33 38 36 36 35 36 36 36 37 35 30 30 30 31 31 30 29 30 30 28 27 28 26 23 23 22 17 15 17 19 19 21 22 22
42 45 45 45 40 44 44 39 26 22 34 31 33 35 33 32 35 34 35 34 31 28 28 30 30 31 31 29 30 29 28 23 23 22 16 17 21 18 17 19 20 20 20 21 22
44 45 45 43 42 44 40 33 23 31 32 30 34 33 29 32 33 33 34 32 32 29 29 26 25 30 31 30 28 29 27 23 17 18 18 19 17 17 18 20 19 20 20 21 22
46 44 43 44 44 44 37 23 27 31 29 33 33 31 30 30 32 32 31 29 29 31 27 27 26 29 32 31 30 27 26 27 24 22 20 18 16 17 18 17 18 17 19 20 23
45 41 42 45 43 40 32 27 31 36 30 30 27 29 26 28 28 30 30 30 29 30 30 30 25 28 31 30 29 28 29 26 27 18 15 16 16 15 17 17 17 18 24 27 34
41 36 43 45 42 37 27 28 35 37 31 32 27 26 25 28 28 27 26 28 29 29 30 28 27 26 30 28 27 28 27 27 27 27 20 17 16 19 20 19 20 21 29 31 35
38 32 42 43 33 34 33 36 37 36 33 29 27 26 25 26 27 26 27 27 29 30 28 28 26 25 26 27 29 28 27 26 23 20 24 24 22 24 23 22 22 22 31 33 33
36 36 42 43 30 32 35 36 37 35 33 31 29 28 27 28 26 27 28 28 30 29 28 29 26 23 27 26 25 25 26 27 27 29 25 23 20 22 24 25 25 25 25 26 28
38 30 36 39 39 35 34 34 34 37 34 32 30 30 27 29 28 28 30 30 30 31 32 29 28 26 24 28 30 28 29 27 28 27 25 25 24 26 27 28 31 32 28 28 29
39 35 37 33 35 36 37 35 32 32 34 33 31 30 28 27 29 28 29 32 31 33 31 31 28 28 28 27 28 29 29 30 31 32 28 28 29 32 35 36 36 36 31 29 29
38 37 39 34 35 34 35 36 33 32 33 31 30 31 30 29 30 29 29 29 30 32 30 32 29 29 27 28 28 27 28 29 32 36 36 35 34 37 37 37 34 35 37 36 33
41 41 40 33 31 31 32 32 31 33 35 33 32 31 32 34 35 36 35 32 32 31 30 33 32 28 24 26 27 28 30 35 36 37 37 32 36 38 38 39 40 40 40 39 39

GFSSW_sfc_30mbdewp_039.txt.gz
Dewpoint
42 42 42 43 46 49 51 53 55 55 54 53 53 53 53 53 56 55 52 53 55 57 54 52 50 47 45 41 42 40 35 34 35 34 32 31 28 28 30 28 30 31 41 51 55
42 42 41 42 43 44 47 50 53 56 55 54 53 53 53 54 53 51 53 53 55 55 53 46 47 46 43 40 41 39 38 37 36 35 32 31 34 31 28 28 29 30 42 51 55
43 42 42 42 41 42 44 48 51 53 57 54 53 53 53 54 50 48 52 54 54 55 53 48 47 43 41 40 39 38 38 39 38 36 35 36 35 36 32 29 29 28 36 43 52
44 42 43 40 42 41 40 44 48 51 54 57 53 52 53 51 36 52 57 54 55 56 53 52 49 43 40 39 39 37 37 38 36 36 35 36 39 38 36 34 37 35 35 37 42
44 43 42 43 42 42 41 42 46 50 52 56 54 52 52 46 44 54 57 56 56 56 54 52 48 42 38 38 38 36 36 36 36 36 35 35 36 37 37 38 37 36 36 36 38
44 43 43 43 42 41 41 43 44 48 51 55 54 52 49 40 45 50 51 53 53 55 53 52 46 41 39 37 35 35 36 36 37 37 36 34 34 35 36 37 36 34 33 35 35
44 43 44 43 43 42 41 42 45 47 49 53 54 51 46 41 39 42 42 44 47 51 52 52 50 44 42 38 40 38 35 37 36 37 36 35 34 34 35 36 36 35 34 33 33
42 44 44 43 44 43 43 43 45 46 48 51 55 48 42 44 44 41 40 41 46 48 51 52 51 45 43 42 39 35 37 34 35 34 36 35 30 33 35 35 35 35 35 34 34
43 43 43 43 43 43 44 44 45 46 47 50 51 46 39 43 41 41 39 39 44 49 50 53 51 45 43 38 36 35 32 33 34 34 34 34 32 34 35 34 33 34 34 34 33
43 43 44 44 43 43 45 44 44 46 47 51 49 41 42 39 39 41 39 39 43 49 48 48 46 43 42 38 31 30 32 32 31 31 32 32 33 33 33 33 31 31 32 34 33
42 43 42 41 44 44 45 43 38 41 45 42 41 40 39 40 39 40 38 43 42 45 42 45 40 38 38 39 35 34 34 30 28 29 27 27 28 29 29 30 30 30 30 31 32
42 41 40 43 44 45 44 38 39 40 36 43 44 42 40 39 36 37 40 40 41 39 38 39 35 38 38 37 36 35 32 28 28 28 27 26 25 26 27 27 27 27 28 29 30
40 41 43 44 45 43 40 38 46 40 35 41 45 42 38 39 37 36 40 40 40 38 35 33 32 33 33 32 32 29 28 28 27 27 27 25 22 23 26 26 27 27 27 27 27
40 43 44 44 43 43 40 44 45 41 29 35 40 41 39 39 36 38 40 38 37 35 35 33 33 31 32 31 29 27 29 28 27 26 22 27 20 24 20 19 21 24 26 27 27
40 42 42 45 43 39 40 47 46 40 19 36 40 42 40 37 37 37 39 36 34 35 33 32 31 30 28 29 30 28 29 28 28 26 25 25 21 21 23 18 19 20 21 22 26
41 42 45 45 45 43 42 45 41 27 18 33 39 37 37 36 36 37 37 37 35 33 32 31 32 31 31 30 30 30 28 27 28 26 20 22 22 16 16 17 19 20 20 21 23
43 45 46 46 40 44 43 40 24 20 33 31 35 36 35 34 34 34 35 33 30 29 29 30 30 30 31 30 30 30 25 21 20 21 13 21 23 19 18 19 19 19 20 22 22
45 47 45 45 45 44 40 30 19 30 30 37 35 34 33 33 33 34 34 31 33 30 28 26 21 30 31 30 28 29 26 19 11 19 20 21 18 18 21 21 21 20 20 20 22
48 44 44 45 45 42 36 20 25 30 35 35 34 31 33 32 34 33 32 31 31 31 26 25 25 31 31 30 30 29 26 27 24 23 20 18 17 18 18 18 18 20 21 20 22
43 41 41 45 43 39 32 28 28 36 35 34 30 30 29 30 31 31 30 30 28 30 31 29 25 31 32 31 31 27 28 24 25 14 12 17 17 15 18 19 21 21 23 29 34
39 35 42 45 41 35 27 31 32 38 36 32 28 28 28 29 30 29 28 30 29 29 31 28 26 28 30 28 27 28 26 26 26 26 18 18 18 20 20 22 22 24 26 32 34
37 29 40 44 31 34 32 35 35 36 38 34 27 27 26 29 28 26 28 27 30 30 28 29 27 25 26 28 30 29 27 26 21 16 25 24 21 24 24 24 24 26 27 28 30
35 34 41 42 30 31 36 34 36 37 34 32 30 27 28 28 25 27 28 29 30 30 29 29 25 22 25 27 28 28 28 27 26 27 23 21 20 22 24 26 27 29 35 36 31
36 27 35 39 39 33 34 33 34 38 34 31 28 27 29 29 29 30 29 29 30 32 32 29 28 23 20 26 28 25 28 28 27 27 24 24 23 25 27 30 35 37 39 38 36
39 34 37 32 35 36 37 35 34 32 34 33 30 29 28 29 28 30 31 30 31 32 31 30 26 28 27 28 28 27 27 28 28 28 27 25 28 31 34 38 39 40 39 37 36
37 37 38 35 37 34 37 36 34 33 33 31 31 32 31 29 30 28 31 31 29 31 30 32 26 30 27 27 28 27 28 28 29 29 30 31 33 37 38 39 40 40 40 39 39
41 41 40 33 32 32 33 32 33 33 33 34 33 34 33 35 36 35 33 32 32 31 30 31 29 28 22 25 26 27 28 28 32 36 35 33 35 37 37 39 40 39 40 41 41

GFSSW_sfc_30mbdewp_042.txt.gz
Dewpoint
43 41 43 42 42 42 43 47 50 52 55 56 54 53 53 53 54 54 51 53 53 56 53 53 50 47 47 43 42 39 36 34 34 32 30 33 31 31 30 29 30 32 46 51 55
44 44 43 42 43 42 41 41 47 50 52 56 55 54 53 53 53 51 54 54 54 57 55 52 48 47 44 41 41 39 36 35 36 36 34 33 35 35 31 28 29 39 48 55 56
46 44 44 42 43 42 42 41 41 46 50 53 57 54 53 54 49 47 52 54 55 56 54 51 47 45 42 41 40 39 37 37 38 39 36 36 35 38 35 29 32 35 50 52 55
46 46 45 45 44 43 43 41 41 44 47 52 55 54 53 52 33 50 58 54 55 57 52 50 48 44 41 39 40 37 38 38 39 39 37 35 37 37 37 34 38 38 36 36 49
47 46 46 44 45 43 43 41 40 42 45 51 53 55 52 45 44 49 55 54 55 55 51 50 48 44 39 40 39 37 37 37 37 37 36 35 36 37 37 39 38 36 36 36 36
44 45 44 44 44 45 44 42 41 42 44 48 52 55 49 38 45 48 54 55 54 55 53 52 49 45 40 38 38 37 37 36 37 37 37 35 35 35 36 38 37 36 36 35 34
43 44 44 45 44 45 44 43 43 44 45 47 50 52 46 39 42 49 51 54 55 54 51 53 52 44 41 39 39 38 35 36 36 36 36 36 34 34 35 35 35 35 35 35 35
44 44 44 43 44 44 44 43 43 44 45 46 48 52 41 44 44 43 40 41 47 52 53 52 51 46 43 41 39 36 36 33 34 35 35 35 30 33 35 35 34 35 35 35 35
43 43 43 44 44 44 44 45 45 44 45 46 47 48 38 45 42 43 40 40 44 48 50 53 50 46 43 38 35 35 31 32 33 35 34 35 32 33 34 34 33 34 34 34 34
41 43 43 43 42 45 44 44 44 44 45 46 46 41 42 39 41 42 40 39 44 49 48 50 48 44 42 37 30 31 32 32 31 31 32 33 34 34 34 34 34 33 33 33 33
41 41 42 41 43 44 45 41 35 37 43 41 41 40 39 41 41 41 39 38 45 46 42 46 40 37 40 38 35 33 34 33 33 29 27 27 27 27 28 29 29 30 31 31 32
39 40 41 43 44 46 45 38 37 39 33 38 42 42 41 40 37 40 39 41 41 41 42 42 38 39 40 40 38 36 33 31 29 28 27 26 26 26 26 26 27 28 28 29 30
40 41 42 44 45 44 42 39 44 42 34 34 42 42 38 38 36 38 40 41 40 39 36 36 34 37 37 36 36 33 30 28 28 28 27 25 21 20 23 26 26 26 28 28 28
39 41 42 43 43 43 39 43 44 41 28 28 38 42 40 39 35 38 42 40 40 38 34 34 31 33 34 32 30 28 29 28 28 26 22 27 17 22 20 21 22 21 24 27 28
41 41 43 45 44 41 41 45 44 38 13 35 38 45 40 37 37 38 39 37 36 36 34 32 31 29 30 30 30 28 29 28 27 26 25 24 23 18 22 18 18 20 20 21 22
44 44 45 46 45 43 45 45 42 26 16 33 40 39 37 36 36 38 37 37 36 34 32 31 32 31 30 30 30 29 27 27 28 25 18 20 21 15 15 17 19 19 20 20 21
47 46 47 46 42 45 44 41 24 19 31 30 34 36 35 34 35 37 36 33 31 31 31 30 30 31 31 29 30 27 25 19 17 19 12 22 23 19 20 20 19 20 21 21 23
48 47 45 46 45 43 40 31 19 27 30 37 34 35 33 32 34 35 33 31 33 30 29 27 26 29 30 30 28 28 25 17 8 14 19 22 18 15 21 21 20 21 22 21 21
44 43 43 45 44 41 36 21 24 28 34 33 34 33 32 33 34 34 31 31 31 30 26 25 24 31 31 31 29 29 26 26 23 21 20 18 18 17 19 20 21 23 25 29 25
40 40 41 46 43 39 32 28 29 32 37 33 30 33 29 32 31 31 29 31 29 31 31 28 25 30 31 31 31 27 28 23 23 9 9 14 17 12 16 19 22 24 26 28 33
37 36 40 45 41 35 28 30 31 37 38 33 31 29 30 29 29 28 27 30 29 29 31 29 27 29 31 28 27 28 26 26 25 23 15 14 15 21 20 22 23 24 26 28 31
35 28 38 44 30 34 31 33 34 35 39 37 28 30 29 30 28 28 27 29 30 30 29 29 28 25 27 29 29 29 27 25 20 15 24 23 20 24 24 24 25 27 30 35 36
33 34 41 41 31 32 35 34 35 38 37 33 27 28 30 28 26 27 28 30 31 30 29 28 24 21 23 26 29 28 28 27 26 26 22 20 19 23 24 25 28 34 38 40 40
34 27 34 39 38 34 31 34 35 38 36 31 28 29 29 27 28 29 28 30 32 32 32 30 26 22 18 22 26 25 28 28 26 25 23 23 22 24 25 28 33 38 41 41 40
38 33 36 32 36 36 37 36 33 32 33 31 29 30 30 29 30 30 30 30 32 33 32 28 25 27 27 28 28 27 27 28 26 26 25 23 26 28 30 32 37 41 40 40 40
36 35 37 36 36 34 35 33 33 33 33 32 32 32 30 30 30 29 30 29 28 31 30 31 25 29 25 27 28 26 27 27 27 27 27 28 28 31 34 38 41 39 39 39 40
39 41 39 33 34 32 32 32 32 33 34 37 34 33 33 35 35 32 31 31 31 30 30 30 28 27 21 25 26 26 27 28 28 29 29 30 34 36 37 40 39 38 36 32 31

GFSSW_sfc_30mbdewp_045.txt.gz
Dewpoint
47 46 44 45 44 46 45 42 41 44 48 51 54 55 54 53 54 53 49 51 52 53 56 54 52 49 47 44 42 40 36 33 31 32 30 33 32 33 33 29 30 32 45 48 55
47 47 47 45 46 45 45 45 43 40 43 48 51 56 54 54 52 49 50 51 54 53 55 50 48 47 44 43 41 38 35 35 36 35 34 34 35 36 35 32 29 38 50 55 57
46 47 47 47 47 46 45 44 43 42 41 46 49 54 55 53 47 44 48 51 54 54 56 53 48 46 42 41 40 40 35 36 38 38 38 36 36 38 36 33 32 34 42 50 56
45 45 46 46 45 45 45 44 43 40 39 44 48 53 55 52 29 47 55 53 55 55 54 50 47 44 41 39 40 37 39 39 37 37 38 36 36 36 37 36 38 39 38 36 48
44 44 44 45 45 45 45 45 44 41 40 41 46 50 53 44 42 46 53 55 54 56 53 50 46 44 40 40 39 38 37 38 38 38 38 36 35 36 37 37 39 38 37 36 35
44 44 44 44 45 45 45 44 44 42 42 43 46 50 48 37 42 44 47 54 54 55 51 50 47 45 41 39 39 38 38 37 37 36 37 36 36 35 35 37 37 37 37 36 35
43 44 44 44 44 44 44 44 44 43 44 44 45 50 46 40 42 47 54 54 55 54 51 52 50 44 42 38 39 38 35 36 37 36 36 36 34 35 36 36 35 35 36 36 36
42 43 42 43 44 44 44 44 44 44 44 44 45 49 43 45 45 43 41 51 56 56 52 53 51 46 42 41 38 36 36 33 34 35 35 35 30 33 35 35 35 35 34 35 35
42 43 42 43 44 43 45 44 44 44 45 45 44 45 40 45 43 42 41 41 47 51 53 51 50 45 42 38 35 34 32 33 33 35 34 34 32 33 34 33 33 33 33 33 34
41 41 41 42 42 43 45 45 45 44 44 45 44 42 43 40 41 41 41 40 44 48 49 49 47 43 41 37 30 32 31 32 31 31 31 32 33 35 35 35 34 34 34 34 34
42 41 42 42 43 45 46 41 33 36 41 35 38 39 41 41 42 41 40 38 48 47 43 46 41 38 39 38 34 33 33 32 33 32 28 28 27 27 28 28 28 29 31 33 33
42 39 41 42 45 45 45 39 36 37 30 35 37 41 45 42 40 40 39 38 43 41 43 42 38 40 42 41 39 35 34 32 30 29 28 27 26 27 27 27 27 28 28 29 30
39 40 41 43 44 43 42 39 41 41 32 30 39 42 43 39 38 40 38 41 41 40 39 36 37 41 40 39 38 36 34 31 29 28 27 26 22 22 23 24 25 26 27 28 28
43 44 42 43 43 44 39 43 43 42 24 30 35 41 43 39 36 39 41 41 40 38 36 32 32 38 36 37 36 30 29 29 27 26 25 27 20 23 21 21 23 23 23 24 26
46 47 45 45 43 42 42 45 44 38 -9 30 37 48 42 37 37 38 42 38 38 36 34 32 30 34 34 33 30 28 29 28 27 25 24 24 22 18 20 14 16 20 20 21 21
47 47 47 45 45 43 45 45 39 23 17 31 38 37 36 37 37 40 38 37 38 33 32 31 33 31 30 31 30 30 27 26 27 24 18 20 21 12 13 17 18 19 21 21 22
46 47 46 45 38 46 45 39 22 17 32 30 33 36 35 35 37 37 34 33 33 31 31 30 30 31 31 29 30 27 26 18 13 17 11 23 21 15 19 21 22 22 22 25 23
45 45 45 45 45 43 39 29 19 26 28 37 36 34 34 34 36 35 33 31 32 32 31 27 26 29 31 29 28 27 25 15 4 10 17 23 19 14 22 20 22 25 27 30 31
43 42 43 44 44 41 36 23 23 28 31 35 35 32 32 34 36 35 32 30 31 29 26 25 24 31 31 31 29 28 25 25 22 20 19 18 18 16 20 22 23 24 25 27 29
38 39 39 44 44 39 31 27 29 32 34 33 30 33 28 32 33 32 30 31 30 31 31 27 26 30 31 31 30 27 28 23 22 7 4 12 15 9 17 19 23 24 26 27 29
36 32 37 44 41 34 27 29 31 36 38 32 31 30 30 29 31 29 29 29 30 30 31 29 27 30 30 28 28 27 26 26 24 20 14 12 10 20 19 22 24 26 29 32 37
34 28 37 43 30 33 31 33 35 36 38 35 31 30 29 29 27 27 27 28 31 30 28 29 27 27 27 28 29 29 26 25 18 16 24 22 17 24 24 24 25 27 33 37 41
32 33 40 40 31 31 34 34 36 37 37 33 28 29 30 28 25 27 28 30 31 29 29 27 24 21 23 25 28 27 28 25 25 24 21 18 17 24 24 25 27 31 36 41 41
34 29 33 38 38 34 33 35 34 38 33 30 28 30 27 28 29 28 28 32 32 30 33 29 25 21 16 21 25 25 27 27 26 24 22 22 21 23 25 27 30 33 42 41 41
36 34 36 31 33 35 36 35 32 32 32 31 29 29 29 29 29 28 29 30 32 35 31 28 25 26 26 27 28 27 26 28 26 26 23 22 23 25 27 29 31 42 40 39 39
35 35 37 35 35 34 33 33 32 34 33 30 31 32 31 30 29 29 29 29 28 31 31 29 27 28 24 26 27 26 27 27 28 28 27 27 27 28 29 32 40 40 38 35 33
39 41 39 33 33 31 32 32 32 33 36 37 34 34 33 35 34 32 31 30 30 29 30 29 27 25 20 24 26 24 26 26 27 27 26 25 28 31 36 37 41 38 34 29 28

GFSSW_sfc_30mbdewp_048.txt.gz
Dewpoint
48 47 47 48 48 48 48 47 45 41 42 43 45 49 55 55 54 54 49 49 52 54 56 53 55 53 46 44 41 41 37 32 30 31 30 33 32 34 34 32 30 31 39 48 59
45 45 46 47 48 47 47 47 46 45 41 43 43 47 52 56 52 49 50 50 53 53 51 54 52 48 45 42 41 38 36 35 35 33 31 34 35 35 35 34 32 34 45 57 64
46 45 45 44 45 46 46 47 46 46 42 40 41 46 50 55 46 43 46 50 50 53 54 51 49 46 43 42 40 39 34 35 36 37 38 37 37 37 35 32 31 33 37 48 60
45 45 45 44 44 45 45 46 46 45 44 42 40 44 49 52 37 43 52 49 50 53 55 51 47 44 42 39 40 37 39 37 35 37 38 36 36 36 36 35 36 39 38 36 47
43 43 44 44 44 45 45 45 45 45 44 42 41 43 50 44 41 46 50 50 51 53 52 50 46 43 40 40 39 38 37 39 39 39 38 37 36 35 36 38 38 39 38 37 36
42 43 44 43 44 44 44 44 45 45 45 43 44 45 47 40 43 44 44 52 51 54 52 50 47 44 41 40 38 39 38 38 38 37 36 35 35 36 36 37 37 37 37 37 37
43 42 43 42 43 43 44 44 44 45 44 43 44 46 44 42 43 44 50 53 52 54 52 50 48 45 41 38 40 38 36 37 36 36 36 37 34 35 36 36 36 35 36 36 36
42 42 43 43 43 43 44 44 44 44 44 44 44 45 41 47 48 48 43 54 55 55 52 52 49 45 41 40 38 37 35 33 35 36 36 35 28 33 34 35 35 35 35 35 35
44 43 42 41 42 43 44 45 45 45 44 44 43 42 38 47 46 47 44 49 54 54 53 49 50 44 42 37 35 35 31 33 33 35 34 35 32 33 35 34 34 34 33 34 34
44 44 43 42 43 43 45 45 44 43 44 44 43 38 44 40 44 42 42 45 47 50 49 47 45 42 40 36 28 31 31 32 31 31 33 32 32 32 32 34 35 35 35 35 35
39 41 40 40 43 44 46 41 34 32 39 33 36 37 41 43 46 42 40 43 48 48 43 45 41 37 37 37 34 33 32 31 32 32 30 31 29 28 29 29 28 28 29 29 30
43 42 42 40 43 45 45 38 35 36 31 33 35 35 38 44 41 42 39 39 44 40 43 41 38 41 40 39 35 34 33 33 32 29 28 28 27 28 28 28 28 28 29 29 29
46 46 45 44 42 43 41 39 40 41 32 34 37 40 42 45 40 39 38 41 41 40 39 36 39 41 41 39 37 37 35 32 30 28 27 26 24 22 23 24 24 25 27 27 27
45 46 46 45 42 43 39 44 43 42 20 30 34 40 41 42 38 40 39 42 41 38 38 33 40 40 39 38 38 34 34 30 27 27 25 27 22 23 23 19 20 21 21 22 22
47 47 47 45 42 39 41 45 43 37 -12 30 36 47 44 39 40 38 43 40 38 38 37 34 38 38 38 37 37 30 29 28 26 25 24 24 21 17 19 15 18 20 25 25 23
47 47 46 44 43 43 45 43 38 20 11 29 38 36 37 36 38 40 40 38 38 34 35 32 32 32 32 31 31 29 27 26 25 24 19 20 20 8 14 18 20 23 27 29 29
45 46 46 44 39 45 44 37 20 17 31 30 32 36 36 34 37 37 35 35 34 30 30 31 30 31 31 29 29 28 28 24 11 16 12 23 21 15 21 21 22 24 26 29 31
45 45 44 45 46 43 39 27 18 26 28 35 36 37 34 35 36 36 34 31 31 32 30 28 27 29 31 29 28 27 26 19 3 8 15 22 18 14 22 20 25 26 26 28 29
43 40 42 43 44 41 35 21 23 27 31 32 35 32 32 36 35 35 32 30 31 29 27 25 26 31 31 31 29 27 25 25 21 19 18 17 17 13 22 22 23 25 27 28 30
38 37 37 43 45 38 28 27 29 32 35 35 30 31 29 33 32 33 30 31 30 31 30 27 26 30 30 30 30 28 28 22 20 10 2 8 12 6 17 20 24 26 28 29 34
34 30 35 43 39 33 27 29 32 36 37 32 31 30 31 32 31 29 28 30 30 31 30 28 27 30 30 28 27 27 26 25 23 20 10 4 5 18 18 23 24 26 28 32 37
33 27 36 41 32 33 32 34 37 36 38 31 30 30 29 29 28 28 28 28 31 30 28 28 28 27 27 28 29 28 26 24 16 17 22 21 12 23 24 24 25 27 30 36 42
33 31 38 40 31 33 35 35 36 36 36 29 29 29 29 27 25 27 28 31 31 29 28 27 24 23 25 27 28 28 27 25 23 22 20 16 12 23 24 24 26 29 33 42 41
34 29 34 37 38 36 35 35 34 37 32 29 29 29 28 28 29 28 28 33 32 30 32 28 24 20 16 20 26 25 27 25 24 22 20 20 19 21 23 25 27 30 41 40 39
35 34 36 32 34 35 36 34 32 31 32 31 29 29 29 28 29 28 30 31 33 35 30 28 25 26 25 26 27 26 26 27 25 25 21 21 22 23 26 28 29 33 40 38 35
34 35 36 34 34 33 32 32 33 34 34 31 31 33 31 28 28 28 29 29 29 31 30 28 27 28 24 26 27 26 27 27 27 26 26 26 26 28 28 30 36 40 38 35 29
38 39 37 34 32 31 32 32 32 34 36 37 35 34 31 34 34 31 31 31 30 30 29 28 27 25 20 24 26 23 26 26 27 28 27 25 26 28 30 34 38 39 35 30 27

GFSSW_sfc_30mbdewp_051.txt.gz
Dewpoint
48 48 47 46 45 46 47 48 48 48 47 42 42 45 46 51 54 54 50 50 51 55 56 52 56 55 47 44 41 41 37 30 30 30 29 32 29 34 34 33 32 32 41 50 58
47 47 46 46 46 45 44 47 47 48 48 44 42 42 44 49 51 51 51 51 50 51 51 51 51 51 46 43 41 39 35 34 34 33 30 33 33 34 34 34 32 37 40 60 63
45 44 43 44 45 44 44 45 45 47 47 46 45 42 42 49 48 47 52 52 51 53 52 53 52 49 45 42 41 38 34 36 36 35 36 36 36 37 35 31 33 33 39 55 61
43 44 44 44 43 44 45 45 44 45 46 46 44 43 42 49 37 43 49 50 52 51 53 52 49 46 43 40 40 37 38 36 35 39 38 37 37 36 36 34 36 39 38 37 59
43 43 43 43 44 44 44 44 44 45 45 45 45 44 45 45 44 46 47 45 51 50 51 49 47 46 41 41 39 38 38 39 39 39 38 37 36 35 35 37 38 38 39 38 37
44 43 42 43 43 42 43 44 45 45 45 45 45 46 43 37 45 48 45 46 49 49 51 49 47 45 42 41 38 39 38 38 38 37 37 36 35 36 36 37 36 37 37 37 37
44 44 43 43 43 43 44 44 44 44 44 45 44 44 42 39 44 48 46 52 50 49 51 52 46 43 41 39 40 39 37 37 36 37 36 37 33 35 36 36 35 35 36 36 37
44 45 45 44 43 42 43 44 44 45 45 44 44 43 37 45 48 48 49 49 52 53 52 52 48 43 40 39 38 37 35 33 35 36 35 34 27 32 35 36 35 35 35 36 36
43 42 44 44 41 43 43 45 45 45 45 44 43 40 35 49 46 47 47 44 53 54 53 52 48 45 41 37 36 35 30 32 32 36 35 33 31 33 36 34 33 34 34 34 34
44 44 42 41 40 43 44 45 44 44 44 44 42 36 39 41 45 45 43 49 49 50 46 45 43 41 40 36 27 31 31 33 29 31 33 34 34 34 32 31 32 32 33 34 35
46 47 46 43 41 43 45 41 32 31 38 31 32 34 39 45 48 45 41 48 48 45 40 44 39 35 37 37 32 32 31 31 32 32 30 31 30 30 30 30 30 30 30 30 30
45 46 46 46 44 44 44 37 34 36 29 33 35 35 37 43 42 43 43 44 43 41 40 41 35 37 38 36 33 33 32 32 32 29 29 28 27 28 29 29 29 29 29 29 30
46 47 47 47 45 43 40 38 43 41 30 31 37 35 36 44 39 40 41 41 42 39 36 35 39 40 38 38 35 35 32 31 30 28 27 27 25 23 24 23 23 23 23 24 25
46 46 47 46 41 42 38 43 43 41 19 29 34 37 43 42 38 40 39 43 41 39 37 36 41 40 39 37 37 34 37 32 28 27 25 26 21 23 22 18 22 26 27 26 26
45 46 45 45 42 39 41 44 43 30 6 27 34 45 44 40 38 38 43 42 38 38 37 34 40 38 37 38 38 35 31 28 27 26 25 24 20 16 17 18 23 25 28 30 30
45 46 46 41 42 43 44 42 34 17 12 28 37 35 38 38 38 40 40 41 41 37 35 31 34 36 37 38 38 30 27 26 25 24 22 21 21 10 16 19 22 25 27 29 32
46 45 45 45 40 45 44 33 20 17 27 30 32 33 36 36 36 37 38 34 34 31 30 34 33 31 36 33 31 28 28 23 13 20 18 23 21 16 19 21 23 25 27 29 31
47 43 44 44 43 42 39 26 18 26 29 34 33 36 32 36 36 36 35 32 32 33 31 29 26 30 31 30 29 27 28 23 8 8 12 22 16 15 22 21 23 26 27 28 32
43 39 40 42 44 41 34 23 23 27 31 32 35 32 33 35 34 35 33 30 31 29 27 25 27 31 31 31 29 26 25 23 20 19 17 15 18 15 21 23 24 27 29 31 33
38 36 35 42 44 37 27 28 30 32 34 35 29 31 30 32 33 33 31 31 30 31 29 27 26 31 30 30 29 27 27 23 20 8 4 7 9 6 19 20 24 27 29 30 34
34 29 33 43 38 35 29 31 33 36 36 32 31 29 32 30 31 29 27 31 31 30 29 28 27 30 30 28 27 26 25 24 21 18 7 -0 2 16 17 23 24 26 29 31 40
33 27 36 40 32 33 33 34 36 35 37 32 30 30 29 29 28 28 26 29 31 30 27 28 29 27 28 28 29 28 26 23 16 17 21 20 7 22 22 24 25 26 29 35 42
35 31 36 40 31 32 35 35 36 36 34 29 28 29 29 27 26 28 27 31 31 29 27 27 25 24 25 27 28 28 27 24 21 22 19 14 9 23 24 24 25 27 30 41 40
34 29 33 36 38 35 34 34 33 37 31 30 29 28 28 27 28 27 28 32 31 32 32 27 24 20 15 20 26 26 27 25 23 21 19 19 16 18 21 24 27 29 35 40 37
34 33 35 30 33 34 35 34 32 31 33 31 30 28 28 27 28 28 30 32 33 35 30 28 24 25 25 26 26 26 27 26 24 24 21 17 21 21 24 26 28 31 40 38 33
34 34 36 34 33 32 32 32 33 34 33 31 30 32 30 27 27 27 29 29 29 31 29 28 27 27 24 26 27 26 27 27 26 26 25 25 25 27 28 29 33 40 38 34 29
38 39 37 33 31 31 32 32 33 35 37 36 34 32 30 32 35 31 31 30 30 30 29 27 26 24 20 24 25 23 26 27 27 28 27 24 26 27 27 29 33 39 35 30 27

GFSSW_sfc_30mbdewp_054.txt.gz
Dewpoint
46 46 46 46 46 46 47 46 46 47 48 49 46 43 44 46 49 50 50 48 48 53 56 50 53 55 47 42 41 43 32 29 30 30 28 30 28 30 32 27 29 31 36 50 54
44 44 45 45 45 46 45 46 46 45 46 48 47 45 43 43 45 46 49 52 52 51 54 47 50 52 45 41 38 33 29 25 29 31 28 30 27 31 31 31 30 33 40 58 60
45 44 43 45 45 44 44 45 45 45 45 47 48 47 44 45 40 43 49 53 53 51 50 50 50 50 44 42 36 33 29 29 34 32 32 31 32 34 30 30 28 30 39 53 60
46 45 44 44 44 44 44 44 44 44 45 46 47 46 44 40 32 45 51 55 53 51 49 48 49 47 43 40 38 34 31 32 36 38 37 34 34 33 32 29 34 38 38 40 57
46 46 45 44 44 44 42 43 44 44 44 45 45 46 44 37 37 48 50 47 53 51 47 47 46 46 41 40 39 35 36 35 35 38 38 37 35 32 34 35 36 37 39 38 38
46 45 45 45 45 44 44 44 45 45 45 45 46 46 40 34 39 44 48 46 47 50 46 47 44 45 40 40 38 36 35 35 35 37 37 36 35 36 33 34 34 35 34 35 37
45 45 45 45 45 44 43 44 44 44 44 45 45 43 38 33 42 47 49 45 48 48 45 49 45 43 42 39 40 38 35 34 36 34 32 35 32 33 32 31 31 31 32 34 36
45 45 45 44 44 44 43 43 44 45 46 45 44 42 33 36 39 44 48 45 48 47 47 50 48 42 39 39 38 35 33 30 29 34 36 33 19 30 34 33 32 32 31 33 34
46 47 47 46 43 41 42 44 45 45 45 45 42 38 28 42 43 43 47 44 48 48 50 50 48 40 40 36 33 32 23 24 30 35 30 31 22 26 31 33 31 31 32 32 33
45 45 46 47 44 41 44 45 45 44 44 43 40 34 31 36 42 46 48 46 49 46 48 47 45 40 36 32 22 26 25 27 24 32 35 32 27 32 33 33 32 31 30 30 32
45 46 46 47 47 42 45 41 33 34 38 29 29 32 36 42 48 47 44 49 48 45 41 42 39 36 35 31 28 27 27 23 28 31 30 29 30 31 32 31 30 29 29 29 30
44 46 47 47 46 45 44 36 34 37 28 32 32 33 34 41 42 46 45 46 41 37 40 39 37 34 35 35 32 29 25 25 32 31 30 29 29 29 30 30 29 28 28 28 28
44 45 47 47 46 43 40 39 43 40 29 29 35 33 36 41 39 39 42 45 40 38 38 37 38 37 34 34 31 31 27 29 28 29 28 27 25 25 25 23 26 24 24 24 25
45 46 45 44 40 41 39 43 43 41 25 24 34 36 39 43 37 42 45 44 42 34 37 36 40 36 34 32 31 30 35 32 30 29 24 27 15 23 19 24 26 27 28 30 32
46 46 45 44 41 38 40 44 43 35 14 29 35 42 42 39 38 37 46 45 37 37 37 34 37 38 34 33 34 34 34 30 28 27 27 24 21 18 19 22 25 28 31 33 36
47 45 45 43 42 44 44 41 36 25 16 30 35 35 37 37 37 39 40 43 42 36 37 37 42 39 38 39 36 31 29 27 27 27 25 24 21 12 16 21 26 28 31 33 36
46 46 44 43 38 45 44 38 27 20 27 29 32 35 34 35 34 36 37 36 35 32 32 34 34 38 39 34 35 30 30 26 23 25 21 22 20 15 19 23 27 30 31 33 36
46 45 44 43 44 43 40 31 21 27 29 34 34 35 33 36 35 37 34 31 33 35 32 30 27 33 37 35 32 33 30 25 16 14 14 22 14 15 20 22 24 28 31 32 35
44 40 41 43 45 42 35 27 26 28 32 32 35 32 32 33 35 35 33 32 30 33 30 30 29 31 31 30 32 28 29 24 21 20 18 14 18 20 20 22 24 29 33 34 36
41 38 37 43 45 39 34 30 31 33 35 35 29 30 28 31 33 34 31 31 30 31 30 28 28 30 30 31 29 29 27 24 25 15 11 9 9 9 20 22 24 29 32 33 38
37 33 36 44 41 38 31 32 34 36 37 33 30 30 30 30 31 28 28 30 31 29 29 29 28 30 30 29 28 26 26 25 23 19 7 -2 3 14 21 22 24 27 31 33 40
39 34 39 42 36 36 33 34 35 36 38 34 31 31 29 29 28 27 26 29 31 30 27 29 29 27 29 29 29 28 26 23 21 20 22 18 8 22 20 24 25 28 31 36 41
37 35 39 42 33 33 35 36 36 35 33 29 29 30 29 27 27 27 28 32 31 30 27 28 27 24 26 27 29 28 27 24 24 25 22 13 11 23 24 24 26 30 32 39 40
37 33 36 40 39 35 34 34 33 36 33 30 29 29 28 27 28 27 28 32 32 33 31 28 26 24 19 24 28 28 28 25 26 23 20 17 17 21 22 23 28 30 35 40 37
37 33 34 33 34 35 35 34 32 31 34 32 28 28 27 25 27 27 31 31 33 33 30 29 26 26 25 26 28 28 28 26 25 25 22 18 19 18 22 26 28 31 40 38 33
34 34 35 33 34 33 34 33 33 34 35 30 28 31 30 26 26 26 29 29 28 31 29 29 28 28 25 26 27 27 27 27 26 26 25 25 25 26 27 28 31 36 39 36 32
37 38 37 33 32 31 32 33 33 36 37 36 33 31 30 32 34 31 31 30 30 29 29 28 28 27 23 25 25 24 25 26 27 27 26 25 25 27 28 30 33 38 38 33 30

GFSSW_sfc_30mbdewp_057.txt.gz
Dewpoint
48 45 45 45 45 46 46 46 47 48 47 47 49 49 45 44 45 44 46 52 48 53 56 46 49 54 49 42 39 40 36 32 31 28 28 30 29 30 28 25 26 25 31 49 54
47 46 46 46 45 46 44 45 45 46 46 46 48 49 46 44 40 36 46 53 52 50 52 44 48 51 46 41 39 37 35 32 32 30 29 29 29 27 28 26 24 28 38 52 54
45 46 47 46 45 45 44 45 45 44 45 46 47 48 48 44 37 32 39 50 54 52 52 44 46 50 43 40 37 34 27 29 28 31 32 30 29 25 28 23 25 26 30 46 55
44 47 47 46 45 44 44 44 43 44 45 45 46 46 48 40 28 37 42 49 54 53 47 47 42 46 42 39 37 32 30 26 30 33 34 29 28 28 29 26 29 30 37 38 51
45 46 46 46 46 46 45 44 44 44 45 45 46 46 44 38 34 37 51 51 54 52 43 43 39 42 40 39 36 33 30 30 33 37 36 31 28 29 29 32 35 36 37 36 37
46 46 46 46 45 45 45 45 45 45 45 46 46 46 39 33 33 32 49 48 53 51 42 41 39 42 40 39 35 35 34 33 33 36 37 35 31 32 32 32 33 32 32 32 35
47 47 47 47 46 45 45 44 44 44 45 45 45 42 37 32 33 48 50 49 47 52 42 41 40 39 40 39 38 36 33 33 32 33 33 35 31 32 33 31 31 29 30 29 29
46 46 45 47 47 44 44 42 44 44 45 45 45 41 34 33 34 34 46 50 47 50 43 42 44 39 39 39 38 35 33 30 30 32 32 32 24 27 31 30 28 26 26 26 27
46 45 46 46 47 44 42 43 44 45 45 45 42 38 28 35 31 35 43 46 45 51 43 43 47 40 39 35 34 33 26 25 24 29 32 32 21 24 30 30 28 27 27 28 28
45 46 47 47 47 43 42 45 44 44 44 41 40 34 30 27 34 40 43 45 45 45 43 46 44 39 36 32 26 25 24 20 20 31 29 28 27 25 29 28 29 27 27 28 28
45 46 47 47 47 43 44 39 35 36 36 30 29 28 32 38 43 38 46 45 47 41 38 44 40 36 33 29 24 21 22 17 20 31 29 26 26 24 28 29 29 28 27 26 26
46 46 47 46 45 45 41 33 35 37 29 30 30 30 31 41 38 44 45 37 44 35 35 41 34 37 32 28 26 26 22 21 26 29 28 24 26 28 28 27 27 27 28 27 28
47 46 45 46 45 41 38 38 42 39 31 28 33 32 34 42 39 42 44 42 39 32 36 33 36 39 39 31 28 25 25 22 25 30 29 27 25 25 26 25 26 25 24 25 26
46 46 45 45 42 39 36 41 42 39 28 26 34 37 40 41 37 43 47 44 39 35 38 36 38 38 38 32 28 24 25 25 29 26 16 26 8 25 23 24 25 25 24 27 31
45 47 46 44 39 36 40 40 41 38 18 31 33 41 41 40 40 41 46 45 37 36 38 35 36 39 32 32 29 25 32 31 30 28 27 25 20 20 21 23 25 27 30 33 35
46 46 46 42 40 41 41 40 38 28 19 31 37 36 38 38 39 43 42 42 39 36 37 38 40 40 37 36 33 35 31 30 29 28 25 25 19 17 18 21 25 28 31 33 36
45 47 45 41 37 43 42 39 29 22 32 31 33 36 32 33 37 38 37 37 35 31 30 32 33 39 38 34 34 33 31 28 27 26 22 22 22 18 17 22 26 28 31 34 36
45 46 43 40 42 42 39 35 23 28 29 36 36 34 34 35 35 35 36 33 35 35 32 30 27 33 37 36 34 34 31 27 19 20 20 20 17 16 20 26 28 30 33 34 36
45 40 40 42 43 43 37 29 27 29 33 34 32 32 31 32 34 35 32 31 33 33 32 30 29 36 37 38 37 34 30 27 19 19 16 15 17 20 21 23 25 30 33 35 37
41 38 37 42 44 40 36 29 32 34 35 34 28 29 26 28 30 31 29 30 30 30 30 31 29 32 33 36 33 34 29 27 28 17 10 12 10 10 19 21 24 29 32 34 37
39 34 40 43 43 38 31 33 35 36 36 33 28 28 27 27 27 27 27 30 30 28 29 29 28 31 30 30 28 27 27 26 25 19 10 2 5 15 18 22 25 29 32 34 39
41 39 40 44 38 36 32 33 35 35 37 34 31 29 27 28 27 26 26 28 31 29 26 30 29 27 29 29 29 28 26 25 24 21 21 18 13 18 21 23 25 29 32 35 40
38 36 41 44 34 33 35 35 35 32 31 29 29 30 30 27 26 26 27 32 31 29 27 28 28 25 26 27 29 28 27 25 24 27 25 13 15 21 21 24 26 30 33 37 39
37 35 38 39 38 34 32 33 31 36 31 30 28 29 28 26 27 27 28 32 32 31 31 28 26 26 21 27 28 28 27 26 28 25 19 16 18 21 22 23 29 30 33 38 38
35 33 35 34 34 34 34 32 29 29 32 30 28 27 26 25 25 26 29 31 32 31 30 29 28 26 26 26 30 29 28 27 27 25 22 18 18 20 20 26 28 30 37 39 36
33 34 34 33 34 33 32 30 30 32 32 28 27 28 27 24 24 25 27 27 26 30 28 30 28 28 26 26 27 27 26 27 27 26 24 23 23 23 26 28 31 33 38 38 35
32 37 37 33 32 31 32 32 32 34 36 34 30 28 27 32 32 29 29 28 28 27 27 28 29 28 24 25 25 23 25 25 26 26 26 24 24 26 28 31 34 37 39 36 33

GFSSW_sfc_30mbdewp_060.txt.gz
Dewpoint
48 46 47 47 47 46 46 46 45 46 47 48 48 48 50 47 45 44 44 49 51 54 54 45 48 51 54 48 44 40 39 38 37 35 32 31 29 30 29 27 26 27 47 52 63
47 45 46 47 47 46 45 45 45 45 45 46 46 47 48 49 44 39 39 47 55 53 49 44 44 50 51 45 43 37 37 37 37 33 32 32 30 30 28 28 27 26 46 52 61
45 45 46 47 47 46 46 45 44 44 44 45 46 46 48 47 40 36 38 44 52 55 48 47 44 50 48 42 40 36 35 37 35 33 33 32 30 30 28 27 26 25 35 51 56
47 47 47 47 46 46 46 46 45 44 44 45 46 46 47 44 31 40 44 41 51 54 48 49 39 45 44 40 39 33 35 33 33 34 33 30 30 29 28 28 32 37 37 47 53
47 47 47 48 47 47 46 46 45 44 44 45 46 46 44 39 37 37 48 42 51 54 47 47 39 43 41 40 38 36 33 31 32 37 36 31 29 28 28 32 34 37 37 36 36
47 47 47 47 47 47 46 45 45 45 45 46 45 46 41 33 35 35 40 49 48 51 49 44 38 42 40 38 37 36 35 33 33 37 36 31 30 28 30 32 33 33 33 34 34
46 46 46 46 47 47 47 45 45 44 45 45 45 42 38 34 34 47 48 42 49 50 48 42 40 37 40 39 40 35 33 35 32 35 35 35 32 31 32 32 32 32 32 32 31
47 45 46 46 47 47 46 44 43 44 44 45 45 42 35 35 36 34 44 45 48 49 50 42 40 38 39 40 39 35 34 32 32 33 34 34 29 32 33 33 32 30 29 29 29
46 46 46 47 47 46 44 42 44 44 45 45 43 40 31 33 32 32 33 39 45 48 50 46 42 41 38 37 36 36 29 30 30 32 31 32 28 29 30 31 31 29 28 26 27
46 46 47 47 46 43 42 43 44 45 44 40 41 36 34 28 38 34 39 46 45 47 46 44 42 40 38 36 30 31 32 27 27 30 31 32 31 27 29 29 28 28 27 28 28
46 46 46 45 45 43 44 43 37 37 36 32 31 31 31 36 42 39 44 41 42 47 39 40 38 35 36 35 31 27 28 27 25 30 29 29 31 29 28 28 28 29 28 27 28
45 47 45 46 45 44 43 33 37 37 30 30 29 29 33 38 37 38 44 39 39 38 38 38 35 36 36 34 30 25 23 24 23 31 30 28 26 26 27 28 29 29 28 27 27
45 46 46 45 45 44 35 38 41 39 31 29 33 33 36 39 36 38 44 42 38 37 35 33 34 37 36 32 29 25 24 21 24 29 29 26 24 26 28 27 27 27 27 26 26
44 46 47 45 43 39 36 39 41 39 29 29 34 39 40 38 34 45 45 42 41 33 34 38 39 38 38 35 29 25 25 24 28 28 22 27 13 24 26 24 25 25 23 25 31
43 46 47 46 43 36 39 40 40 39 17 32 34 41 41 35 38 41 46 42 38 37 37 35 37 37 36 36 31 25 26 29 29 28 27 25 22 22 23 23 25 26 29 33 35
43 45 47 43 44 40 41 42 40 28 20 31 34 34 35 38 39 40 42 44 39 36 37 37 39 39 37 40 39 32 31 30 30 29 26 26 21 20 20 23 25 28 32 34 37
44 45 46 42 39 42 42 40 28 23 33 31 32 37 36 36 36 36 36 37 34 30 31 35 34 38 40 37 36 32 30 25 25 25 24 24 23 22 20 24 27 29 32 35 37
45 47 44 41 42 42 41 35 23 28 30 36 36 34 33 36 35 37 37 34 36 34 32 29 27 34 37 37 34 32 30 25 18 22 21 21 21 18 23 28 30 32 34 35 37
46 44 41 44 44 43 38 28 26 29 34 34 33 30 31 32 34 36 34 32 37 37 32 30 28 36 37 38 37 35 31 27 22 17 18 18 18 19 26 27 28 30 33 35 38
44 39 39 42 44 42 36 28 32 34 35 34 27 28 26 29 30 32 30 31 31 30 33 32 28 34 37 38 37 35 33 26 26 10 14 14 16 15 21 23 24 31 33 35 37
43 36 41 44 44 40 31 32 35 35 35 34 28 26 26 27 27 26 28 30 29 28 29 31 31 32 36 34 32 33 33 29 26 22 17 10 10 18 20 23 24 30 33 34 38
41 36 42 45 38 37 32 32 35 34 36 35 31 27 26 26 26 26 28 29 30 29 28 30 31 29 29 29 31 33 29 30 28 24 21 18 16 18 20 24 29 31 33 35 40
36 36 43 45 33 32 35 34 34 32 31 30 29 30 29 27 26 27 30 32 31 31 28 29 28 25 26 27 28 28 28 27 26 26 23 18 17 21 23 25 26 30 33 38 39
37 33 37 40 38 34 32 33 32 36 31 29 28 29 27 26 27 27 30 31 32 31 31 29 27 26 22 27 29 27 28 27 27 21 23 19 19 20 22 24 27 31 33 38 37
34 33 35 32 34 34 33 31 29 29 32 30 28 27 26 25 25 26 30 31 32 29 30 31 26 26 26 29 30 30 28 28 26 25 20 22 20 21 21 24 29 30 37 38 36
31 33 34 32 33 33 32 29 29 30 31 28 27 27 26 26 27 25 28 28 28 30 28 31 27 27 25 26 27 26 27 28 28 27 25 24 23 24 27 29 31 33 38 39 35
31 34 35 31 32 31 34 33 33 34 34 34 33 28 26 32 31 29 29 28 28 29 28 30 28 27 24 25 25 22 25 26 28 27 27 24 25 27 27 31 33 37 39 37 34

GFSSW_sfc_30mbdewp_063.txt.gz
Dewpoint
45 46 44 46 47 48 48 47 46 46 45 45 47 48 48 49 48 45 44 47 51 54 51 48 48 51 52 52 47 49 44 41 39 39 38 37 31 29 28 27 29 42 53 61 63
47 47 48 48 48 48 47 47 46 45 45 46 46 46 47 48 47 44 44 44 50 54 51 46 45 49 51 50 45 41 40 41 42 40 36 32 32 30 27 27 32 50 61 62 63
47 48 48 48 48 48 47 47 46 45 44 45 45 46 47 48 42 40 44 45 45 53 53 49 43 48 48 46 44 41 37 40 39 40 34 33 33 30 28 27 28 44 56 60 62
47 47 48 47 47 48 48 47 46 46 45 45 45 46 46 44 28 38 42 45 44 49 52 49 43 46 44 42 44 36 38 37 39 39 40 31 31 29 28 31 36 33 52 57 58
46 47 46 47 46 46 47 47 46 46 45 45 45 45 43 38 36 39 40 43 43 50 49 48 43 46 43 44 40 40 35 35 36 36 35 32 29 28 28 34 37 36 38 48 54
46 47 46 46 47 47 47 48 45 46 45 46 45 45 42 34 37 38 41 39 43 50 49 48 42 43 43 42 40 38 38 36 36 36 35 31 31 30 29 33 34 34 34 34 34
47 45 46 46 47 47 47 46 45 45 46 45 45 43 39 34 36 42 43 44 48 48 47 48 45 41 41 39 41 38 36 35 36 37 35 34 30 30 32 33 32 33 32 32 32
46 46 46 47 47 46 45 44 43 44 44 45 45 43 35 37 37 37 39 40 48 50 50 48 45 39 40 41 40 36 34 33 34 35 36 32 28 32 32 33 32 32 31 30 31
46 47 46 46 45 44 43 42 43 44 45 45 44 41 33 36 36 35 33 33 44 48 49 49 45 40 38 37 37 38 31 32 31 34 35 32 30 30 32 32 32 32 31 30 28
47 46 46 46 44 43 44 45 45 45 45 43 42 37 36 32 36 38 38 42 44 47 47 46 42 37 37 37 30 33 30 32 30 31 33 32 31 31 29 30 31 31 30 28 28
45 46 47 45 46 46 46 42 36 37 38 33 33 31 32 36 40 39 43 39 41 43 41 41 38 34 34 37 33 36 32 29 31 30 31 30 31 31 30 29 29 28 29 29 28
43 46 46 46 46 46 43 36 38 38 31 33 34 29 39 39 34 39 41 34 36 33 41 39 34 36 36 37 35 31 31 29 28 29 30 30 31 32 31 28 28 29 29 29 28
42 45 46 47 47 43 39 40 41 41 33 31 34 37 38 39 34 38 39 39 36 33 38 35 34 37 36 35 33 32 26 27 26 29 29 27 26 27 28 28 29 28 28 27 26
43 44 46 47 43 39 38 41 41 40 29 32 35 38 40 38 35 42 39 40 35 35 36 35 37 36 35 33 32 30 27 25 28 28 25 26 19 21 26 26 26 26 26 25 34
43 44 45 47 43 38 39 40 40 40 18 33 35 41 40 36 38 38 46 43 33 37 35 36 37 36 36 35 36 29 27 30 29 26 25 25 20 18 26 25 25 25 24 26 34
43 45 45 45 45 41 42 43 41 27 20 31 35 35 34 38 39 41 42 45 41 37 37 38 40 39 36 39 40 38 30 30 30 29 24 27 23 18 24 25 25 27 33 35 38
44 46 46 46 40 42 43 40 25 22 32 32 33 37 36 35 35 37 37 37 33 29 30 34 35 38 40 35 37 37 28 25 23 24 21 23 25 21 23 24 26 29 32 36 39
45 48 46 44 43 42 41 32 21 27 30 35 36 35 33 36 36 37 36 35 35 32 31 27 28 36 38 36 36 36 27 21 15 20 22 21 23 21 22 26 29 31 34 37 40
45 44 42 43 44 43 38 24 25 28 33 33 33 30 30 35 36 36 34 35 35 37 29 28 27 36 37 40 38 35 30 28 22 19 19 21 19 25 28 29 31 33 35 35 40
43 42 40 44 44 42 32 29 31 33 35 35 31 30 27 31 33 34 30 34 36 37 37 33 27 35 37 40 38 36 34 26 26 14 16 18 17 18 26 28 29 31 32 35 40
42 38 41 45 44 39 29 30 34 36 35 33 31 26 27 28 28 28 29 29 30 30 34 34 30 31 36 33 34 33 31 29 27 23 15 12 13 17 25 26 27 31 33 36 38
38 34 42 45 36 36 32 33 34 34 36 35 33 30 26 27 26 29 29 30 31 29 30 32 31 29 32 36 37 36 33 29 25 23 20 18 15 19 23 24 26 32 34 36 40
37 37 42 44 31 31 34 35 36 33 31 30 29 29 29 27 26 29 31 32 32 31 28 30 28 25 27 29 33 33 34 34 28 27 22 15 15 21 25 27 30 31 33 38 39
37 30 34 37 37 34 33 32 34 35 32 30 28 29 28 26 28 28 30 32 32 29 32 30 28 25 19 23 28 27 31 27 26 25 23 21 19 22 25 25 27 31 34 39 37
33 31 34 30 33 32 34 32 30 31 33 30 28 27 27 25 26 29 31 31 32 29 30 30 24 26 28 30 29 29 27 28 24 24 20 20 19 22 23 24 26 31 38 38 36
30 30 32 30 32 32 33 31 30 32 31 30 29 27 28 29 28 27 29 29 29 29 29 32 27 25 23 27 27 24 27 28 27 26 25 25 24 22 22 28 30 33 38 38 35
32 33 32 29 31 32 33 31 33 34 34 34 34 31 30 31 30 29 29 29 30 28 28 29 27 24 23 25 25 19 25 27 28 28 27 23 24 27 27 30 32 36 39 38 34

GFSSW_sfc_30mbdewp_066.txt.gz
Dewpoint
46 48 48 49 49 49 49 48 48 47 46 46 46 46 48 49 50 48 44 47 49 53 55 49 47 51 52 50 52 52 41 39 39 39 39 43 39 31 29 30 41 51 56 60 63
47 48 48 48 48 48 48 48 47 47 46 45 45 46 47 49 48 46 46 46 46 52 53 47 45 50 50 50 46 45 43 40 41 40 43 45 43 41 28 39 50 59 62 63 63
47 47 48 47 47 47 47 49 48 47 47 45 45 46 47 48 43 41 44 48 47 47 53 47 46 49 48 48 45 44 40 42 42 42 46 44 42 41 29 32 44 54 60 61 61
47 46 46 46 46 47 47 47 48 46 46 45 45 45 46 44 27 40 41 45 46 47 50 50 44 47 45 44 45 40 40 41 41 46 47 44 40 38 29 34 34 54 60 60 59
46 47 46 46 47 47 47 47 47 46 46 46 45 45 43 38 38 38 41 40 39 46 47 49 42 43 43 44 44 41 39 39 40 43 43 43 42 35 30 36 39 52 57 59 59
47 47 46 47 47 48 48 47 46 46 46 45 45 45 40 33 37 39 40 43 42 44 46 49 45 45 43 43 42 42 40 38 41 37 40 41 40 32 30 33 37 38 45 47 56
46 46 46 46 46 47 46 46 45 45 46 45 46 42 40 33 37 39 39 39 46 43 47 49 47 44 43 41 43 39 36 39 39 36 35 37 35 32 31 33 33 32 32 32 33
45 47 46 45 45 44 44 43 43 44 45 45 46 44 34 39 38 37 39 38 44 49 48 49 50 41 41 42 42 38 36 35 36 36 35 31 28 30 33 32 32 32 32 32 32
46 46 46 46 46 45 45 44 43 45 45 45 43 41 29 37 37 39 37 34 43 48 51 50 48 41 40 38 37 38 31 33 33 35 35 31 29 31 31 33 31 33 32 31 30
44 45 47 47 46 47 47 46 45 45 45 44 43 37 34 32 35 38 38 40 42 46 47 47 45 38 37 37 30 31 31 32 31 33 35 32 30 29 31 30 31 32 32 31 29
43 45 45 46 47 47 46 41 35 35 36 35 34 32 33 36 38 40 40 38 40 41 38 44 38 33 35 36 34 35 31 32 32 32 33 33 32 31 31 29 29 30 31 30 29
43 42 45 46 47 47 41 38 38 37 29 34 33 35 38 40 33 40 40 35 35 34 40 40 34 35 36 37 35 35 31 31 30 32 32 31 31 32 32 30 29 30 30 29 29
43 43 45 46 48 42 39 39 41 41 32 34 38 37 38 39 32 38 39 38 35 33 34 35 34 36 35 36 35 33 32 30 27 29 29 29 29 30 32 31 30 29 29 29 27
44 43 45 46 43 41 38 41 42 40 28 31 35 37 39 38 35 40 41 39 36 33 34 36 37 36 35 35 35 31 30 29 28 28 26 27 23 24 29 29 30 29 28 27 29
43 44 45 46 44 39 38 41 41 39 19 34 36 42 41 36 37 37 41 40 35 36 35 35 35 35 35 34 33 30 28 27 28 28 26 25 23 22 23 26 27 27 26 25 35
43 45 45 45 46 43 42 42 41 26 21 31 35 36 35 36 35 37 41 43 40 38 38 38 40 39 37 39 38 37 30 30 30 29 24 24 23 20 20 23 26 26 25 27 36
44 46 45 46 40 43 43 40 24 22 32 32 34 36 36 33 36 37 35 34 34 30 31 36 36 39 40 35 37 35 27 26 25 26 23 25 24 22 21 24 26 27 33 37 39
45 47 47 45 44 43 40 31 21 26 29 35 36 36 34 37 36 37 36 34 34 33 31 28 28 36 38 36 35 34 27 22 19 20 21 22 22 24 26 26 26 32 35 38 40
45 43 42 43 44 42 35 22 22 26 32 33 33 32 32 36 36 37 34 34 36 34 27 27 28 37 38 39 38 35 31 28 20 21 20 20 22 22 28 26 29 32 35 38 40
42 41 39 45 44 41 30 28 29 33 34 35 30 29 30 34 34 32 32 36 35 37 34 30 26 34 37 39 38 37 34 26 25 16 17 18 18 19 25 27 30 32 35 37 41
41 38 41 45 44 36 28 29 32 35 35 33 32 27 28 28 32 29 29 29 32 36 36 32 29 31 36 34 33 35 32 29 26 21 16 14 16 19 25 28 31 33 34 35 40
36 34 42 44 36 35 31 32 34 34 36 35 35 31 27 27 28 29 29 30 31 31 33 34 31 28 30 36 38 36 33 28 23 22 19 16 13 20 24 29 31 32 33 36 39
36 36 41 44 31 31 34 34 36 33 33 31 30 29 29 27 26 30 30 32 32 30 30 32 28 25 27 30 35 35 34 33 28 26 21 15 11 22 24 26 30 32 34 37 39
35 27 32 36 36 34 33 33 34 35 33 30 29 29 28 26 28 29 29 32 31 29 33 31 28 24 20 23 29 29 33 32 31 26 24 22 19 21 25 27 30 33 34 39 38
32 31 32 28 32 31 33 33 30 31 33 31 29 27 27 25 27 29 31 31 31 29 31 27 25 26 29 30 28 28 31 30 29 30 27 26 21 20 25 28 29 31 34 38 37
29 29 30 28 31 31 34 32 33 33 32 31 29 32 29 27 26 28 29 30 28 29 29 31 25 24 24 28 26 24 28 30 27 25 25 25 23 25 25 26 27 30 36 38 37
32 32 31 27 28 32 29 28 32 35 34 34 34 32 30 30 30 29 30 30 29 28 28 28 27 22 19 25 24 19 23 26 28 28 26 23 24 25 24 26 29 33 38 38 37

GFSSW_sfc_30mbdewp_069.txt.gz
Dewpoint
48 47 48 48 48 48 48 48 49 48 48 47 46 46 46 48 50 50 46 46 48 51 54 50 48 49 53 51 52 51 40 37 38 39 39 45 43 42 40 31 48 56 58 60 63
47 47 47 46 46 46 47 47 48 48 48 47 45 46 47 48 47 46 47 48 48 50 52 48 46 49 49 49 50 45 40 38 39 41 41 44 43 43 37 31 55 59 62 63 63
48 48 46 47 47 47 46 47 47 48 48 47 45 46 46 48 40 38 44 47 49 47 48 51 47 46 47 48 46 46 42 41 41 43 47 45 43 43 36 29 47 56 60 61 62
48 48 45 46 47 48 47 47 47 47 47 46 46 46 46 44 23 40 44 44 48 48 47 50 47 43 44 43 45 41 44 41 45 48 47 45 46 43 39 32 37 52 61 61 61
48 47 45 46 46 48 48 48 47 47 47 46 45 45 43 39 36 40 40 40 43 41 44 46 44 44 41 44 44 40 40 40 47 48 48 47 45 43 43 44 38 52 59 59 60
47 47 48 45 45 45 47 47 46 46 46 45 45 45 40 32 37 41 40 38 38 44 45 46 43 44 43 43 43 43 39 42 44 44 41 43 43 42 44 40 41 57 57 57 58
47 47 47 46 45 44 44 45 45 45 46 45 45 43 39 32 37 39 39 37 40 43 44 47 48 42 43 41 44 42 39 41 41 41 42 46 41 41 44 44 35 44 50 51 55
44 47 46 47 46 46 46 43 43 44 45 45 46 44 33 39 39 37 40 38 40 46 45 49 50 42 42 43 42 38 38 36 39 40 40 42 36 43 44 42 32 32 32 32 32
42 43 46 46 47 47 48 47 44 45 45 45 43 40 28 37 38 38 40 38 41 47 48 48 49 41 40 39 36 37 33 34 34 39 36 37 32 38 42 39 32 32 32 31 31
42 43 45 46 47 47 47 47 46 45 45 45 43 36 34 32 35 37 38 41 42 43 44 45 46 38 37 37 27 31 33 32 31 35 35 34 30 31 34 32 32 32 33 32 31
43 43 44 45 47 48 46 40 36 36 37 34 34 32 33 36 38 37 40 38 39 39 37 43 37 30 35 37 34 33 32 31 32 33 34 34 32 31 31 30 30 31 32 32 31
44 43 43 45 46 48 40 36 36 36 28 34 34 35 38 40 32 37 40 35 34 32 39 40 32 32 37 37 34 33 31 31 32 33 34 32 32 32 32 32 30 29 30 31 30
44 44 43 45 47 41 38 37 41 41 32 34 38 37 37 37 31 35 39 36 33 32 34 34 36 36 36 36 34 34 30 30 30 30 30 30 30 31 32 32 32 31 30 30 30
45 44 44 45 44 41 38 41 42 40 29 31 35 36 38 38 32 40 41 38 35 32 35 37 36 35 36 35 35 32 32 30 29 28 28 29 25 26 30 30 31 31 30 29 28
44 44 46 45 41 39 38 41 41 39 18 35 36 42 40 37 37 36 40 39 32 33 33 34 35 34 34 35 34 31 31 30 29 28 26 26 26 25 23 28 29 31 30 28 29
44 45 45 46 46 43 42 42 40 24 19 32 37 36 35 36 36 36 37 42 41 36 38 38 40 38 37 38 35 35 30 30 30 28 24 25 25 24 22 22 25 29 29 27 33
44 46 45 45 39 44 43 39 23 22 31 31 33 34 34 33 35 37 35 35 32 30 31 36 36 39 39 35 37 33 28 26 25 25 23 25 24 25 24 23 24 24 27 26 37
45 46 47 45 44 43 40 28 22 26 30 35 36 36 33 36 35 35 33 32 36 35 32 30 28 36 38 35 33 32 27 23 18 20 22 24 23 24 26 27 26 27 28 31 38
44 43 43 43 44 42 33 22 22 24 30 32 34 32 32 35 36 36 35 34 34 35 28 28 29 37 39 39 37 34 30 26 20 21 20 21 22 22 24 26 25 30 34 37 40
41 40 40 44 43 40 29 27 28 31 33 34 30 29 31 34 34 33 33 36 35 37 33 29 27 34 37 37 38 36 34 26 23 17 17 19 19 17 23 25 27 31 36 39 40
39 37 41 45 43 35 28 28 31 34 34 33 32 28 29 31 32 29 29 32 35 36 34 30 29 31 37 34 32 35 33 30 26 20 17 15 15 20 18 24 28 32 36 39 40
36 34 42 44 35 33 30 32 34 34 36 35 35 31 28 27 29 29 28 30 33 35 32 32 30 27 31 35 37 37 34 29 24 22 20 16 17 19 21 26 31 33 36 38 41
35 35 39 43 29 31 34 34 35 33 33 31 30 29 29 27 27 30 30 32 32 32 32 32 29 25 27 31 35 35 36 32 27 24 20 19 18 21 24 29 32 32 35 36 40
33 27 31 35 34 34 32 33 33 35 33 30 29 29 27 27 30 28 29 32 30 30 33 31 28 23 20 22 29 31 35 34 29 25 23 21 21 20 22 26 30 32 34 36 38
31 29 31 28 31 31 32 33 31 31 33 31 29 29 27 25 27 29 31 31 30 30 32 28 25 26 28 30 28 30 31 33 31 30 26 26 24 23 22 24 29 32 34 38 38
26 24 29 26 30 31 31 31 33 33 33 31 30 32 30 26 26 27 29 29 28 29 30 29 24 25 24 28 26 24 28 32 33 31 30 29 26 25 24 27 29 32 34 36 38
32 32 30 26 26 30 26 28 32 34 35 35 35 32 30 30 30 29 31 30 29 28 28 27 26 21 17 25 23 17 21 26 31 29 29 28 30 25 23 26 28 29 34 36 37

GFSSW_sfc_30mbdewp_072.txt.gz
Dewpoint
49 49 48 47 47 48 46 47 48 48 49 49 48 47 47 48 49 48 46 46 47 50 53 50 50 49 53 50 52 51 40 37 38 38 38 45 41 43 43 34 50 59 58 59 64
48 48 47 46 47 47 48 47 48 47 48 48 46 47 46 48 46 44 47 49 50 49 50 49 47 47 48 48 49 46 39 38 39 41 41 44 42 43 40 35 51 58 62 63 65
48 48 47 46 46 47 48 48 48 48 47 47 47 46 46 47 39 34 44 46 49 49 48 52 47 46 46 48 47 47 40 40 40 45 45 45 45 44 41 33 37 40 57 62 64
47 48 47 43 45 47 47 48 48 47 46 47 46 46 47 44 22 39 44 45 47 49 45 49 47 42 43 43 46 42 46 42 43 48 46 45 46 44 43 40 44 43 49 61 62
46 47 48 47 43 44 47 47 47 46 46 45 45 45 42 37 33 42 40 44 44 45 40 45 45 42 41 44 44 41 40 44 45 47 48 46 43 43 42 43 44 43 57 60 61
45 47 46 47 45 44 44 46 46 46 45 45 45 45 39 30 35 40 39 40 39 40 41 45 43 43 42 43 43 43 40 42 48 47 43 42 42 43 42 42 42 43 56 59 60
43 45 46 47 47 46 46 43 45 46 46 45 45 43 38 31 37 39 39 38 39 39 41 45 48 42 43 42 44 42 42 44 46 45 43 44 41 41 42 42 41 42 44 56 57
45 42 46 47 47 47 48 48 43 44 45 45 46 42 32 37 39 38 40 38 38 43 44 46 49 42 42 43 43 40 40 37 41 43 44 40 36 41 42 43 43 42 36 37 41
45 43 43 46 46 48 48 47 46 45 45 45 42 39 27 36 37 38 40 37 39 45 46 47 49 42 41 39 37 38 34 34 38 40 43 41 37 37 45 44 43 41 38 32 31
45 44 42 46 46 47 48 47 45 44 45 45 43 34 34 33 35 36 42 42 40 42 42 43 44 38 38 36 28 32 33 34 36 39 41 41 38 38 43 44 42 39 34 33 31
46 45 42 45 46 47 46 40 36 36 38 34 34 33 34 36 37 38 40 41 39 41 34 38 35 31 36 36 33 33 33 33 32 38 36 37 37 33 43 43 41 39 33 32 33
46 45 43 45 45 47 40 35 34 34 28 35 35 34 38 40 32 37 41 36 35 33 36 38 32 34 37 37 33 34 31 31 32 36 35 34 35 37 38 38 35 32 31 31 32
45 43 43 46 45 41 38 37 41 40 31 34 37 37 36 38 32 35 37 36 34 33 32 33 35 36 36 36 33 32 31 31 30 33 31 33 34 37 38 39 34 32 30 30 31
43 43 45 45 43 40 37 41 42 40 28 31 33 35 38 38 32 40 40 37 34 32 34 37 37 35 35 35 34 31 32 30 30 31 29 31 27 31 34 33 33 32 32 31 30
44 44 46 44 39 38 38 42 41 38 19 34 34 42 39 36 36 35 40 37 32 33 34 35 35 36 35 35 33 31 31 30 29 28 27 27 27 27 25 29 31 31 32 31 30
44 44 46 46 45 43 42 42 39 21 18 31 37 35 33 34 34 36 36 42 39 35 35 36 39 38 36 36 34 32 30 30 30 28 25 26 26 25 24 24 24 28 31 31 30
45 46 45 44 39 45 43 39 24 20 29 30 31 34 33 32 33 34 34 32 31 29 29 36 37 39 37 35 37 30 28 26 25 24 23 25 25 25 26 24 24 23 26 30 30
45 46 46 45 44 43 40 28 20 25 28 35 36 35 32 34 34 34 33 31 36 32 31 30 28 36 38 34 33 31 27 23 17 20 22 24 23 24 26 27 26 26 27 27 32
44 42 46 43 44 42 33 22 23 24 30 32 33 29 31 35 35 34 33 32 34 36 29 29 29 38 39 39 35 33 31 25 21 21 20 22 23 22 23 24 26 26 30 29 36
41 39 41 45 44 39 29 27 27 28 32 34 29 31 29 32 33 33 33 36 35 37 32 30 29 35 36 38 38 34 31 27 23 17 15 18 19 17 18 20 24 26 32 34 39
39 37 41 45 43 34 28 28 31 33 34 33 31 28 30 32 32 29 29 34 36 35 32 30 29 32 35 33 33 34 31 29 26 20 17 16 15 21 19 18 20 27 34 37 39
36 34 42 44 35 32 30 32 34 34 36 34 35 32 28 28 29 29 28 29 35 35 30 31 28 28 30 35 36 36 34 28 24 22 20 16 18 19 21 22 27 30 36 39 40
34 34 39 42 29 31 33 34 35 33 33 32 29 29 29 27 28 30 30 32 33 34 31 31 27 25 27 30 34 34 34 33 27 24 21 21 20 19 24 28 32 32 36 39 40
31 29 31 35 34 33 31 32 33 35 33 31 29 28 27 27 30 29 29 32 30 31 33 31 27 24 19 21 30 31 33 34 31 29 25 23 22 22 23 23 29 32 35 37 40
29 28 30 27 30 31 32 33 32 31 32 32 29 31 27 25 28 29 31 31 29 33 31 29 26 26 26 29 29 30 31 33 32 31 28 27 25 25 25 24 25 31 34 36 37
23 24 27 25 29 31 30 30 33 33 33 32 31 32 30 26 26 27 29 29 28 29 30 28 24 25 25 28 27 26 29 32 33 32 31 30 30 27 26 26 27 29 34 36 37
31 32 29 26 26 30 25 27 32 33 35 35 35 32 30 31 31 30 31 30 29 27 28 26 25 22 19 25 24 19 22 26 31 32 32 30 31 29 28 26 27 30 33 35 37

GFSSW_sfc_30mbdewp_075.txt.gz
Dewpoint
48 48 48 46 46 48 47 49 48 48 48 49 48 48 47 48 49 48 45 47 48 48 52 50 51 49 53 51 53 52 40 36 36 35 37 44 41 44 43 37 52 59 59 61 65
47 48 48 47 44 44 47 48 48 48 48 48 48 47 46 48 45 42 46 48 51 51 49 50 48 48 49 48 49 45 40 38 40 40 42 43 43 44 40 39 40 41 44 63 64
47 47 47 48 43 44 47 48 48 47 47 47 48 47 47 47 37 32 44 46 50 51 48 51 48 46 46 48 48 45 40 40 42 45 45 44 45 44 41 33 42 41 42 55 63
45 47 46 48 45 44 46 47 47 46 46 47 47 46 47 43 19 39 44 46 48 50 49 48 47 43 43 44 46 43 44 42 44 47 45 44 46 43 43 40 44 44 48 55 61
43 46 46 47 47 45 44 46 46 46 45 45 45 45 41 34 31 39 42 45 49 48 43 46 46 41 40 43 44 42 43 44 48 47 46 45 43 42 42 43 43 43 44 57 59
46 42 47 46 47 46 46 44 46 46 45 45 45 44 38 27 34 39 39 43 42 47 41 45 46 41 41 42 42 43 41 44 47 47 44 43 43 42 42 43 42 43 42 48 59
48 44 43 47 47 47 47 47 44 46 46 45 44 42 36 29 38 39 39 42 42 42 40 43 47 43 43 42 44 43 40 44 45 46 45 43 40 40 42 43 42 42 42 41 49
46 47 43 44 47 46 48 47 46 44 45 45 46 41 29 36 38 38 40 40 44 42 43 46 48 44 43 43 42 39 40 37 43 44 46 43 37 40 42 43 41 42 42 41 38
47 46 44 44 47 46 48 47 47 44 45 46 41 38 27 36 35 37 41 38 40 44 46 46 48 42 41 39 37 38 33 35 40 42 44 40 37 38 41 41 42 43 42 40 38
47 47 46 43 46 47 48 47 46 44 45 45 43 31 33 32 35 37 43 43 41 41 41 41 40 40 39 36 28 33 33 35 34 40 42 38 37 38 43 41 41 43 42 39 36
47 47 45 44 46 46 46 40 35 35 39 33 33 33 33 37 38 39 41 40 38 39 35 38 34 33 36 36 32 34 32 32 36 40 39 39 37 39 42 43 40 42 42 39 37
46 46 43 43 47 46 40 35 33 34 27 34 36 34 38 39 33 39 40 35 35 33 35 35 32 35 37 36 33 34 32 32 32 38 37 37 36 37 42 41 43 43 42 38 35
45 44 43 46 45 42 36 36 40 40 30 34 37 37 36 37 33 36 39 36 33 33 35 32 35 37 37 36 33 32 31 31 30 36 35 34 33 36 38 40 41 43 41 39 32
43 43 44 45 43 40 37 40 41 39 26 31 32 35 38 38 32 39 39 35 33 32 36 35 39 36 35 34 33 31 32 31 31 33 30 33 26 33 36 38 40 40 39 38 32
44 44 45 43 40 37 38 42 41 37 18 34 34 42 38 35 34 34 40 37 33 34 35 34 36 35 34 34 34 32 32 30 31 29 28 28 28 28 33 35 36 40 38 37 33
44 44 46 45 44 43 42 42 37 21 19 31 36 34 31 33 33 35 36 41 38 35 36 36 40 39 35 37 33 32 31 31 30 29 27 28 29 27 26 32 35 35 35 35 33
45 47 45 45 39 44 43 39 23 20 28 30 31 34 32 30 31 33 34 33 27 28 30 35 37 39 38 35 35 30 30 27 25 26 23 25 26 27 27 25 26 27 29 31 32
46 47 46 44 44 43 39 27 20 25 29 35 35 33 31 32 33 32 32 31 33 33 32 29 27 37 37 35 31 29 27 22 18 20 22 25 23 23 27 27 27 26 26 27 29
45 44 44 43 44 42 31 22 22 24 30 32 33 32 32 33 33 33 32 32 34 34 30 30 29 38 39 38 35 32 28 24 21 20 20 22 23 22 23 24 25 26 27 28 28
40 39 41 45 44 38 29 27 27 27 32 34 29 31 29 32 33 34 32 33 34 36 37 32 28 35 37 37 37 33 30 26 23 17 15 17 18 15 18 18 19 20 26 31 34
39 37 41 45 43 34 28 28 31 32 34 33 32 28 32 33 32 30 31 34 36 36 32 30 30 32 34 33 32 32 30 28 25 20 17 15 15 21 19 18 20 22 26 33 37
36 34 42 44 35 31 29 31 33 34 35 34 35 32 27 29 29 28 29 30 36 34 29 30 30 29 32 35 36 36 32 27 24 22 19 17 18 19 19 23 25 28 33 37 39
33 35 39 43 30 30 32 34 35 33 33 32 29 29 29 28 28 29 30 32 35 33 30 30 27 25 26 29 33 33 35 29 26 24 21 20 20 19 23 26 31 31 36 39 40
29 30 31 36 33 33 31 32 33 35 32 31 30 29 27 28 29 29 30 31 31 32 34 30 27 22 18 20 29 30 33 32 31 28 24 23 23 24 24 24 25 31 34 38 40
27 26 30 28 29 31 32 32 32 31 33 32 29 31 28 26 28 29 30 30 29 35 30 29 25 25 25 26 30 30 30 32 31 30 26 25 25 26 27 27 26 26 32 36 39
21 23 27 25 28 30 29 31 32 33 33 32 31 32 29 26 27 27 29 29 28 29 29 27 25 27 26 29 28 27 29 31 33 32 29 29 28 30 30 28 26 27 30 34 37
31 31 26 25 26 29 25 27 31 32 35 34 35 31 30 31 32 30 30 30 29 28 28 26 24 23 19 25 24 19 23 26 31 32 32 29 30 32 32 32 32 30 30 32 36

GFSSW_sfc_30mbdewp_078.txt.gz
Dewpoint
49 50 48 49 45 45 47 47 47 48 49 49 48 48 48 47 49 45 40 42 47 49 51 50 49 48 52 51 52 49 40 34 35 33 34 43 39 43 41 36 53 46 55 60 64
47 49 48 48 46 44 47 47 48 48 48 47 47 48 47 48 43 38 39 47 49 51 49 47 45 47 47 48 48 44 39 36 35 36 39 43 41 43 38 42 42 42 52 61 65
44 47 48 47 48 44 45 48 47 47 47 47 47 47 47 46 36 30 46 47 47 50 51 49 47 46 44 45 46 43 39 37 36 37 43 43 43 44 37 39 41 41 46 53 64
47 43 46 46 48 45 44 47 47 46 46 46 46 46 47 41 24 39 44 46 47 49 50 48 46 42 39 40 44 41 41 39 42 44 44 41 44 42 42 42 43 43 48 51 62
50 47 42 45 47 47 47 45 46 46 45 45 45 45 39 31 27 36 41 45 47 46 46 46 43 38 35 39 43 42 41 41 42 45 44 44 43 42 42 43 43 43 44 57 60
48 48 44 42 47 47 47 47 46 46 46 46 45 43 36 26 34 37 37 42 44 47 44 47 45 36 35 37 40 41 42 41 45 45 44 43 42 42 42 43 42 42 42 45 58
48 47 46 44 45 47 47 47 44 45 46 46 44 40 34 29 36 39 39 40 44 47 43 44 49 42 37 36 39 41 39 42 43 45 43 44 40 40 40 42 40 39 40 42 42
47 47 47 44 44 47 47 49 47 44 45 46 46 40 27 34 39 38 37 42 43 44 45 44 49 43 39 42 40 37 35 37 40 44 45 42 36 37 40 40 39 39 40 41 41
47 47 47 44 43 46 47 48 47 44 45 46 40 38 28 36 33 37 39 38 42 42 44 43 48 42 41 35 34 35 27 29 36 41 43 40 38 36 39 39 38 38 40 41 40
48 47 47 45 44 46 47 47 46 45 45 43 42 33 32 32 34 36 41 41 39 38 42 40 41 39 35 32 25 29 29 30 32 40 41 38 36 37 41 40 37 37 38 40 40
47 46 46 45 44 46 47 42 36 37 39 31 33 32 33 35 37 38 39 38 39 37 35 39 34 33 31 29 26 31 30 30 33 41 38 37 36 37 37 37 37 36 37 39 40
46 46 45 45 47 46 42 36 34 35 29 35 36 34 36 38 32 38 37 34 35 32 37 36 32 36 34 32 29 30 29 29 33 38 36 35 35 35 34 37 38 37 35 38 40
46 45 45 46 45 44 37 36 41 40 30 34 36 35 35 37 32 35 38 35 35 30 34 32 36 37 34 33 29 29 27 29 29 36 36 34 32 33 34 37 38 38 38 39 40
46 45 46 46 43 40 37 40 42 39 30 32 32 35 37 37 32 41 41 36 35 32 35 34 38 36 34 29 28 29 30 31 32 31 25 32 20 28 31 35 37 36 36 40 40
45 45 46 43 41 37 38 42 41 37 19 34 34 41 37 34 33 38 41 37 34 35 36 34 36 35 32 30 30 26 32 30 29 26 28 30 26 23 31 31 33 35 36 39 41
44 46 46 44 44 43 42 42 39 27 21 31 36 32 29 32 32 34 36 41 38 36 37 37 39 38 32 36 33 33 31 31 31 29 24 25 25 21 25 29 30 32 35 38 41
46 47 45 44 39 44 43 38 29 24 29 30 31 32 30 28 29 32 34 32 30 29 30 36 35 39 38 34 32 32 28 26 24 24 20 26 26 23 26 28 27 31 34 35 37
48 46 45 44 45 44 40 30 25 27 31 35 34 32 29 31 32 32 30 29 33 35 32 30 27 35 37 35 31 30 26 22 16 18 18 26 23 22 26 27 28 28 27 32 34
46 45 44 44 44 42 33 29 26 27 31 34 34 30 31 33 32 30 30 30 32 35 30 30 29 38 37 38 35 31 28 25 23 22 21 21 23 22 21 23 25 25 28 29 28
42 41 42 45 44 38 32 29 29 28 33 34 29 32 26 30 30 32 30 32 35 36 36 33 29 36 37 38 36 32 29 26 27 19 15 16 17 12 18 18 20 20 22 26 31
41 38 42 46 44 35 32 31 32 32 34 33 31 31 32 33 32 31 30 34 36 36 37 32 31 33 34 33 30 31 29 29 25 22 15 11 11 19 19 20 23 26 28 29 33
40 36 42 45 35 33 31 31 33 35 35 34 35 31 30 33 29 28 29 31 38 36 32 31 31 30 33 35 36 34 31 28 24 23 22 19 14 19 20 23 27 29 33 36 36
37 38 40 43 33 32 33 34 35 34 34 33 30 29 29 29 28 30 30 33 37 33 30 30 29 27 28 30 33 32 33 31 28 27 25 19 15 20 22 26 30 30 33 36 38
33 32 33 37 34 34 32 33 33 36 33 32 30 29 28 28 30 29 30 32 35 33 34 31 27 25 22 24 29 29 30 32 30 29 24 22 19 21 22 24 26 27 31 36 37
28 30 32 32 30 32 33 33 32 32 34 33 31 31 28 26 28 29 30 29 31 35 31 30 28 26 25 25 31 30 30 31 31 30 25 23 21 23 23 23 26 28 28 33 37
24 25 27 27 29 31 31 32 32 33 34 32 31 31 29 27 27 28 30 29 29 30 30 29 27 29 27 29 29 28 28 29 31 30 29 28 28 28 28 29 30 30 30 30 35
32 32 30 26 28 31 27 28 31 32 35 34 35 31 31 32 32 30 31 30 29 29 29 28 27 26 23 25 25 22 25 27 28 30 30 28 28 29 30 30 32 32 33 32 31

GFSSW_sfc_30mbdewp_081.txt.gz
Dewpoint
45 47 49 48 50 46 45 48 48 48 48 49 48 48 48 48 47 42 39 36 44 49 50 46 46 47 46 46 51 52 44 38 33 33 33 39 35 41 39 35 49 45 53 60 65
46 44 45 48 48 46 45 48 47 47 48 47 47 47 47 47 40 37 37 42 45 49 47 42 44 44 43 44 48 48 43 42 37 34 34 38 36 40 36 38 42 43 51 61 65
50 47 44 46 47 48 45 46 47 47 47 47 47 47 46 43 36 33 45 46 47 47 48 47 43 43 40 39 45 46 41 38 32 31 39 39 41 42 34 37 41 42 46 58 64
49 50 45 42 46 48 47 45 46 46 45 45 45 46 47 40 30 36 43 44 47 47 48 46 45 42 39 36 41 39 42 39 36 40 43 38 40 41 41 41 42 43 50 57 63
48 49 48 44 44 48 48 48 47 46 45 45 45 45 41 31 28 33 39 41 45 49 46 45 43 40 36 35 36 38 35 36 41 42 42 40 37 40 41 42 42 43 49 58 62
48 48 47 45 44 46 47 47 44 46 46 45 45 45 36 26 32 35 36 40 45 45 45 44 44 39 34 33 33 38 37 36 43 40 42 41 41 36 41 42 41 41 43 52 59
48 47 47 47 43 45 47 48 47 44 46 46 46 39 34 28 34 36 37 39 45 48 42 46 48 47 34 32 38 36 37 39 42 43 42 42 38 36 40 42 40 39 41 45 46
47 48 47 47 44 43 47 47 48 44 45 46 45 37 27 35 37 35 35 39 45 45 48 48 48 47 36 33 38 37 35 35 40 40 43 42 35 38 36 40 39 39 39 43 43
46 48 46 47 45 44 47 48 47 46 44 45 41 35 24 37 32 34 38 35 39 43 46 47 47 43 38 33 34 35 30 30 34 40 43 41 35 38 38 37 38 38 38 39 43
47 47 46 45 45 44 47 47 46 45 43 39 37 34 29 30 33 34 38 38 37 38 41 42 41 38 36 30 26 27 24 27 31 38 40 39 37 39 42 40 40 37 37 38 41
47 46 46 44 44 47 46 41 37 37 36 31 30 29 30 32 34 36 37 36 37 37 35 38 34 32 31 27 21 22 22 21 24 34 36 35 35 36 37 38 38 37 36 37 38
47 46 44 45 46 47 44 35 34 35 29 33 33 32 33 36 28 36 36 33 32 32 37 35 32 37 31 26 29 25 30 29 32 35 34 31 31 32 34 36 36 35 35 36 37
46 46 45 46 46 44 39 34 39 37 30 33 34 33 33 36 30 31 37 34 34 32 34 33 35 37 33 29 30 27 26 27 28 32 34 30 28 31 33 33 33 35 35 35 36
46 45 45 46 43 39 37 38 41 39 31 31 31 34 35 34 35 39 39 37 36 31 35 33 38 35 32 26 24 24 25 27 29 31 27 31 17 23 29 31 32 35 35 36 36
45 45 46 45 41 38 38 40 40 36 20 34 33 38 35 33 33 36 41 38 34 33 36 34 36 35 30 27 26 23 27 27 29 28 22 27 24 20 26 26 29 32 34 35 34
44 46 46 42 43 41 40 40 39 29 21 30 35 29 27 30 31 36 38 41 39 37 36 36 39 38 34 30 30 32 30 28 27 24 23 23 23 16 22 25 25 29 31 33 35
47 46 45 43 38 42 42 38 30 25 31 30 30 29 26 27 29 35 35 35 32 29 31 35 35 38 39 32 33 28 26 24 22 23 19 22 20 19 24 25 27 27 29 30 33
47 46 45 43 44 43 39 32 27 29 32 36 32 30 26 29 29 31 30 29 34 35 32 29 26 37 36 33 31 26 24 20 14 15 15 24 20 20 24 26 27 28 28 30 33
47 44 43 44 45 43 36 30 30 32 33 33 32 30 30 30 29 27 29 28 32 35 28 29 29 36 38 37 34 29 25 26 23 22 19 20 20 21 20 21 23 25 27 28 29
42 42 42 45 45 40 34 31 32 32 33 33 30 30 23 27 26 29 27 29 33 35 35 31 28 36 35 38 35 33 29 22 27 19 11 15 15 13 17 19 22 22 22 23 28
41 38 43 46 44 37 32 32 32 32 34 33 31 30 24 26 26 27 25 32 36 35 36 32 30 32 34 36 32 31 29 28 25 22 15 8 10 16 20 23 25 26 29 29 28
40 35 43 45 36 34 31 32 34 34 34 34 34 30 30 30 28 27 27 31 37 36 31 31 31 30 31 34 34 34 28 27 24 21 20 19 15 20 21 25 28 28 33 34 34
37 37 41 44 32 32 33 33 34 34 33 33 30 30 29 29 27 29 30 33 37 34 33 30 30 27 29 31 32 31 30 29 26 30 26 18 14 21 21 23 29 28 29 33 35
36 33 36 39 37 33 31 32 32 35 32 31 29 29 28 27 29 29 30 33 36 34 35 31 28 27 23 26 28 28 28 29 30 29 23 22 20 19 21 24 27 26 27 29 35
29 31 35 33 31 32 33 32 30 30 33 32 30 29 27 25 27 28 30 32 34 35 32 31 30 27 26 25 32 31 28 28 30 30 25 23 20 21 21 21 23 25 28 29 33
25 24 28 30 31 31 32 31 30 33 32 31 29 29 28 26 27 27 29 30 29 32 31 31 30 30 27 27 28 27 27 27 28 28 29 28 26 26 27 26 26 27 28 29 30
31 30 27 28 29 29 28 31 32 34 35 35 34 30 30 33 31 31 31 30 30 30 29 29 29 27 23 24 24 21 24 26 26 27 28 27 27 28 27 27 29 29 31 32 32

GFSSW_sfc_30mbdewp_084.txt.gz
Dewpoint
49 48 45 46 49 49 46 46 49 48 48 48 48 48 48 48 48 44 40 40 41 45 49 46 44 45 46 45 51 52 43 39 38 31 36 35 35 40 39 42 45 52 58 63 65
49 51 47 45 47 48 47 45 48 47 48 47 47 48 47 47 41 38 39 42 41 45 46 45 41 44 44 43 48 46 43 40 40 37 38 36 35 38 36 42 43 50 61 63 65
48 50 49 45 44 48 48 47 47 47 46 46 46 46 47 45 37 36 45 45 45 45 46 47 45 44 42 42 44 46 40 43 41 41 42 38 41 41 38 39 42 42 57 63 64
47 49 49 47 44 45 48 48 46 47 45 45 45 45 46 42 30 38 41 42 43 45 45 45 44 42 40 39 41 41 43 42 43 45 43 39 40 40 41 41 42 45 55 61 64
46 49 48 48 45 44 48 48 47 46 46 46 45 45 42 36 31 32 37 36 43 42 43 45 42 42 39 37 37 40 41 43 43 49 45 43 38 40 41 41 42 46 57 60 63
46 49 48 48 47 44 46 47 48 45 46 46 44 44 40 31 32 35 35 38 44 44 43 44 43 43 41 34 34 39 39 41 43 44 49 43 41 39 42 41 41 42 52 59 61
47 48 48 47 47 44 44 48 48 47 44 47 47 43 34 31 32 35 36 42 45 47 43 43 48 43 43 36 33 34 35 37 45 44 46 44 40 39 41 41 40 40 45 53 59
46 47 48 46 47 44 43 47 48 48 44 45 46 40 32 34 36 32 35 41 42 45 46 48 47 43 43 41 33 36 35 33 40 44 45 43 36 39 40 41 40 39 43 45 45
46 47 47 46 46 44 44 47 48 47 44 44 42 36 28 36 32 32 35 35 39 43 44 46 44 41 41 39 34 35 32 32 35 40 40 41 35 37 38 40 39 39 38 43 43
46 48 46 45 44 44 47 47 47 45 44 39 35 32 35 30 32 33 36 37 37 38 41 40 39 35 38 35 29 30 31 31 32 39 43 39 37 39 42 40 38 38 38 38 42
47 47 46 44 44 46 46 44 40 38 36 32 30 28 28 31 32 33 35 34 37 38 33 37 32 31 36 33 30 32 27 29 31 38 38 38 38 38 40 39 39 39 39 38 39
47 47 46 45 46 47 44 40 35 36 32 32 32 31 31 34 29 34 36 33 33 31 33 35 31 37 36 32 27 27 27 29 36 38 37 36 35 37 37 39 39 39 39 39 38
46 46 45 45 46 44 42 35 38 36 33 32 33 31 32 35 30 32 36 34 34 32 35 33 35 38 37 34 30 24 24 33 35 36 34 31 30 30 31 32 36 37 37 38 37
45 45 45 46 43 42 37 37 40 39 32 31 31 35 35 33 35 39 39 37 33 33 35 35 37 37 37 33 30 29 28 29 30 30 27 31 22 26 28 32 33 34 35 36 36
44 43 45 46 43 38 39 39 39 37 20 34 32 35 35 34 36 37 40 39 31 33 36 33 35 34 31 29 30 29 30 30 31 30 29 28 26 21 27 29 31 32 33 35 36
45 46 45 42 44 40 40 39 40 30 20 29 32 28 28 30 34 38 40 41 40 37 36 37 38 37 37 34 32 34 32 28 26 26 22 25 25 19 24 25 27 30 32 34 35
47 47 45 42 40 41 42 40 30 23 31 29 29 28 26 28 33 36 35 34 33 29 30 34 35 37 38 34 33 30 27 24 23 23 21 22 22 24 24 25 26 26 28 31 34
47 45 44 44 43 42 41 34 25 29 32 33 30 28 27 29 29 29 31 30 33 34 31 29 26 35 38 36 30 28 26 22 14 17 18 23 20 20 24 26 27 28 28 29 30
47 46 43 45 44 44 38 28 29 32 33 32 31 28 28 28 28 26 27 30 34 34 31 30 29 37 38 39 36 28 26 26 25 20 20 22 22 22 22 22 25 26 27 29 29
44 43 43 45 45 42 35 30 31 34 33 32 31 31 22 24 25 28 27 29 33 34 35 30 27 35 38 39 35 33 30 23 23 16 11 18 17 17 18 20 21 21 23 26 28
44 39 44 46 45 38 32 31 32 33 34 32 30 27 24 25 24 25 26 32 34 34 35 32 30 33 36 33 31 31 30 28 26 23 19 14 13 20 22 24 26 29 30 29 27
41 35 44 45 37 34 32 32 34 33 34 34 34 28 26 27 25 26 25 33 36 35 31 31 32 29 30 35 35 34 34 28 25 23 22 20 18 22 25 27 28 31 33 34 34
37 38 42 44 33 32 33 33 33 34 33 33 31 30 29 28 28 28 29 35 37 34 33 31 30 27 28 30 32 31 32 32 30 29 24 21 16 21 22 22 29 29 29 34 35
37 33 38 39 37 34 31 32 33 35 32 32 30 29 28 27 29 29 31 34 36 35 35 33 29 27 25 26 30 29 28 29 30 27 26 25 23 20 21 22 27 29 28 28 35
35 34 34 32 34 33 33 31 30 30 33 32 30 29 27 25 27 28 31 34 36 36 32 32 29 27 27 24 31 31 29 28 28 29 27 26 24 24 22 23 24 26 28 29 30
28 30 33 32 32 32 32 31 28 33 32 30 30 29 28 27 29 27 29 30 30 34 31 31 30 30 25 27 27 27 28 27 28 28 30 30 29 30 30 29 28 28 29 29 30
32 30 31 29 30 30 30 29 30 33 34 35 32 29 30 33 31 31 31 30 30 31 31 30 30 27 25 24 23 21 24 27 27 27 28 27 29 30 29 28 29 30 31 31 32

GFSSW_sfc_30mbdewp_087.txt.gz
Dewpoint
49 49 51 47 45 46 49 48 47 48 47 48 48 48 48 48 48 47 43 44 43 44 48 47 45 45 46 46 50 51 43 38 39 36 36 35 35 39 39 47 54 56 60 63 66
48 48 50 49 45 44 48 48 46 47 47 47 47 47 47 47 44 40 41 43 47 44 45 44 42 44 43 44 48 47 43 40 41 44 40 36 37 37 39 44 53 58 62 65 65
46 47 50 49 47 44 46 49 48 48 46 46 45 45 46 47 40 38 45 43 43 45 45 45 45 45 42 43 44 47 42 43 44 46 47 40 39 40 38 41 42 54 62 63 64
47 47 50 48 48 45 44 49 49 47 46 46 46 45 45 43 30 40 40 42 39 44 44 44 42 43 39 39 42 41 44 44 43 47 46 43 41 40 41 41 44 56 62 63 63
46 46 50 47 48 46 44 48 48 48 46 47 45 45 43 39 35 36 37 36 40 43 42 43 40 41 38 40 40 42 44 45 45 48 47 46 43 41 41 42 52 58 60 63 63
46 48 49 49 48 47 44 45 48 49 46 46 47 47 40 34 33 35 35 41 43 42 42 42 41 42 41 39 39 39 43 42 43 47 45 45 46 46 41 42 50 57 60 62 62
47 46 48 48 47 47 44 44 47 48 47 44 46 45 40 36 33 34 37 43 46 44 42 44 44 44 44 38 37 38 38 40 45 44 42 48 43 43 42 41 42 54 58 60 62
46 47 48 47 46 46 43 43 47 48 48 44 45 43 35 35 36 32 35 42 44 47 41 45 48 42 42 42 38 34 37 35 43 44 43 39 36 42 43 41 39 45 53 56 58
46 46 48 46 46 42 42 47 48 48 47 44 42 41 32 37 33 32 35 36 42 45 44 42 44 40 42 38 33 35 31 33 40 43 43 40 37 44 43 40 39 41 44 44 49
47 46 47 46 44 43 45 47 47 45 44 41 40 33 34 31 32 33 35 37 38 40 39 38 39 34 37 37 28 31 32 33 35 41 40 40 41 44 44 40 39 39 39 43 42
46 47 46 45 43 45 46 45 40 38 39 33 31 30 30 33 33 35 37 35 37 38 33 35 33 30 34 36 36 33 32 31 34 41 40 40 39 40 41 40 39 39 39 39 42
46 47 46 44 45 46 45 42 36 36 33 32 33 33 31 34 32 36 38 34 35 31 33 33 31 35 36 34 35 32 32 31 34 38 35 36 35 39 39 39 38 38 39 39 39
46 46 45 45 45 43 42 40 39 39 33 33 33 33 34 35 34 36 38 37 33 32 33 31 35 38 37 34 31 32 30 32 31 38 39 37 34 34 37 39 39 39 39 39 39
46 44 44 46 42 43 40 39 40 39 31 31 32 34 36 39 33 38 40 37 34 32 35 33 37 37 34 32 31 28 33 36 35 33 31 35 27 31 33 34 38 38 38 39 39
45 44 44 46 44 39 39 40 39 37 13 33 31 35 36 34 35 33 40 39 35 35 36 34 36 36 35 34 34 31 34 35 37 31 32 30 26 22 28 30 31 33 36 36 36
45 45 46 43 44 40 40 40 40 27 18 28 33 29 31 36 37 37 40 41 39 37 36 36 39 38 37 38 36 38 33 33 32 29 22 28 26 21 26 28 30 33 34 34 35
46 47 44 44 40 41 42 40 28 19 30 27 27 29 29 33 35 35 34 35 32 26 28 31 34 36 39 32 37 37 27 26 24 21 19 24 26 25 24 27 28 29 32 33 34
48 47 45 44 43 42 41 33 21 26 29 31 29 28 28 29 28 33 33 32 33 33 30 26 22 35 37 37 33 34 27 20 16 19 17 23 20 20 24 26 28 28 28 29 30
47 45 44 45 44 43 37 26 26 30 32 31 30 28 27 28 28 27 29 31 34 34 29 28 28 36 38 39 36 29 25 26 25 21 19 21 22 22 25 26 26 26 26 27 29
44 44 43 45 45 42 34 28 29 35 34 32 29 29 23 24 25 27 28 31 32 35 35 30 28 34 38 37 35 32 31 22 23 14 15 21 19 16 19 20 21 22 23 26 28
43 40 44 46 45 39 29 30 33 33 35 31 31 29 23 25 25 26 30 32 34 34 35 32 29 32 35 32 32 31 28 28 26 23 18 14 14 20 21 24 26 29 31 30 29
41 36 44 46 35 35 32 32 34 33 34 34 34 33 25 26 24 26 29 33 36 35 31 32 31 27 30 34 35 34 33 31 23 21 22 19 17 24 26 27 29 31 32 33 33
38 38 43 44 30 31 33 33 34 34 33 33 32 30 29 29 27 28 32 36 36 34 32 31 29 25 27 30 32 31 32 33 30 28 23 21 15 23 27 28 30 30 32 34 35
36 32 38 40 37 34 32 33 33 34 33 32 30 29 28 27 29 29 32 35 37 35 34 32 29 25 19 24 29 29 30 31 30 26 25 24 23 21 21 21 24 29 28 32 35
37 33 34 31 32 34 32 33 32 30 33 32 30 29 28 26 28 28 32 35 36 36 32 32 28 27 27 26 29 31 29 29 28 29 26 26 26 25 26 24 27 27 28 28 34
30 34 34 33 33 33 32 31 31 32 31 30 30 29 29 29 29 29 31 32 31 34 32 31 29 28 24 26 26 26 27 27 29 29 29 29 28 29 30 31 30 29 29 29 29
33 31 30 31 32 31 31 31 30 33 34 35 33 31 31 32 32 31 31 30 30 32 31 31 29 27 24 24 23 20 21 26 27 27 28 27 29 31 31 31 29 29 30 31 31

GFSSW_sfc_30mbdewp_090.txt.gz
Dewpoint
47 48 47 51 49 45 46 50 48 47 47 46 48 48 48 48 48 46 43 43 43 47 47 45 45 45 45 45 48 51 44 37 39 32 32 36 37 39 44 50 56 57 59 61 64
48 46 48 51 49 47 45 47 49 47 47 46 46 46 47 47 45 41 42 44 46 47 45 44 41 44 43 44 45 46 42 39 41 44 39 41 37 36 45 49 55 59 63 64 64
47 47 48 51 49 47 45 45 49 48 47 46 46 45 45 46 40 37 44 42 40 45 48 46 43 44 41 42 44 41 41 45 45 47 47 43 39 40 43 42 46 56 60 63 62
48 47 46 50 48 48 45 45 49 49 47 47 46 46 45 43 24 39 41 39 42 46 42 42 40 40 39 37 42 40 43 46 45 47 47 44 44 40 41 42 50 60 62 62 62
48 48 48 49 50 47 47 44 47 48 48 46 46 45 42 38 37 38 36 37 43 42 39 39 37 38 37 38 40 40 41 44 47 47 48 48 45 44 41 46 53 60 61 60 60
48 48 47 49 49 47 47 44 45 48 49 45 47 48 40 30 35 34 35 40 41 40 39 40 39 39 39 40 38 39 41 42 48 47 46 44 45 44 41 49 57 59 60 61 60
49 47 47 48 47 45 47 44 44 48 49 47 45 45 40 34 36 35 42 43 44 42 40 42 43 40 41 37 40 39 40 39 44 46 45 44 41 43 44 43 55 57 59 61 61
48 46 47 49 47 45 43 43 46 48 48 48 44 44 35 37 36 33 37 43 44 45 42 44 44 40 42 43 40 36 39 37 44 45 47 42 38 41 44 41 49 54 57 59 61
49 47 47 48 45 44 42 44 47 47 47 46 42 41 32 36 33 33 33 36 42 45 44 43 44 40 40 38 34 35 33 36 41 44 44 42 37 39 44 45 40 48 53 56 58
48 47 47 46 45 43 44 46 47 46 44 43 40 35 32 31 32 32 36 36 39 39 39 39 40 34 35 34 27 32 32 32 36 42 41 40 39 42 43 43 44 42 46 48 54
48 47 48 45 42 43 46 44 39 37 40 33 32 32 31 33 35 36 38 37 38 37 32 36 32 29 33 36 36 33 32 32 37 41 38 39 38 39 43 44 43 40 40 42 43
47 47 45 45 43 45 45 41 36 36 32 34 33 33 33 35 33 36 39 34 35 31 34 34 30 34 35 36 34 31 31 32 37 39 37 39 38 41 44 44 45 40 39 40 40
47 47 45 43 45 42 41 40 39 38 34 34 34 33 33 36 35 36 39 38 34 31 32 32 35 37 36 36 34 32 31 31 35 39 39 35 34 35 40 42 42 40 39 39 39
47 45 44 45 41 43 40 40 40 39 27 30 32 33 36 38 33 38 40 38 35 32 34 35 38 35 36 33 31 29 33 31 36 36 31 37 27 32 32 33 37 38 39 39 39
46 45 44 45 44 40 39 41 39 35 5 27 30 36 37 35 35 33 40 40 35 36 36 33 36 36 34 34 33 32 35 34 36 34 34 35 31 26 28 31 33 36 39 39 39
45 44 45 44 43 43 40 40 39 21 9 25 32 30 33 35 35 37 39 41 41 37 36 36 38 38 37 38 36 37 35 35 35 34 27 29 30 22 25 30 32 33 35 38 38
46 46 45 43 41 41 42 39 24 17 27 24 25 29 30 32 34 35 34 34 33 27 29 33 34 37 39 35 36 35 33 27 26 25 21 27 29 26 26 26 30 30 32 34 35
46 47 45 45 43 43 41 30 16 25 26 30 29 28 27 29 28 33 33 30 34 32 29 26 27 34 37 37 35 34 31 22 19 18 19 25 25 22 24 26 28 29 30 32 33
48 45 44 45 44 43 35 25 21 26 30 29 29 28 26 28 29 27 30 31 34 35 27 25 28 35 37 38 37 32 25 26 22 21 18 20 22 22 25 26 26 26 26 28 29
44 43 43 45 44 40 32 28 30 32 33 30 27 28 21 24 25 27 27 32 31 35 35 30 26 33 36 35 35 30 30 23 21 17 13 19 20 16 22 24 24 24 23 25 26
43 37 44 46 44 37 28 29 32 34 33 31 31 29 24 25 26 26 30 32 34 33 35 31 28 30 33 31 32 30 27 28 25 22 15 16 17 19 20 22 23 27 30 29 29
41 34 44 45 35 35 31 33 34 33 35 34 33 33 23 26 24 27 30 33 36 35 30 33 29 26 29 34 35 34 33 29 21 20 21 19 16 23 23 26 29 29 30 31 32
38 38 43 44 29 30 33 33 34 33 33 34 33 31 29 28 27 30 32 36 36 34 32 31 27 24 25 27 31 30 32 33 29 27 24 18 14 22 27 29 30 29 32 33 33
36 32 38 40 38 33 32 33 33 35 34 33 30 29 28 28 29 30 32 35 36 34 34 32 29 22 20 23 29 28 30 31 30 26 24 24 22 22 24 25 24 26 29 29 33
35 32 34 31 32 34 33 33 33 31 33 31 30 29 28 27 28 31 34 35 36 36 32 32 28 26 27 27 29 30 29 29 29 29 26 25 26 26 26 25 27 30 30 29 29
34 33 34 31 33 33 33 32 31 31 31 30 29 29 29 28 28 29 32 32 31 34 31 31 28 26 23 26 27 26 27 27 28 29 29 29 28 30 30 30 31 31 30 30 29
33 32 32 33 32 32 31 32 31 33 35 33 31 31 29 30 31 31 31 31 32 32 31 30 28 26 22 25 22 20 22 24 27 27 27 24 27 30 30 30 31 30 30 30 31

GFSSW_sfc_30mbdewp_093.txt.gz
Dewpoint
50 49 47 49 51 48 45 45 48 48 48 47 46 47 47 48 48 45 41 42 44 47 48 45 44 44 45 44 46 49 40 38 38 35 32 34 35 39 47 50 55 56 56 58 63
49 47 48 49 51 49 47 46 46 50 48 46 46 46 46 46 45 41 43 45 46 46 44 42 42 42 42 43 42 43 38 40 40 42 34 40 37 39 48 52 55 59 61 63 64
49 48 47 46 51 48 48 46 46 49 48 46 47 47 46 45 41 36 45 41 40 47 46 46 42 42 39 41 42 41 37 39 42 46 47 44 39 40 45 47 54 57 60 63 62
50 48 47 48 49 49 48 46 44 49 49 46 47 45 45 43 20 37 43 39 38 42 39 40 41 38 37 37 39 38 40 41 46 48 48 44 45 40 41 42 46 61 61 61 61
50 49 48 48 49 49 46 47 45 46 49 46 47 47 42 38 36 37 39 37 42 43 39 37 37 37 34 37 37 37 39 38 44 48 48 48 45 43 42 48 59 61 62 61 61
51 49 48 47 48 48 47 47 44 45 49 47 45 47 40 27 35 34 35 39 41 40 37 37 38 38 37 36 36 37 38 40 41 46 47 46 44 42 42 53 55 59 60 61 61
52 49 48 48 49 47 44 45 44 45 48 49 45 45 40 30 37 35 41 42 43 41 37 41 43 38 37 36 38 37 37 39 39 44 47 46 42 42 44 49 55 55 58 58 60
52 49 47 47 48 46 44 42 44 47 48 48 45 43 35 38 37 34 42 42 44 44 42 44 43 41 39 40 40 35 36 33 39 43 45 45 39 42 44 43 51 54 56 57 58
53 49 47 48 46 44 43 43 46 48 47 47 42 41 33 36 35 33 33 35 41 43 43 43 42 39 38 34 32 33 30 32 37 42 41 43 40 41 44 44 42 45 52 56 58
53 50 47 47 46 43 44 46 47 46 44 44 41 36 33 30 32 32 37 37 37 39 39 39 39 33 32 33 25 26 32 34 34 42 41 40 39 41 44 43 43 43 46 50 55
52 49 47 46 43 43 46 43 39 36 40 33 32 33 32 33 35 37 38 37 38 36 33 35 31 28 31 35 34 31 33 34 37 41 38 37 39 40 42 43 43 43 41 43 49
52 49 48 45 43 47 44 40 36 35 32 36 33 33 33 35 33 35 39 33 35 31 34 32 29 33 35 35 34 33 32 31 37 40 37 38 37 42 43 43 44 43 42 40 43
52 50 46 44 45 43 40 40 39 36 33 34 34 33 33 36 35 34 39 37 34 31 32 30 32 35 33 33 35 33 31 32 34 38 38 36 35 36 39 43 41 43 43 42 40
51 49 45 45 42 42 39 42 40 38 24 25 31 33 37 38 30 37 41 38 33 32 34 35 37 34 33 35 33 30 35 36 37 35 31 37 28 34 34 38 38 39 40 41 40
51 47 44 45 42 40 39 40 39 32 -5 21 29 36 37 35 35 33 42 40 34 36 36 33 36 34 34 35 34 32 36 36 35 34 34 35 28 29 32 32 33 35 37 38 40
50 47 45 45 44 42 41 41 37 18 -1 21 30 29 32 34 35 38 40 42 40 36 37 36 39 38 37 38 37 37 36 36 36 33 26 32 31 26 25 28 30 31 33 36 39
49 46 45 44 39 42 42 37 23 6 25 20 23 28 29 30 32 35 35 35 32 29 30 34 34 37 38 35 36 35 31 27 24 25 23 31 30 26 27 29 27 30 32 33 35
48 46 44 44 42 43 38 29 15 22 25 30 28 29 27 28 28 31 30 30 34 31 29 28 25 35 37 36 34 33 29 24 20 21 20 29 24 25 23 26 28 30 30 31 33
48 45 44 44 44 41 32 25 14 24 28 27 28 27 24 28 28 28 30 31 33 34 26 26 29 35 37 38 37 31 29 26 21 21 20 25 22 22 25 26 26 27 27 28 29
44 43 42 45 43 38 31 27 29 30 31 28 24 26 21 24 25 27 27 32 32 34 34 29 27 32 35 36 37 32 28 23 21 17 12 18 20 16 22 25 25 25 24 25 26
41 37 44 45 42 36 27 27 31 35 32 29 29 27 25 25 26 28 30 33 34 32 33 30 26 29 31 31 32 30 27 27 24 21 14 16 15 20 20 23 23 25 28 29 28
39 33 44 45 34 33 30 31 34 33 35 33 33 31 23 26 25 30 30 34 36 34 30 32 28 27 30 34 35 33 32 26 18 20 20 18 16 22 23 24 27 29 31 32 33
38 37 43 43 28 30 32 33 33 33 33 33 32 32 29 27 27 31 33 36 36 34 31 30 26 22 23 26 30 29 31 31 27 26 22 16 14 23 27 28 30 30 31 31 33
36 32 38 40 37 31 32 33 32 35 33 34 30 29 28 28 30 30 32 35 36 34 35 32 27 21 17 21 27 27 29 32 29 26 24 23 21 23 24 25 24 26 30 30 29
34 32 34 30 32 34 33 34 32 32 33 32 30 29 27 27 28 30 34 35 35 35 32 31 27 26 26 27 29 29 29 30 28 29 25 26 25 26 28 28 26 27 30 31 30
33 32 32 31 33 33 33 33 32 32 31 30 29 29 28 28 28 29 32 32 30 34 31 31 28 25 24 26 27 25 26 27 28 29 29 29 28 30 30 30 30 31 32 30 30
32 34 32 32 32 32 31 33 32 33 34 32 30 29 29 30 31 32 31 32 32 31 30 30 27 25 23 25 22 19 21 23 26 27 27 24 25 29 28 29 30 31 31 30 31

GFSSW_sfc_30mbdewp_096.txt.gz
Dewpoint
51 50 49 48 49 52 49 47 46 46 49 48 46 46 47 47 48 43 41 40 47 48 48 44 44 43 45 44 45 46 38 35 37 38 37 34 33 38 47 49 50 49 51 56 63
53 50 49 48 48 51 49 48 46 46 50 47 46 47 46 46 44 41 42 45 46 47 43 41 39 42 41 42 41 40 35 34 39 40 36 37 39 36 48 51 51 54 61 59 59
55 52 50 48 47 51 49 48 46 46 50 47 46 46 46 45 39 36 45 43 41 46 44 44 43 40 38 40 40 39 34 36 39 42 46 46 41 42 45 47 52 50 58 57 56
55 54 51 49 48 49 49 47 46 45 48 49 46 46 47 42 17 36 43 40 39 42 38 38 41 37 36 34 39 35 37 38 38 43 44 46 47 42 44 44 47 53 59 59 59
56 55 53 50 48 49 49 46 46 45 48 49 46 48 41 37 36 38 40 38 44 42 39 37 37 37 34 35 36 36 37 39 39 45 45 48 46 45 42 46 58 60 60 57 54
56 54 53 51 48 49 46 47 47 44 47 49 45 47 40 25 31 35 35 38 41 39 37 37 36 37 35 34 35 35 36 37 40 40 44 46 46 45 43 46 57 57 59 58 58
56 54 54 51 49 49 45 44 44 44 47 49 46 45 40 26 36 38 39 41 42 41 37 38 38 37 36 34 36 36 35 34 36 40 41 42 43 42 43 47 55 57 55 58 59
57 54 54 50 49 48 46 43 44 47 48 48 46 43 29 37 38 35 42 42 44 43 41 41 41 41 37 38 37 32 34 32 35 40 42 39 36 41 46 48 49 53 56 55 60
58 54 53 50 50 46 43 44 45 48 47 47 42 40 32 37 33 36 33 34 41 42 43 42 40 38 36 33 30 32 27 31 35 40 40 37 36 42 45 44 45 46 52 55 56
58 55 53 50 48 45 44 46 47 46 45 43 41 36 33 30 32 32 36 36 36 38 38 39 36 34 33 30 21 27 27 30 31 40 39 36 33 36 43 44 43 43 46 51 55
57 54 52 51 47 43 45 42 37 37 40 33 31 32 32 33 35 36 38 36 37 36 32 35 29 27 29 31 30 31 30 32 35 40 37 36 36 38 43 43 42 43 43 44 48
55 53 51 50 46 45 44 39 36 34 30 36 36 33 33 34 32 36 39 33 35 30 33 31 28 31 33 34 33 31 32 32 39 39 37 37 36 38 40 42 43 43 42 41 43
54 52 50 49 45 45 41 40 39 36 32 33 34 33 33 35 34 34 38 36 33 31 30 29 32 34 34 33 33 31 32 35 34 38 39 37 34 36 39 40 43 42 44 43 41
53 51 50 48 42 41 39 41 40 34 22 20 31 33 36 37 30 37 40 37 33 31 33 33 35 32 32 33 33 30 33 36 36 35 30 37 26 35 37 37 38 39 40 41 42
53 50 49 47 41 38 39 40 38 28 -4 19 29 35 37 35 34 35 42 40 33 35 35 33 34 33 32 35 35 33 36 35 35 34 34 34 30 31 36 34 34 36 38 39 40
53 49 49 47 44 41 41 39 34 16 -4 21 30 29 31 34 35 38 40 42 41 37 38 35 35 35 37 38 38 37 34 34 34 31 23 32 28 26 28 30 31 32 33 36 38
52 49 48 46 40 42 40 34 22 7 22 20 24 28 28 29 31 35 35 35 32 28 29 34 35 38 39 35 37 33 29 25 22 20 20 32 27 25 28 28 28 28 29 32 35
50 49 47 44 43 42 35 28 17 18 22 29 27 28 25 28 28 29 30 31 34 29 28 25 27 35 38 37 35 33 28 23 18 19 21 30 25 23 24 26 28 30 31 32 33
49 47 45 43 43 39 32 23 16 20 26 27 27 23 23 26 28 27 29 31 33 33 25 27 29 34 38 38 36 33 26 26 21 21 23 26 25 21 24 26 26 25 25 28 30
45 43 42 44 42 36 30 26 28 28 30 26 21 25 21 24 25 27 27 32 32 33 34 29 28 32 35 35 35 30 29 22 22 16 11 18 20 18 20 24 24 25 26 27 27
43 38 43 44 41 34 27 27 30 33 32 28 28 25 24 25 25 29 30 32 34 33 32 29 27 30 30 33 32 29 26 26 24 20 14 12 14 20 22 22 23 28 30 31 31
40 32 44 44 33 32 29 30 33 33 35 33 33 27 24 25 27 30 30 33 36 34 30 31 28 27 30 34 35 33 32 25 17 19 19 17 16 21 27 28 29 29 31 32 33
37 37 44 43 28 29 31 33 33 33 33 33 32 31 28 26 27 31 32 35 36 33 31 29 25 22 22 26 29 29 32 28 26 24 20 13 16 24 27 28 28 29 29 30 30
37 32 36 39 35 30 32 32 32 34 33 34 31 30 28 28 31 30 32 35 36 35 35 31 26 20 17 22 27 27 29 31 28 23 22 21 20 23 25 26 26 25 28 30 31
35 32 34 30 32 32 33 33 32 31 33 33 29 29 28 27 29 30 34 34 34 34 31 29 26 26 26 28 28 29 29 29 27 27 23 24 25 26 28 29 30 28 28 30 31
32 32 32 31 32 33 33 33 31 32 32 30 29 29 28 27 27 28 32 32 30 32 30 30 27 24 24 25 26 25 26 27 28 29 29 29 28 30 31 30 30 31 31 31 31
33 34 32 31 32 32 31 33 32 33 34 32 30 29 29 30 31 32 31 32 33 30 30 29 26 24 21 24 21 18 21 23 26 27 27 22 24 28 25 27 29 30 31 31 31

GFSSW_sfc_30mbdewp_099.txt.gz
Dewpoint
56 54 54 52 50 50 52 50 48 46 47 49 47 46 46 46 47 43 40 40 47 48 48 43 43 43 44 44 45 46 37 33 33 35 38 39 37 38 42 48 48 49 49 49 58
58 55 54 53 51 49 51 50 49 46 47 49 47 47 47 47 43 40 42 45 46 48 42 37 34 41 39 42 42 38 33 32 35 37 39 39 39 38 42 45 49 49 59 60 57
60 57 55 54 53 50 49 50 48 46 46 50 47 47 46 45 37 33 45 46 41 45 43 43 42 40 38 39 40 38 33 35 35 37 43 43 44 46 41 41 47 48 57 57 57
58 59 56 54 53 50 50 49 47 47 46 50 47 47 47 42 16 35 43 40 44 41 39 38 40 36 36 34 37 34 35 36 37 38 41 42 46 45 42 43 46 51 58 56 55
56 59 57 55 53 50 50 49 47 46 46 50 46 48 41 36 33 38 42 39 43 41 38 36 36 35 31 34 35 34 36 37 38 38 40 45 44 44 46 46 46 55 55 55 55
53 57 56 55 53 51 51 46 47 47 45 49 45 46 39 21 28 36 35 38 41 39 37 38 36 36 34 33 33 33 31 34 35 39 40 43 43 44 45 45 46 53 56 53 54
51 56 57 55 53 51 51 46 45 45 45 48 46 44 39 26 35 38 36 40 41 40 37 38 35 34 36 33 35 33 32 35 33 34 40 43 39 38 44 46 48 52 54 56 55
51 55 57 54 53 51 50 47 44 45 48 48 47 42 28 35 39 38 42 40 43 42 40 40 40 37 36 36 34 31 31 29 32 33 40 39 34 41 41 43 45 50 52 55 56
48 52 56 53 51 51 47 45 44 47 47 47 42 38 29 37 34 36 37 34 40 42 43 42 40 37 37 32 27 27 25 29 31 32 40 37 35 40 41 40 44 46 52 54 56
48 53 56 52 51 51 48 46 47 46 45 42 40 35 31 29 32 32 34 36 36 37 38 39 37 32 33 30 20 25 25 28 31 37 36 36 35 37 39 40 43 45 47 52 55
48 52 53 51 50 50 47 44 38 37 40 32 32 31 32 33 35 34 38 37 36 36 30 35 29 26 28 29 29 31 26 25 32 39 36 35 35 37 39 40 41 45 46 51 54
46 50 53 50 50 49 46 39 35 33 30 38 36 35 34 34 32 35 39 33 35 27 32 30 27 33 29 29 30 30 27 28 33 38 36 36 35 38 40 40 41 44 45 46 49
46 49 52 50 49 48 43 40 40 36 30 33 35 33 33 34 33 34 36 36 33 29 29 28 31 36 33 31 30 27 29 32 32 37 38 36 33 36 39 42 42 43 44 44 44
44 47 50 49 46 44 40 41 41 33 18 20 31 33 36 37 31 37 39 38 34 30 32 30 35 34 32 30 33 29 33 33 35 34 30 38 26 34 38 39 40 38 40 42 42
46 48 49 47 43 41 39 42 38 26 -3 18 29 35 37 36 36 36 42 39 33 33 32 32 34 32 32 32 35 29 36 34 35 33 32 33 29 32 36 37 38 35 37 39 40
45 48 49 46 46 43 41 37 32 14 -4 22 30 29 30 35 35 38 39 41 40 34 33 32 37 36 37 38 36 37 35 35 33 30 23 30 26 25 32 35 34 32 35 36 39
45 50 48 47 41 42 39 33 20 6 20 21 24 27 28 28 31 35 34 34 31 28 28 33 34 39 39 36 36 32 28 23 18 18 20 28 26 26 29 34 31 30 28 30 34
47 51 48 47 45 41 34 27 15 16 20 28 27 26 23 28 28 30 31 30 33 29 28 27 27 35 38 36 33 31 27 20 15 19 22 30 24 25 25 28 29 30 30 33 33
48 47 45 46 44 38 32 22 16 18 25 27 25 21 22 26 28 26 29 30 32 33 26 27 29 36 38 38 37 30 24 26 22 22 23 24 24 20 24 25 25 25 27 30 32
45 42 43 45 42 36 30 26 27 26 29 26 17 24 21 24 25 27 27 32 32 33 33 29 29 34 34 38 36 31 28 21 21 14 15 18 19 18 21 22 25 28 28 28 29
41 36 43 45 40 34 26 26 30 32 31 27 25 24 24 25 26 29 30 32 35 33 31 28 28 29 31 32 32 31 27 25 23 19 12 12 16 20 23 23 26 29 31 32 32
40 32 44 44 30 31 28 30 33 32 35 33 31 26 24 25 28 30 30 33 36 34 29 30 28 28 30 32 34 33 31 24 17 17 18 16 18 22 28 29 29 30 30 30 31
36 37 44 41 27 27 31 32 33 32 33 32 31 31 27 28 27 31 32 35 35 33 31 29 25 22 21 23 28 29 31 27 25 22 19 13 18 24 27 27 25 26 29 30 30
37 31 37 39 33 29 31 32 32 34 33 34 30 30 29 28 31 30 31 35 36 34 35 30 25 19 16 21 27 26 30 30 26 18 21 19 20 23 27 29 30 30 28 28 30
37 33 34 29 31 32 32 32 31 30 33 32 29 29 28 27 28 30 33 33 33 33 31 28 26 25 26 28 27 29 29 29 26 26 22 25 24 27 29 29 29 29 31 31 31
33 33 32 30 31 32 33 32 30 32 32 30 28 28 28 26 26 27 31 31 30 30 30 29 26 24 24 25 25 25 26 27 28 29 29 28 27 28 28 30 31 31 32 32 32
34 34 32 30 29 31 30 32 31 33 33 32 30 29 29 30 32 32 32 32 32 30 30 28 26 22 21 24 21 18 21 24 26 27 27 22 25 30 31 32 32 31 32 33 33

GFSSW_sfc_30mbdewp_102.txt.gz
Dewpoint
56 59 58 55 54 51 50 52 51 48 47 48 49 47 47 47 47 40 36 36 41 46 48 43 39 40 41 39 42 42 35 29 24 25 27 29 34 38 39 36 39 47 45 51 56
55 58 60 56 54 52 51 51 50 48 47 47 49 47 47 47 40 34 35 45 46 49 42 36 33 35 34 36 37 37 30 27 26 26 27 28 35 36 37 37 37 43 47 55 56
53 55 56 57 55 54 51 51 50 48 47 47 50 47 46 46 32 28 45 46 46 42 39 38 35 32 31 32 33 32 29 27 29 30 32 35 36 38 36 39 37 37 44 54 54
50 53 55 58 56 54 51 51 49 47 47 46 50 47 47 40 17 33 45 41 44 42 39 36 34 29 28 27 27 29 30 29 29 33 36 37 39 39 40 37 38 45 51 55 53
46 50 55 58 56 54 51 52 50 48 46 47 48 48 41 33 26 35 43 44 41 37 31 33 31 29 24 24 27 25 24 26 31 32 33 36 38 40 42 43 45 46 48 54 54
45 49 54 57 56 53 50 52 48 48 46 47 47 46 36 25 28 36 35 37 36 37 36 36 33 33 29 28 26 21 24 23 29 32 34 33 36 40 41 46 45 45 48 52 55
45 47 50 56 55 53 50 51 48 47 47 46 47 43 37 27 32 36 36 36 38 37 33 36 36 33 32 29 29 27 25 26 26 26 32 32 33 38 41 42 42 43 47 51 54
44 46 52 53 54 52 51 50 49 45 47 48 48 42 30 33 37 37 37 38 41 40 39 39 39 36 35 34 32 29 25 20 22 30 31 37 24 28 41 40 41 42 46 50 54
43 46 51 53 52 50 49 48 48 46 48 49 44 37 25 37 35 35 36 33 37 40 42 40 39 36 36 31 29 25 16 18 19 29 31 37 30 36 41 41 39 40 42 47 54
42 45 51 54 51 50 48 49 48 46 45 42 39 35 34 28 32 33 35 34 33 35 35 36 36 32 32 29 19 16 18 15 20 27 32 35 36 37 38 39 39 39 42 47 52
42 43 52 51 50 49 48 45 36 38 40 31 31 30 30 33 35 34 36 35 34 33 26 29 29 26 30 30 27 27 20 18 24 25 30 30 33 35 38 39 39 40 42 46 52
42 43 47 51 49 48 46 38 35 35 32 37 36 35 35 34 31 34 38 32 32 27 27 31 27 30 30 29 26 30 25 21 29 32 29 33 33 36 38 38 39 40 42 46 52
43 43 47 50 49 47 44 40 41 37 31 33 35 34 34 34 32 33 34 35 32 30 29 28 29 34 33 27 26 28 25 23 29 34 35 33 32 36 38 40 40 42 42 46 50
43 46 52 49 45 45 43 43 42 37 28 24 32 34 35 36 33 37 37 37 35 31 32 31 34 32 32 27 28 24 26 28 31 30 28 36 26 31 37 38 40 42 42 45 46
43 45 51 47 44 41 42 43 39 32 14 22 30 36 37 35 35 37 40 39 32 32 31 31 32 31 30 29 30 24 28 32 32 29 30 30 26 31 36 37 39 41 41 43 45
43 45 50 46 44 45 43 37 33 24 7 23 30 30 32 35 35 38 39 40 39 32 35 33 37 37 35 31 33 36 34 34 32 30 26 29 27 31 34 37 40 39 39 40 43
45 46 48 46 41 46 38 33 26 18 21 23 26 28 27 28 30 34 34 33 32 30 29 33 35 38 39 33 36 35 34 26 23 23 22 28 26 29 33 36 38 37 35 30 37
45 49 47 47 46 42 35 29 21 18 23 27 27 26 26 28 28 29 31 30 32 32 31 29 27 35 39 36 31 31 27 23 16 17 22 29 28 29 29 26 32 35 32 33 34
45 47 45 46 45 39 30 27 23 21 25 26 26 22 24 26 28 27 29 31 32 32 28 28 29 37 37 38 36 30 26 26 23 25 21 23 22 26 25 24 27 28 31 32 32
45 42 43 46 44 37 31 27 29 25 29 26 19 23 21 25 26 27 27 32 33 34 32 30 29 35 35 36 35 30 28 23 25 17 15 17 18 21 22 23 26 27 28 30 31
41 37 43 45 41 31 27 27 30 32 31 27 23 24 24 25 27 28 29 32 35 33 31 29 29 32 33 32 32 30 26 25 22 19 12 11 18 23 23 24 28 29 31 31 32
40 32 44 45 32 30 27 30 32 31 34 33 29 26 25 26 28 29 29 33 36 35 28 30 29 29 30 32 33 32 29 24 21 17 19 15 20 26 28 29 29 29 30 31 31
37 37 45 43 28 26 30 32 34 32 33 32 30 30 27 28 27 31 32 35 36 34 30 28 25 24 24 26 28 30 31 29 25 25 21 16 20 26 27 28 30 30 29 29 31
38 31 37 38 32 26 31 32 30 34 34 33 31 30 29 29 31 30 31 34 36 34 34 30 26 22 19 24 28 27 28 29 27 25 19 20 22 26 27 27 26 28 30 31 31
39 34 35 30 30 30 32 33 29 29 33 31 29 29 28 26 28 29 32 32 32 32 31 30 27 26 27 27 29 28 28 28 27 25 23 24 24 25 26 28 30 31 32 32 32
36 33 32 30 30 30 33 32 28 32 32 30 29 29 29 26 27 26 30 30 30 30 30 30 27 26 25 24 25 24 25 26 27 28 28 27 26 30 31 31 29 31 32 32 32
35 34 31 30 29 30 30 32 31 33 33 32 30 30 30 31 32 32 32 31 31 30 29 28 27 24 22 23 20 18 21 23 25 27 27 21 28 30 29 30 31 32 32 32 33

GFSSW_sfc_30mbdewp_105.txt.gz
Dewpoint
53 54 56 58 57 55 52 51 52 50 48 47 50 48 47 47 47 40 34 37 39 41 49 40 37 36 36 35 37 38 33 27 24 22 21 22 24 31 34 37 37 36 38 49 57
49 52 54 55 58 55 53 51 52 50 48 47 50 48 47 46 39 31 33 41 45 47 42 35 31 32 30 31 32 34 31 26 24 23 21 21 22 24 28 35 35 38 40 52 56
46 46 53 54 57 56 54 51 52 49 48 47 50 47 46 45 32 23 39 43 47 46 38 35 31 29 27 27 29 30 28 27 24 23 25 24 24 30 32 33 38 37 37 53 54
44 46 47 54 56 57 54 52 51 48 47 47 49 47 47 37 22 36 48 46 45 41 37 33 29 26 23 22 26 25 26 26 26 26 29 31 34 33 35 36 34 37 46 47 52
43 45 45 52 53 57 53 50 51 49 47 46 49 48 41 34 28 37 44 45 42 38 30 27 26 22 19 15 17 18 21 23 25 26 28 30 32 34 34 38 44 46 46 46 52
42 43 46 50 53 56 50 51 49 48 47 46 48 47 37 31 26 33 37 38 33 32 30 30 28 27 26 23 21 18 16 17 19 21 27 27 28 31 33 37 43 43 43 45 50
42 43 44 49 53 52 50 51 49 48 47 46 48 44 38 33 27 32 34 32 33 33 30 30 31 30 27 25 25 25 23 20 18 21 24 27 26 27 29 36 40 39 40 43 47
43 43 44 49 53 51 51 51 48 46 46 47 49 43 35 31 30 33 32 32 35 35 35 34 35 32 30 32 30 27 27 22 18 16 21 23 24 23 27 38 38 38 42 41 45
42 42 44 46 50 51 51 49 47 46 49 48 45 41 28 37 30 29 30 32 33 36 37 35 36 32 34 30 27 25 22 19 17 13 20 24 26 24 32 39 37 39 38 38 44
41 42 44 50 53 50 47 47 48 47 45 42 38 32 30 27 31 31 33 32 31 31 33 34 34 30 31 29 19 24 23 16 14 11 19 24 27 33 38 39 38 39 39 40 45
43 42 44 53 50 48 48 45 38 37 38 30 30 29 27 30 33 32 33 33 32 30 26 28 29 24 24 28 30 27 21 17 18 10 24 22 27 29 33 37 37 38 39 41 46
44 44 42 50 49 48 47 39 35 37 33 33 34 33 33 34 31 32 35 32 31 30 30 30 26 26 34 33 32 31 23 20 19 22 23 23 26 27 31 34 35 37 38 41 46
44 44 43 48 49 48 43 40 40 37 30 33 34 33 33 34 31 32 35 34 32 32 32 29 29 34 33 30 27 26 24 22 29 25 24 22 25 30 35 38 37 39 38 42 46
43 44 49 51 45 45 42 45 42 39 31 28 31 33 35 34 34 36 36 36 35 31 32 31 33 33 32 28 24 19 21 28 31 25 24 27 22 31 36 38 37 35 40 44 48
43 44 51 46 45 42 44 44 42 35 18 26 30 36 35 35 35 37 38 39 32 33 32 32 32 32 31 26 24 25 27 26 30 26 30 33 31 32 36 37 38 41 40 45 48
43 45 50 45 45 45 45 42 37 28 17 25 30 32 32 34 34 38 39 40 37 34 35 33 36 35 32 31 28 31 30 34 36 32 23 28 29 31 33 37 41 39 42 45 48
45 46 48 45 42 46 42 35 29 23 20 26 29 29 28 28 30 33 34 36 33 30 30 34 35 36 37 32 34 33 33 27 25 25 22 30 27 31 34 35 40 40 34 44 46
46 48 48 46 47 44 38 31 24 20 24 26 27 27 26 28 28 28 30 34 35 33 31 29 25 34 37 36 34 32 31 26 22 22 24 29 26 30 36 36 40 38 34 38 40
48 46 45 46 45 43 33 29 27 24 24 26 26 23 24 25 27 26 28 30 31 31 31 31 30 36 36 37 35 30 25 26 24 21 21 27 30 34 28 32 38 37 32 34 36
45 43 42 46 45 41 32 28 29 25 28 26 19 22 20 23 24 25 26 32 32 32 33 32 29 34 35 35 34 29 27 25 27 17 15 24 28 28 26 26 31 31 30 31 32
42 37 43 46 44 33 29 28 28 29 32 27 22 22 22 23 26 25 26 31 33 32 31 31 32 31 33 31 31 30 26 23 23 19 12 15 20 24 24 27 27 29 30 31 31
41 32 44 45 35 30 26 31 32 29 34 31 28 25 24 26 25 25 27 30 34 33 28 29 30 28 29 31 30 31 28 24 24 15 18 16 21 27 27 28 28 29 29 31 32
37 37 44 44 30 26 30 32 33 30 31 30 28 27 28 27 25 28 29 34 34 33 30 28 25 26 25 27 28 27 26 25 25 30 21 17 21 26 28 27 28 29 30 31 32
37 32 37 37 31 26 30 30 26 34 33 31 29 29 27 26 28 27 27 32 34 32 34 31 27 25 23 27 29 26 26 25 29 25 20 21 24 24 25 27 28 29 30 31 32
37 33 33 30 30 28 32 30 26 27 33 31 28 28 26 22 24 25 29 28 30 31 30 29 27 27 26 26 28 25 25 25 26 24 23 23 23 26 28 27 29 30 31 31 31
34 31 33 30 29 29 31 30 25 29 31 27 27 29 27 26 27 25 27 27 28 28 28 29 26 27 23 23 24 21 22 24 25 25 25 25 26 28 29 28 29 30 30 30 31
36 35 30 30 28 28 28 30 28 31 33 32 29 27 28 31 31 31 31 30 30 29 27 26 26 25 22 21 19 18 21 23 24 25 25 22 28 28 29 30 30 31 30 28 27

GFSSW_sfc_30mbdewp_108.txt.gz
Dewpoint
47 48 50 53 55 58 57 54 52 52 50 48 48 50 48 47 47 44 38 38 40 44 47 41 38 35 36 34 37 38 33 31 29 27 26 25 21 23 30 31 32 35 38 52 58
46 46 46 50 55 57 57 54 52 52 49 47 48 50 47 47 41 34 33 40 43 44 41 37 32 31 31 30 32 33 33 31 30 27 24 23 23 22 22 28 32 37 40 56 58
43 44 47 47 52 55 57 54 52 51 49 47 48 49 47 46 36 34 40 41 46 48 41 35 32 29 26 27 28 30 30 31 29 28 26 25 28 26 30 31 32 36 39 53 56
43 43 43 48 51 54 57 53 52 51 48 47 48 48 48 39 24 44 43 47 48 39 36 31 28 26 23 21 23 24 26 27 27 28 27 27 29 30 33 34 35 41 45 46 51
44 43 43 44 48 53 56 53 50 49 48 47 49 48 44 35 30 44 44 46 44 37 30 26 25 23 20 18 16 15 17 19 21 24 26 26 27 29 31 34 36 41 44 46 48
42 44 44 44 48 52 55 51 51 50 48 48 49 48 38 30 27 39 37 40 34 33 28 29 27 27 26 23 21 19 18 18 19 19 19 22 26 26 27 30 32 37 44 45 48
44 43 44 44 47 53 52 51 49 49 47 47 48 45 38 29 28 31 34 32 32 32 29 29 29 29 28 25 26 26 25 25 24 22 19 21 21 25 28 28 30 39 41 42 46
45 43 43 44 47 53 52 51 49 47 46 46 48 44 35 31 32 32 31 30 33 33 32 33 33 31 30 31 30 27 26 24 24 24 21 20 20 26 27 26 27 35 39 42 43
46 43 43 43 46 50 53 50 47 46 47 47 47 42 29 35 27 28 29 30 32 34 34 33 32 32 31 30 26 25 22 21 21 22 21 17 19 22 24 25 25 35 36 38 41
46 44 44 44 50 52 49 48 47 49 47 44 38 35 30 28 30 30 31 32 30 32 32 34 32 31 30 29 17 19 21 27 25 21 19 16 21 23 25 28 25 35 37 39 40
45 44 45 51 53 49 48 48 43 39 38 33 31 28 27 31 32 32 31 32 31 30 26 28 30 26 26 27 25 24 27 25 24 19 18 13 26 29 35 36 37 38 38 39 41
45 44 45 49 49 49 47 40 36 37 33 36 32 31 32 33 31 32 34 31 31 30 31 31 28 28 26 29 30 30 27 25 25 25 21 19 24 26 27 31 36 38 39 39 41
44 44 45 46 50 48 44 42 41 38 31 33 32 33 33 34 31 32 34 34 35 33 32 29 30 33 33 31 28 29 25 24 25 31 24 26 28 27 28 30 32 35 38 38 42
44 44 47 51 46 46 42 45 45 39 31 29 32 33 35 34 34 34 36 37 36 32 33 32 32 33 31 29 27 24 25 25 29 28 25 30 21 25 31 37 38 36 38 40 47
44 50 49 48 45 41 45 47 44 37 20 27 31 37 35 35 35 36 38 39 33 33 33 32 33 29 27 27 26 22 28 35 31 31 27 24 26 32 37 36 37 39 39 46 49
46 49 49 45 46 46 47 44 39 29 15 24 32 33 32 34 34 38 38 40 39 35 34 33 36 35 32 33 32 30 33 34 32 30 26 30 31 29 32 34 39 39 43 47 51
46 49 48 46 42 47 43 38 29 22 21 25 29 30 30 31 31 34 37 36 33 30 29 34 34 36 36 34 35 34 30 25 24 25 25 32 29 30 37 37 39 38 41 49 50
48 48 47 47 47 44 40 33 22 20 25 27 28 28 28 28 28 29 36 32 35 32 32 29 24 35 37 35 32 34 33 27 21 23 27 29 26 31 38 41 42 40 41 47 48
46 45 44 46 46 44 37 26 27 27 25 27 27 25 25 26 27 27 30 30 32 31 30 31 29 35 37 37 36 32 30 31 30 25 25 29 32 36 37 37 37 39 42 45 44
44 41 42 46 46 41 35 27 27 26 28 26 22 23 20 23 25 25 28 31 32 32 35 31 28 33 34 35 36 33 29 26 29 23 21 27 27 28 32 34 34 34 36 41 39
42 37 44 46 44 37 29 28 27 29 32 29 24 21 22 23 24 24 28 32 33 32 33 32 33 29 32 31 30 29 27 25 24 20 15 20 25 32 34 36 35 32 32 32 32
39 33 43 46 35 33 29 31 32 30 33 31 29 25 25 26 25 25 27 32 34 33 30 29 30 28 29 30 29 31 25 24 23 22 21 24 26 28 28 29 29 31 32 32 33
37 37 42 43 30 27 30 30 32 31 31 31 28 28 28 27 26 27 28 34 34 33 30 29 26 26 26 28 29 26 26 28 27 32 21 21 26 26 27 28 29 30 32 33 34
36 32 37 38 35 28 29 28 26 34 32 31 29 29 25 25 26 27 27 31 33 31 33 34 28 27 25 26 29 25 26 27 29 23 24 25 23 26 27 29 30 31 31 32 32
36 32 33 31 31 30 32 29 25 27 31 29 27 27 25 23 23 26 26 27 30 30 30 30 26 26 25 26 27 23 24 26 24 25 23 23 26 27 26 28 29 30 31 31 30
37 33 33 31 29 29 32 30 25 28 32 26 27 27 29 28 28 28 28 29 28 30 28 28 26 27 22 22 22 21 23 25 26 26 26 26 26 28 28 29 30 30 29 28 26
37 35 34 30 28 27 29 30 26 30 32 32 30 28 30 31 31 31 30 29 29 29 28 26 26 26 23 22 20 20 21 23 23 26 27 25 27 28 29 29 30 31 29 26 22

GFSSW_sfc_30mbdewp_111.txt.gz
Dewpoint
46 47 47 48 50 55 57 57 54 55 51 49 47 51 48 48 47 46 41 40 42 45 44 42 39 37 36 35 35 37 35 31 32 32 31 29 26 26 26 24 25 34 43 51 58
46 45 46 47 48 52 56 57 55 54 51 48 48 50 48 47 45 40 37 42 43 44 40 40 33 32 32 31 33 34 33 32 33 32 30 29 27 28 29 31 30 35 55 56 57
43 44 44 44 46 52 55 57 54 53 51 48 49 50 48 47 40 36 41 40 44 47 45 35 32 29 26 26 27 30 30 32 32 32 31 30 27 28 29 30 34 38 45 55 55
45 44 45 44 45 48 52 57 53 52 50 48 49 49 48 45 28 42 41 44 47 42 36 30 28 26 25 22 22 22 24 26 28 29 28 27 28 26 28 29 33 35 46 47 51
46 44 44 44 45 48 53 55 54 51 49 47 49 49 45 37 35 47 46 48 42 36 30 27 26 25 23 23 23 19 17 20 21 22 22 20 20 25 26 29 30 31 36 44 46
46 45 44 45 45 47 50 56 52 50 48 48 49 48 40 26 43 44 45 43 36 33 29 29 29 29 25 25 24 25 27 26 26 25 23 21 20 21 23 28 28 28 30 44 45
46 45 44 44 45 50 54 53 53 49 48 49 49 46 38 24 32 40 38 35 33 32 31 35 33 30 30 27 30 28 25 27 26 26 26 25 21 19 22 26 27 28 30 41 44
47 47 44 44 45 50 54 52 50 49 47 48 48 46 34 33 33 32 32 32 33 33 33 33 33 31 30 32 29 25 25 22 24 25 26 26 21 18 22 23 27 27 27 36 41
46 46 45 45 45 50 52 50 48 46 46 47 47 43 31 33 28 31 30 30 34 33 34 32 33 32 32 29 26 26 21 23 24 25 25 25 22 21 21 23 25 27 27 31 38
46 45 46 47 48 52 49 49 48 47 47 47 42 36 32 30 29 28 29 32 32 35 34 34 33 31 30 29 18 18 23 24 25 24 25 25 23 21 20 22 22 22 26 34 39
45 45 47 53 52 49 50 49 43 41 41 34 32 30 29 32 32 31 32 32 31 30 27 32 29 25 26 29 26 25 25 24 24 28 27 25 22 21 21 27 29 34 25 37 39
45 45 47 50 49 48 45 42 38 38 32 36 34 32 33 33 32 33 34 31 31 29 31 30 27 29 29 27 27 30 28 26 26 26 27 27 23 22 23 27 33 36 36 38 40
44 44 48 52 48 46 44 43 44 40 31 33 33 33 33 34 32 33 34 35 34 33 32 28 29 34 33 32 30 28 27 27 25 27 28 25 21 20 22 30 32 36 37 39 39
47 46 46 50 46 46 44 46 45 41 28 29 32 34 35 34 34 36 38 37 36 30 34 31 32 32 31 30 31 26 27 29 31 27 21 26 20 25 25 26 31 33 37 38 41
48 50 49 48 45 42 45 48 45 38 9 28 32 37 36 35 35 37 40 38 34 34 33 29 33 33 27 27 28 26 26 29 30 29 27 24 25 31 37 32 36 39 37 38 47
48 49 47 45 45 46 47 46 40 27 7 23 33 33 34 35 35 37 38 40 39 35 35 33 36 35 32 31 33 34 32 33 32 30 23 26 26 29 31 34 36 39 42 45 48
49 48 47 47 42 46 43 39 24 11 21 24 28 31 31 32 34 37 37 35 33 28 28 34 33 35 35 35 36 35 30 24 21 21 23 31 28 30 34 38 39 41 39 48 51
48 46 46 46 46 45 40 31 15 21 24 28 29 29 28 29 29 33 35 32 35 33 30 28 21 33 37 35 32 32 31 26 20 22 26 32 25 28 37 39 41 41 45 48 47
45 44 44 46 46 43 36 23 24 25 27 27 27 26 26 26 27 28 31 30 32 31 28 29 27 34 36 37 38 35 31 33 29 31 24 28 30 35 36 37 41 43 43 42 42
42 42 42 46 46 39 32 27 25 28 31 28 24 24 22 24 25 25 29 32 32 32 34 32 29 32 33 37 36 36 33 27 29 22 20 25 27 27 31 34 38 40 39 41 40
40 38 41 45 42 36 28 28 28 30 33 30 27 24 24 24 25 26 29 32 33 33 33 32 32 29 31 29 28 29 27 25 25 23 23 21 26 32 32 37 34 37 40 38 33
38 33 41 44 33 33 28 31 32 30 33 32 30 27 26 27 27 26 28 31 34 33 31 30 30 26 27 30 29 29 27 25 22 20 23 25 26 33 36 37 32 32 33 34 34
36 36 41 43 27 28 30 30 32 33 32 30 29 29 28 26 26 27 29 33 34 32 28 30 27 24 23 23 27 28 26 28 28 27 23 21 27 29 30 31 32 32 32 32 33
36 30 34 37 36 29 30 27 28 34 33 31 29 29 26 24 27 27 28 31 33 30 33 33 27 26 19 24 29 24 26 26 26 24 25 25 25 27 29 30 31 31 31 31 30
36 31 32 27 28 31 31 30 27 29 32 31 28 29 27 25 26 26 28 28 31 30 30 30 25 25 26 27 25 23 25 26 24 25 22 25 25 26 28 29 30 31 29 26 24
36 33 33 31 29 30 31 29 26 29 31 29 28 30 30 29 29 28 29 29 29 30 28 29 23 26 22 22 22 21 23 25 26 27 27 27 26 27 29 30 30 29 26 24 21
40 36 33 30 28 28 28 30 28 31 32 32 32 31 29 31 31 31 31 30 29 28 28 26 26 26 23 22 20 19 21 23 24 27 27 24 27 29 29 30 31 31 28 24 21

GFSSW_sfc_30mbdewp_114.txt.gz
Dewpoint
45 46 46 45 47 49 53 57 58 54 53 50 48 50 49 48 47 45 40 39 43 45 42 41 38 37 36 34 34 37 35 32 31 32 33 31 30 28 30 29 31 38 53 56 58
44 44 46 46 45 47 53 55 57 55 54 50 48 51 49 47 44 41 41 43 45 43 41 37 30 33 32 31 33 34 34 33 34 32 31 31 31 30 28 28 32 35 40 56 58
50 44 46 46 43 46 50 55 56 55 53 49 49 51 49 47 39 36 42 41 44 47 46 34 31 28 27 26 27 29 31 32 31 32 32 31 30 28 27 27 28 31 34 49 54
49 48 44 46 45 45 48 53 57 55 52 48 49 50 48 44 28 41 42 44 44 38 34 28 27 26 25 22 22 20 21 22 25 27 25 21 24 20 23 25 29 31 34 35 49
48 48 45 44 45 46 48 52 56 54 51 48 49 49 43 36 38 44 47 44 39 34 28 27 26 25 22 24 23 20 23 26 27 27 25 23 21 20 20 24 28 30 31 31 36
50 47 46 45 45 46 48 51 56 52 49 48 50 48 40 28 43 46 45 43 35 32 30 30 29 29 27 26 24 26 27 26 27 27 28 25 23 22 20 22 23 25 28 31 35
49 47 46 45 45 49 53 55 53 50 48 49 50 45 34 27 36 44 41 36 34 33 33 34 33 29 30 27 30 28 24 24 22 23 23 24 21 21 22 21 21 25 25 29 32
47 47 46 46 46 51 54 53 52 52 49 49 49 44 32 34 38 34 33 33 34 34 33 33 32 31 29 31 29 25 25 20 21 24 25 25 19 20 21 21 20 23 26 29 30
47 46 46 46 47 50 53 51 49 48 48 49 45 41 31 32 30 32 31 32 33 33 34 33 33 31 32 28 24 24 17 21 23 27 27 26 24 26 26 23 21 20 25 28 29
46 46 46 47 50 51 49 48 47 47 47 47 43 32 33 30 28 29 30 32 33 34 34 33 33 30 30 26 15 18 20 22 21 23 24 25 27 28 27 24 21 20 21 24 26
46 47 52 53 51 50 49 46 41 40 40 35 34 31 31 32 32 31 32 32 31 31 29 33 28 24 24 28 25 24 24 24 25 26 26 26 26 27 28 26 22 22 26 29 29
46 51 52 51 51 51 46 39 40 39 32 35 34 32 33 33 31 32 33 31 31 28 31 28 25 27 29 28 27 27 26 24 26 27 26 26 26 27 28 25 24 26 28 33 32
46 49 50 49 47 45 44 43 45 39 28 32 33 34 33 33 32 33 33 34 33 31 31 26 26 32 31 30 28 27 26 26 25 26 29 28 24 25 24 26 27 28 34 37 38
45 49 49 48 44 46 43 46 44 41 24 30 32 34 34 35 34 36 39 37 35 29 31 30 31 31 31 30 28 25 27 28 27 29 22 24 17 23 34 34 27 25 25 32 37
46 46 49 47 44 43 46 47 45 37 4 28 33 37 36 35 35 38 40 37 34 33 32 28 32 32 30 27 29 26 28 28 30 30 28 25 21 26 34 34 36 38 40 36 38
49 49 48 45 45 45 47 45 38 17 12 24 33 32 34 35 36 38 38 40 39 35 34 33 36 35 32 31 29 32 34 33 33 30 21 24 23 28 30 32 35 38 41 42 40
48 47 46 46 41 46 43 37 17 15 21 23 28 33 32 33 34 36 36 35 32 27 26 32 33 35 35 33 36 36 30 23 21 20 20 31 27 29 32 35 39 40 40 45 48
47 45 46 46 45 44 39 24 18 21 22 28 30 30 28 31 32 36 36 33 36 34 29 26 23 33 36 36 32 32 31 26 19 20 24 32 25 28 35 42 43 44 44 45 46
45 44 43 44 45 41 32 21 22 25 28 27 27 26 26 27 28 31 33 30 32 31 29 28 25 32 35 37 37 35 31 34 28 31 23 28 30 34 36 36 40 41 41 43 44
41 41 40 44 45 38 28 25 25 28 31 28 24 25 22 25 25 27 29 32 32 33 34 31 28 31 33 37 37 36 36 29 29 22 18 23 26 26 30 31 36 37 40 41 42
39 34 39 43 41 32 26 27 28 30 33 29 28 25 25 25 26 27 28 32 33 33 33 32 32 28 31 28 28 29 28 27 26 29 22 21 25 33 32 33 36 38 38 38 37
38 30 39 43 30 30 28 30 32 30 33 32 30 28 27 27 27 26 27 29 34 33 30 30 29 26 25 30 30 29 27 26 20 22 24 25 25 35 37 37 37 33 32 33 33
35 35 40 40 26 28 30 29 32 32 32 30 28 29 28 26 25 27 28 31 34 31 29 30 27 23 11 17 26 27 26 27 27 24 23 21 25 30 34 31 32 31 31 30 29
34 27 31 34 35 30 28 26 25 33 32 31 30 29 26 25 28 26 27 30 32 31 33 32 27 24 17 22 27 24 25 26 25 22 24 25 27 28 30 30 30 30 28 25 24
34 31 33 27 28 31 31 29 28 28 31 31 28 30 28 24 26 27 28 29 30 31 30 29 23 25 25 26 26 23 24 26 24 24 21 25 25 27 29 30 30 29 25 22 21
35 33 33 31 30 29 31 28 27 29 30 29 29 30 30 28 29 26 29 28 28 29 28 29 23 26 23 22 21 20 22 25 26 27 26 26 25 27 29 30 29 27 25 23 21
41 37 33 30 29 28 28 30 29 32 32 32 32 31 28 30 32 31 31 30 29 28 28 26 25 24 22 21 20 17 20 23 24 27 27 23 25 28 29 30 31 30 27 23 21

GFSSW_sfc_30mbdewp_117.txt.gz
Dewpoint
49 46 48 46 45 48 50 54 58 57 54 51 49 51 50 48 45 43 38 40 43 45 41 39 32 35 35 34 35 38 35 32 31 33 32 32 31 29 30 28 29 35 38 54 59
51 47 45 45 47 45 49 54 56 58 54 51 49 51 49 47 43 39 41 44 44 42 40 32 30 33 31 30 33 35 34 32 33 33 32 32 31 31 28 28 29 29 30 38 58
51 50 47 48 47 45 47 52 56 56 54 51 49 51 49 46 36 38 43 42 46 47 41 33 30 28 27 26 27 30 31 33 31 30 30 32 31 27 25 25 28 26 28 31 39
51 49 48 44 46 46 46 50 54 57 54 50 49 51 49 43 27 40 43 44 41 34 30 28 26 26 24 22 23 21 22 21 24 26 26 21 23 20 22 22 25 29 31 33 32
51 49 48 45 45 45 47 50 53 56 52 50 51 50 42 34 39 43 46 43 35 32 29 27 27 25 22 24 24 21 23 27 28 28 27 26 23 21 21 22 23 26 30 31 31
50 49 47 45 45 46 49 50 53 55 50 50 51 48 37 33 43 47 43 39 34 34 33 30 29 28 27 26 25 28 28 26 26 25 26 23 21 23 21 22 22 22 23 25 30
49 48 47 46 46 48 52 52 55 51 49 50 50 43 32 39 40 44 40 34 34 34 32 33 32 28 29 26 30 29 24 23 20 22 22 25 22 18 19 21 21 21 23 25 27
48 47 46 47 47 50 54 54 52 50 50 49 48 38 31 34 41 40 33 33 34 34 33 33 32 30 28 30 28 24 25 16 20 24 24 26 18 22 25 23 22 22 21 24 26
47 46 46 46 48 52 53 52 52 53 50 49 42 34 29 33 33 32 33 32 33 34 35 35 33 31 31 26 21 23 15 19 21 26 26 27 24 26 28 27 27 26 24 22 25
46 46 46 52 53 53 51 50 51 49 47 43 40 26 32 28 29 31 30 35 34 34 33 34 32 29 29 25 15 17 19 21 22 23 24 23 25 27 27 28 28 27 25 23 25
49 50 48 51 52 51 49 46 40 36 38 34 33 30 31 32 32 30 33 32 32 31 29 33 28 23 23 27 25 25 24 23 24 25 25 26 26 26 27 28 28 28 25 23 25
51 53 50 52 51 50 47 39 40 37 30 34 34 32 32 33 30 32 33 30 31 28 30 27 25 27 28 29 28 27 25 23 24 26 26 25 25 27 29 29 29 28 25 24 27
50 51 50 51 49 46 44 43 45 38 28 32 33 34 33 33 33 31 32 34 33 30 29 26 25 31 31 29 28 26 25 24 24 27 28 28 25 22 32 32 27 27 27 28 31
51 50 48 49 43 45 43 47 44 37 27 30 31 34 34 35 34 38 40 36 34 28 32 29 30 31 30 29 29 23 26 26 27 27 23 26 20 22 32 35 34 36 37 31 31
48 49 48 46 43 43 45 46 44 33 15 27 33 37 36 35 35 37 40 36 33 33 32 27 31 31 30 30 30 26 28 30 32 30 29 26 23 21 33 31 34 35 38 41 42
50 49 47 45 43 45 45 43 35 16 16 25 33 32 33 35 36 38 38 39 40 36 35 34 35 35 33 32 30 29 30 32 33 30 22 24 24 24 29 32 35 36 39 44 46
47 46 45 45 41 45 43 34 17 16 20 24 29 33 32 33 35 36 36 35 33 28 25 31 32 34 35 33 36 35 31 22 21 20 18 30 26 29 33 36 39 40 42 45 47
46 45 45 44 45 43 35 24 18 22 22 27 29 31 29 31 33 36 36 33 36 35 31 26 19 31 36 35 33 33 31 26 18 20 22 30 24 29 36 39 41 43 43 45 46
44 42 41 42 44 39 28 22 22 24 27 27 28 27 26 28 29 34 34 30 32 35 28 28 25 30 33 37 37 34 31 35 28 30 23 27 30 34 35 34 38 39 41 43 45
40 39 38 42 43 36 27 24 25 27 30 29 24 25 22 24 26 27 29 31 31 33 33 30 27 31 32 36 37 36 36 29 28 22 18 24 26 26 30 31 33 35 37 41 41
38 32 38 43 39 31 25 26 28 30 32 29 27 25 25 25 27 27 27 31 33 32 34 32 31 27 29 27 28 29 28 30 27 28 21 19 24 36 33 33 33 35 37 36 35
35 26 37 41 28 29 27 30 33 32 33 32 30 28 27 27 26 26 27 28 33 33 30 31 28 25 24 28 30 29 27 27 21 21 25 24 25 36 36 37 37 32 31 29 28
33 33 37 36 24 27 30 29 31 31 31 30 28 29 29 26 25 28 27 30 34 32 29 30 26 20 9 16 25 26 26 27 27 25 23 20 24 31 34 36 32 28 25 23 22
32 26 31 32 33 29 29 26 24 32 32 31 30 29 27 25 27 26 27 29 32 31 33 32 26 22 15 19 25 24 23 26 25 21 23 23 26 29 30 30 29 25 22 22 22
33 31 32 27 28 30 31 29 28 26 31 31 28 30 29 25 26 26 28 28 28 30 31 29 23 25 24 25 25 24 22 25 24 24 20 23 26 28 30 30 30 27 23 21 22
33 32 33 30 30 28 29 28 27 28 30 28 29 31 30 26 28 25 29 28 28 29 28 28 22 26 25 23 22 20 21 24 25 26 26 26 25 27 30 30 30 27 24 22 22
39 37 33 30 28 27 28 30 30 32 31 32 32 32 29 29 32 31 31 31 30 28 27 26 25 23 16 22 18 10 18 21 24 26 26 24 25 28 29 30 30 29 27 23 22